[[{"header":{"parameterUnit":"m.s-1","parameterCategory":1,"la1":31.0,"la2":29.5877,"lo1":-88.7671,"lo2":-86.6584,"dx":0.0162,"dy":0.0185,"nx":115,"ny":88,"refTime":"2022-12-31T06:00:00:Z","depth":0,"parameterNumber":2,"parameterNumberName":"U-component_of_WINDS"},"data":[0.0,0.0,0.0,0.0,0.0,0.0,0.0,0.0,0.0,0.0,0.0,0.0,0.0,0.0,0.0,0.0,0.0,0.0,0.0,0.0,0.0,0.0,0.0,0.0,0.0,0.0,0.0,0.0,0.0,0.0,0.0,0.0,0.0,0.0,0.0,0.0,0.0,0.0,0.0,0.0,0.0,0.0,0.0,0.0,0.0,0.0,0.0,0.0,0.0,0.0,0.0,0.0,0.0,0.0,0.0,0.0,0.0,0.0,0.0,0.0,0.0,0.0,0.0,0.0,0.0,0.0,0.0,0.0,0.0,0.0,0.0,0.0,0.0,0.0,0.0,0.0,0.0,0.0,0.0,0.0,0.0,0.0,0.0,0.0,0.0,0.0,0.0,0.0,0.0,0.0,0.0,0.0,0.0,0.0,0.0,0.0,0.0,0.0,0.0,0.0,0.0,0.0,0.0,0.0,0.0,0.0,0.0,0.0,0.0,0.0,0.0,0.0,0.0,0.0,0.0,0.0,0.0,0.0,0.0,0.0,0.0,0.0,0.0,0.0,0.0,0.0,0.0,0.0,0.0,0.0,0.0,0.0,0.0,0.0,0.0,0.0,0.0,0.0,0.0,0.0,0.0,0.0,0.0,0.0,0.0,0.0,0.0,0.0,0.0,0.0,0.0,0.0,0.0,0.0,0.0,0.0,0.0,0.0,0.0,0.0,0.0,0.0,0.0,0.0,0.0,0.0,0.0,0.0,0.0,0.0,0.0,0.0,0.0,0.0,0.0,0.0,0.0,0.0,0.0,0.0,0.0,0.0,0.0,0.0,0.0,0.0,0.0,0.0,0.0,0.0,0.0,0.0,0.0,0.0,0.0,0.0,0.0,0.0,0.0,0.0,0.0,0.0,0.0,0.0,0.0,0.0,0.0,0.0,0.0,0.0,0.0,0.0,0.0,0.0,0.0,0.0,0.0,0.0,0.0,0.0,0.0,0.0,0.0,0.0,0.0,0.0,0.0,0.0,0.0,0.0,0.0,0.0,0.0,0.0,0.0,0.0,0.0,0.0,0.0,0.0,0.0,0.0,0.0,0.0,0.0,0.0,0.0,0.0,0.0,0.0,0.0,0.0,0.0,0.0,0.0,0.0,0.0,0.0,0.0,0.0,0.0,0.0,0.0,0.0,0.0,0.0,0.0,0.0,0.0,0.0,0.0,0.0,0.0,0.0,0.0,0.0,0.0,0.0,0.0,0.0,0.0,0.0,0.0,0.0,0.0,0.0,0.0,0.0,0.0,0.0,0.0,0.0,0.0,0.0,0.0,0.0,0.0,0.0,0.0,0.0,0.0,0.0,0.0,0.0,0.0,0.0,0.0,0.0,0.0,0.0,0.0,0.0,0.0,0.0,0.0,0.0,0.0,0.0,0.0,0.0,0.0,0.0,0.0,0.0,0.0,0.0,0.0,0.0,0.0,0.0,0.0,0.0,0.0,0.0,0.0,0.0,0.0,0.0,0.0,0.0,0.0,0.0,0.0,0.0,0.0,0.0,0.0,0.0,0.0,0.0,0.0,0.0,0.0,0.0,0.0,0.0,0.0,0.0,0.0,0.0,0.0,0.0,0.0,0.0,0.0,0.0,0.0,0.0,0.0,0.0,0.0,0.0,0.0,0.0,0.0,0.0,0.0,0.0,0.0,0.0,0.0,0.0,0.0,0.0,0.0,0.0,0.0,0.0,0.0,0.0,0.0,0.0,0.0,0.0,0.0,0.0,0.0,0.0,0.0,0.0,0.0,0.0,0.0,0.0,0.0,0.0,0.0,0.0,0.0,0.0,0.0,0.0,0.0,0.0,0.0,0.0,0.0,0.0,0.0,0.0,0.0,0.0,0.0,0.0,0.0,0.0,0.0,0.0,0.0,0.0,0.0,0.0,0.0,0.0,0.0,0.0,0.0,0.0,0.0,0.0,0.0,0.0,0.0,0.0,0.0,0.0,0.0,0.0,0.0,0.0,0.0,0.0,0.0,0.0,0.0,0.0,0.0,0.0,0.0,0.0,0.0,0.0,0.0,0.0,0.0,0.0,0.0,0.0,0.0,0.0,0.0,0.0,0.0,0.0,0.0,0.0,0.0,0.0,0.0,0.0,0.0,0.0,0.0,0.0,0.0,0.0,0.0,0.0,0.0,0.0,0.0,0.0,0.0,0.0,0.0,0.0,0.0,0.0,0.0,0.0,0.0,0.0,0.0,0.0,0.0,0.0,0.0,0.0,0.0,0.0,0.0,0.0,0.0,0.0,0.0,0.0,0.0,0.0,0.0,0.0,0.0,0.0,0.0,0.0,0.0,0.0,0.0,0.0,0.0,0.0,0.0,0.0,0.0,0.0,0.0,0.0,0.0,0.0,0.0,0.0,0.0,0.0,0.0,0.0,0.0,0.0,0.0,0.0,0.0,0.0,0.0,0.0,0.0,0.0,0.0,0.0,0.0,0.0,0.0,0.0,0.0,0.0,0.0,0.0,0.0,0.0,0.0,0.0,0.0,0.0,0.0,0.0,0.0,0.0,0.0,0.0,0.0,0.0,0.0,0.0,0.0,0.0,0.0,0.0,0.0,0.0,0.0,0.0,0.0,0.0,0.0,0.0,0.0,0.0,0.0,0.0,0.0,0.0,0.0,0.0,0.0,0.0,0.0,0.0,0.0,0.0,0.0,0.0,0.0,0.0,0.0,0.0,0.0,0.0,0.0,0.0,0.0,0.0,0.0,0.0,0.0,0.0,0.0,0.0,0.0,0.0,0.0,0.0,0.0,0.0,0.0,0.0,0.0,0.0,0.0,0.0,0.0,0.0,0.0,0.0,0.0,0.0,0.0,0.0,0.0,0.0,0.0,0.0,0.0,0.0,0.0,0.0,0.0,0.0,0.0,0.0,0.0,0.0,0.0,0.0,0.0,0.0,0.0,0.0,0.0,0.0,0.0,0.0,0.0,0.0,0.0,0.0,0.0,0.0,0.0,0.0,0.0,0.0,0.0,0.0,0.0,0.0,0.0,0.0,0.0,0.0,0.0,0.0,0.0,0.0,0.0,0.0,0.0,0.0,0.0,0.0,0.0,0.0,0.0,0.0,0.0,0.0,0.0,0.0,0.0,0.0,0.0,0.0,0.0,0.0,0.0,0.0,0.0,0.0,0.0,0.0,0.0,0.0,0.0,0.0,0.0,0.0,0.0,0.0,0.0,0.0,0.0,0.0,0.0,0.0,0.0,0.0,0.0,0.0,0.0,0.0,0.0,0.0,0.0,0.0,0.0,0.0,0.0,0.0,0.0,0.0,0.0,0.0,0.0,0.0,0.0,0.0,0.0,0.0,0.0,0.0,0.0,0.0,0.0,0.0,0.0,0.0,0.0,0.0,0.0,0.0,0.0,0.0,0.0,0.0,0.0,0.0,0.0,0.0,0.0,0.0,0.0,0.0,0.0,0.0,0.0,0.0,0.0,0.0,0.0,0.0,0.0,0.0,0.0,0.0,0.0,0.0,0.0,0.0,0.0,0.0,0.0,0.0,0.0,0.0,0.0,0.0,0.0,0.0,0.0,0.0,0.0,0.0,0.0,0.0,0.0,0.0,0.0,0.0,0.0,0.0,0.0,0.0,0.0,0.0,0.0,0.0,0.0,0.0,0.0,0.0,0.0,0.0,0.0,0.0,0.0,0.0,0.0,0.0,0.0,0.0,0.0,0.0,0.0,0.0,0.0,0.0,0.0,0.0,0.0,0.0,0.0,0.0,0.0,0.0,0.0,0.0,0.0,0.0,0.0,0.0,0.0,0.0,0.0,0.0,0.0,0.0,0.0,0.0,0.0,0.0,0.0,0.0,0.0,0.0,0.0,0.0,0.0,0.0,0.0,0.0,0.0,0.0,0.0,0.0,0.0,0.0,0.0,0.0,0.0,0.0,0.0,0.0,0.0,0.0,0.0,0.0,0.0,0.0,0.0,0.0,0.0,0.0,0.0,0.0,0.0,0.0,0.0,0.0,0.0,0.0,0.0,0.0,0.0,0.0,0.0,0.0,0.0,0.0,0.0,0.0,0.0,0.0,0.0,0.0,0.0,0.0,0.0,0.0,0.0,0.0,0.0,0.0,0.0,0.0,0.0,0.0,0.0,0.0,0.0,0.0,0.0,0.0,0.0,0.0,0.0,0.0,0.0,0.0,0.0,0.0,0.0,0.0,0.0,0.0,0.0,0.0,0.0,0.0,0.0,0.0,0.0,0.0,0.0,0.0,0.0,0.0,-2.0447,0.0,0.0,0.0,-1.8262,0.0,0.0,0.0,0.0,0.0,0.0,0.0,0.0,0.0,0.0,0.0,0.0,0.0,0.0,0.0,0.0,0.0,0.0,0.0,0.0,0.0,0.0,0.0,0.0,0.0,0.0,0.0,0.0,0.0,0.0,0.0,0.0,0.0,0.0,0.0,0.0,0.0,0.0,0.0,0.0,0.0,0.0,0.0,0.0,0.0,0.0,0.0,0.0,0.0,0.0,0.0,0.0,0.0,0.0,0.0,0.0,0.0,0.0,0.0,0.0,0.0,0.0,0.0,0.0,0.0,0.0,0.0,0.0,0.0,0.0,0.0,0.0,0.0,0.0,0.0,0.0,0.0,0.0,0.0,0.0,0.0,0.0,0.0,0.0,0.0,0.0,0.0,0.0,0.0,0.0,0.0,0.0,0.0,0.0,0.0,0.0,0.0,0.0,0.0,0.0,0.0,0.0,0.0,0.0,0.0,0.0,0.0,0.0,0.0,0.0,-2.0432,-2.0515,-2.0566,-1.9998,-1.8768,0.0,0.0,0.0,0.0,0.0,0.0,0.0,0.0,0.0,0.0,0.0,0.0,0.0,0.0,0.0,0.0,0.0,0.0,0.0,0.0,0.0,0.0,0.0,0.0,0.0,0.0,0.0,0.0,0.0,0.0,0.0,0.0,0.0,0.0,0.0,0.0,0.0,0.0,0.0,0.0,0.0,0.0,0.0,0.0,0.0,0.0,0.0,0.0,0.0,0.0,0.0,0.0,0.0,0.0,0.0,0.0,0.0,0.0,0.0,0.0,0.0,0.0,0.0,0.0,0.0,0.0,0.0,0.0,0.0,0.0,0.0,0.0,0.0,0.0,0.0,0.0,0.0,0.0,0.0,0.0,0.0,0.0,0.0,0.0,0.0,0.0,0.0,0.0,0.0,0.0,0.0,0.0,0.0,0.0,0.0,0.0,0.0,0.0,0.0,0.0,0.0,0.0,0.0,0.0,0.0,0.0,0.0,0.0,0.0,0.0,0.0,0.0,-2.0761,-2.0389,-1.9315,0.0,0.0,0.0,0.0,0.0,0.0,0.0,0.0,0.0,0.0,0.0,0.0,0.0,0.0,0.0,0.0,0.0,0.0,0.0,0.0,0.0,0.0,0.0,0.0,0.0,0.0,0.0,0.0,0.0,0.0,0.0,0.0,0.0,0.0,0.0,0.0,0.0,0.0,0.0,0.0,0.0,0.0,0.0,0.0,0.0,0.0,0.0,0.0,0.0,0.0,0.0,0.0,0.0,0.0,0.0,0.0,0.0,0.0,0.0,0.0,0.0,0.0,0.0,0.0,0.0,0.0,0.0,0.0,0.0,0.0,0.0,0.0,0.0,0.0,0.0,0.0,0.0,0.0,0.0,0.0,0.0,0.0,0.0,0.0,0.0,0.0,0.0,0.0,0.0,0.0,0.0,0.0,0.0,0.0,0.0,0.0,0.0,0.0,0.0,0.0,0.0,0.0,0.0,0.0,0.0,0.0,0.0,0.0,0.0,0.0,-2.0374,-2.0517,-2.1301,0.0,-1.9353,0.0,0.0,0.0,0.0,0.0,0.0,0.0,0.0,0.0,0.0,0.0,0.0,0.0,0.0,0.0,0.0,0.0,0.0,0.0,0.0,0.0,0.0,0.0,0.0,0.0,0.0,0.0,0.0,0.0,0.0,0.0,0.0,0.0,0.0,0.0,0.0,0.0,0.0,0.0,0.0,0.0,0.0,0.0,0.0,0.0,0.0,0.0,0.0,0.0,0.0,0.0,0.0,0.0,0.0,0.0,0.0,0.0,0.0,0.0,0.0,0.0,0.0,0.0,0.0,0.0,0.0,0.0,0.0,0.0,0.0,0.0,0.0,0.0,0.0,0.0,0.0,0.0,0.0,0.0,0.0,0.0,0.0,0.0,0.0,0.0,0.0,0.0,0.0,0.0,0.0,0.0,0.0,0.0,0.0,0.0,0.0,0.0,0.0,0.0,0.0,0.0,0.0,0.0,0.0,0.0,0.0,0.0,0.0,0.0,0.0,-2.0362,-2.0506,-2.0403,-1.9784,0.0,0.0,0.0,0.0,0.0,0.0,0.0,0.0,0.0,0.0,0.0,0.0,0.0,0.0,0.0,0.0,0.0,0.0,0.0,0.0,0.0,0.0,0.0,0.0,0.0,0.0,0.0,0.0,0.0,0.0,0.0,0.0,0.0,0.0,0.0,0.0,0.0,0.0,0.0,0.0,0.0,0.0,0.0,0.0,0.0,0.0,0.0,0.0,0.0,0.0,0.0,0.0,0.0,0.0,0.0,0.0,0.0,0.0,0.0,0.0,0.0,0.0,0.0,0.0,0.0,0.0,0.0,0.0,0.0,0.0,0.0,0.0,0.0,0.0,0.0,0.0,0.0,0.0,0.0,0.0,0.0,0.0,0.0,0.0,0.0,0.0,0.0,0.0,0.0,0.0,0.0,0.0,0.0,0.0,0.0,0.0,0.0,0.0,0.0,0.0,0.0,0.0,0.0,0.0,0.0,0.0,0.0,0.0,0.0,0.0,-2.0257,-2.0452,-2.0776,-1.9856,-1.9003,-1.8359,0.0,0.0,0.0,0.0,0.0,0.0,0.0,0.0,0.0,0.0,0.0,0.0,0.0,0.0,0.0,0.0,0.0,0.0,0.0,0.0,0.0,0.0,0.0,0.0,0.0,0.0,0.0,0.0,0.0,0.0,0.0,0.0,0.0,0.0,0.0,0.0,0.0,0.0,0.0,0.0,0.0,0.0,0.0,0.0,0.0,0.0,0.0,0.0,0.0,0.0,0.0,0.0,0.0,0.0,0.0,0.0,0.0,0.0,0.0,0.0,0.0,0.0,0.0,0.0,0.0,0.0,0.0,0.0,0.0,0.0,0.0,0.0,0.0,0.0,0.0,0.0,0.0,0.0,0.0,0.0,0.0,0.0,0.0,0.0,0.0,0.0,0.0,0.0,0.0,0.0,0.0,0.0,0.0,0.0,0.0,0.0,0.0,0.0,0.0,0.0,0.0,0.0,0.0,0.0,0.0,0.0,0.0,0.0,-2.0122,-2.0171,-2.0691,-2.1647,-2.0163,-1.9273,0.0,0.0,0.0,0.0,0.0,0.0,0.0,0.0,0.0,0.0,0.0,0.0,0.0,0.0,0.0,0.0,0.0,0.0,0.0,0.0,0.0,0.0,0.0,0.0,0.0,0.0,0.0,0.0,0.0,0.0,0.0,0.0,0.0,0.0,0.0,0.0,0.0,0.0,0.0,0.0,0.0,0.0,0.0,0.0,0.0,0.0,0.0,0.0,0.0,0.0,0.0,0.0,0.0,0.0,0.0,0.0,0.0,0.0,0.0,0.0,0.0,0.0,0.0,0.0,0.0,0.0,0.0,0.0,0.0,0.0,0.0,0.0,0.0,0.0,0.0,0.0,0.0,0.0,0.0,0.0,0.0,0.0,0.0,0.0,0.0,0.0,0.0,0.0,0.0,0.0,0.0,0.0,0.0,0.0,0.0,0.0,0.0,0.0,0.0,0.0,0.0,0.0,0.0,0.0,0.0,0.0,0.0,0.0,0.0,-2.0098,-2.0246,-2.0795,-2.1685,-1.9642,-1.8739,0.0,0.0,0.0,0.0,0.0,0.0,0.0,0.0,0.0,0.0,0.0,0.0,0.0,0.0,0.0,0.0,0.0,0.0,0.0,0.0,0.0,0.0,0.0,0.0,0.0,0.0,0.0,0.0,0.0,0.0,0.0,0.0,0.0,0.0,0.0,0.0,0.0,0.0,0.0,0.0,0.0,0.0,0.0,0.0,0.0,0.0,0.0,0.0,0.0,0.0,0.0,0.0,0.0,0.0,0.0,0.0,0.0,0.0,0.0,0.0,0.0,0.0,0.0,0.0,0.0,0.0,0.0,0.0,0.0,0.0,0.0,0.0,0.0,0.0,0.0,0.0,0.0,0.0,0.0,0.0,0.0,0.0,0.0,0.0,0.0,0.0,0.0,0.0,0.0,0.0,0.0,0.0,0.0,0.0,0.0,0.0,0.0,0.0,0.0,0.0,0.0,0.0,0.0,0.0,0.0,0.0,0.0,0.0,0.0,-2.0112,-2.0781,-2.1222,-2.1299,-1.9434,-1.8536,0.0,0.0,0.0,0.0,0.0,0.0,0.0,0.0,0.0,0.0,0.0,0.0,0.0,0.0,0.0,0.0,0.0,0.0,0.0,0.0,0.0,0.0,0.0,0.0,0.0,0.0,0.0,0.0,0.0,0.0,0.0,0.0,0.0,0.0,0.0,0.0,0.0,0.0,0.0,0.0,0.0,0.0,0.0,0.0,0.0,0.0,0.0,0.0,0.0,0.0,0.0,0.0,0.0,0.0,0.0,0.0,0.0,0.0,0.0,0.0,0.0,0.0,0.0,0.0,0.0,0.0,0.0,0.0,0.0,0.0,0.0,0.0,0.0,0.0,0.0,0.0,0.0,0.0,0.0,0.0,0.0,0.0,0.0,0.0,0.0,0.0,0.0,0.0,0.0,0.0,0.0,0.0,0.0,0.0,0.0,0.0,0.0,0.0,0.0,0.0,0.0,0.0,0.0,0.0,0.0,0.0,0.0,0.0,-1.9951,-2.016,-2.1718,-2.1914,-2.0577,-1.9681,-1.8843,0.0,0.0,0.0,0.0,0.0,0.0,0.0,0.0,0.0,0.0,0.0,0.0,0.0,0.0,0.0,0.0,0.0,0.0,0.0,0.0,0.0,0.0,0.0,0.0,0.0,0.0,0.0,0.0,0.0,0.0,0.0,0.0,0.0,0.0,0.0,0.0,0.0,0.0,0.0,0.0,0.0,0.0,0.0,0.0,0.0,0.0,0.0,0.0,0.0,0.0,0.0,0.0,0.0,0.0,0.0,0.0,0.0,0.0,0.0,0.0,0.0,0.0,0.0,0.0,0.0,0.0,0.0,0.0,0.0,0.0,0.0,0.0,0.0,0.0,0.0,0.0,0.0,0.0,0.0,0.0,0.0,0.0,0.0,0.0,0.0,0.0,0.0,0.0,0.0,0.0,0.0,0.0,0.0,0.0,0.0,0.0,0.0,0.0,0.0,0.0,0.0,0.0,0.0,0.0,0.0,0.0,0.0,0.0,0.0,-2.0146,-2.0735,-2.1414,-2.2111,-2.0291,-1.9432,0.0,0.0,0.0,0.0,0.0,0.0,0.0,0.0,0.0,0.0,0.0,0.0,0.0,0.0,0.0,0.0,0.0,0.0,0.0,0.0,0.0,0.0,0.0,0.0,0.0,0.0,0.0,0.0,0.0,0.0,0.0,0.0,0.0,0.0,0.0,0.0,0.0,0.0,0.0,0.0,0.0,0.0,0.0,0.0,0.0,0.0,0.0,0.0,0.0,0.0,0.0,0.0,0.0,0.0,0.0,0.0,0.0,0.0,0.0,0.0,0.0,0.0,0.0,0.0,0.0,0.0,0.0,0.0,0.0,0.0,0.0,0.0,0.0,0.0,0.0,0.0,0.0,0.0,0.0,0.0,0.0,0.0,0.0,0.0,0.0,0.0,0.0,0.0,0.0,0.0,0.0,0.0,0.0,0.0,0.0,0.0,0.0,0.0,0.0,0.0,0.0,0.0,0.0,0.0,0.0,0.0,0.0,0.0,0.0,-2.0603,-2.1589,-2.2272,-2.2518,-2.1026,-2.0034,-1.9591,0.0,0.0,0.0,0.0,0.0,0.0,0.0,0.0,0.0,0.0,0.0,0.0,0.0,0.0,0.0,0.0,0.0,0.0,0.0,0.0,0.0,0.0,0.0,0.0,0.0,0.0,0.0,0.0,0.0,0.0,0.0,0.0,0.0,0.0,0.0,0.0,0.0,0.0,0.0,0.0,0.0,0.0,0.0,0.0,0.0,0.0,0.0,0.0,0.0,0.0,0.0,0.0,0.0,0.0,0.0,0.0,0.0,0.0,0.0,0.0,0.0,0.0,0.0,0.0,0.0,0.0,0.0,0.0,0.0,0.0,0.0,0.0,0.0,0.0,0.0,0.0,0.0,0.0,0.0,0.0,0.0,0.0,0.0,0.0,0.0,0.0,0.0,0.0,0.0,0.0,0.0,0.0,0.0,0.0,0.0,0.0,0.0,0.0,0.0,0.0,0.0,0.0,0.0,0.0,0.0,0.0,0.0,0.0,-2.1335,-2.3972,-2.4223,-2.1975,-2.1788,-2.067,0.0,0.0,0.0,0.0,0.0,0.0,0.0,0.0,0.0,0.0,0.0,0.0,0.0,0.0,0.0,0.0,0.0,0.0,0.0,0.0,0.0,0.0,0.0,0.0,0.0,0.0,0.0,0.0,0.0,0.0,0.0,0.0,0.0,0.0,0.0,0.0,0.0,0.0,0.0,0.0,0.0,0.0,0.0,0.0,0.0,0.0,0.0,0.0,0.0,0.0,0.0,0.0,0.0,0.0,0.0,0.0,0.0,0.0,0.0,0.0,0.0,0.0,0.0,0.0,0.0,0.0,0.0,0.0,0.0,0.0,0.0,0.0,0.0,0.0,0.0,0.0,0.0,0.0,0.0,0.0,0.0,0.0,0.0,0.0,0.0,0.0,0.0,0.0,0.0,0.0,0.0,0.0,0.0,0.0,0.0,0.0,0.0,0.0,0.0,0.0,0.0,0.0,0.0,0.0,0.0,0.0,0.0,0.0,0.0,-2.3051,-2.5137,-2.5394,-2.36,-2.2367,-2.1448,0.0,0.0,0.0,0.0,0.0,0.0,0.0,0.0,0.0,0.0,0.0,0.0,0.0,0.0,0.0,0.0,0.0,0.0,0.0,0.0,0.0,0.0,0.0,0.0,0.0,0.0,0.0,0.0,0.0,0.0,0.0,0.0,0.0,0.0,0.0,0.0,0.0,0.0,0.0,0.0,0.0,0.0,0.0,0.0,0.0,0.0,0.0,0.0,0.0,0.0,0.0,0.0,0.0,0.0,0.0,0.0,0.0,0.0,0.0,0.0,0.0,0.0,0.0,0.0,0.0,0.0,0.0,0.0,0.0,0.0,0.0,0.0,0.0,0.0,0.0,0.0,0.0,0.0,0.0,0.0,0.0,0.0,0.0,0.0,0.0,0.0,0.0,0.0,0.0,0.0,0.0,0.0,0.0,0.0,0.0,0.0,0.0,0.0,0.0,0.0,0.0,0.0,0.0,0.0,0.0,0.0,0.0,0.0,-2.3284,-2.3623,-2.5164,-2.5754,-2.5253,-2.3661,-2.2286,0.0,0.0,0.0,0.0,0.0,0.0,0.0,0.0,0.0,0.0,0.0,0.0,0.0,0.0,0.0,0.0,0.0,0.0,0.0,0.0,0.0,0.0,0.0,0.0,0.0,0.0,0.0,0.0,0.0,0.0,0.0,0.0,0.0,0.0,0.0,0.0,0.0,0.0,0.0,0.0,0.0,0.0,0.0,0.0,0.0,0.0,0.0,0.0,0.0,0.0,0.0,0.0,0.0,0.0,0.0,0.0,0.0,0.0,0.0,0.0,0.0,0.0,0.0,0.0,0.0,0.0,0.0,0.0,0.0,0.0,0.0,0.0,0.0,0.0,0.0,0.0,0.0,0.0,0.0,0.0,0.0,0.0,0.0,0.0,0.0,0.0,0.0,0.0,0.0,0.0,0.0,0.0,0.0,0.0,0.0,0.0,0.0,0.0,0.0,0.0,0.0,0.0,0.0,0.0,0.0,0.0,0.0,0.0,-2.2978,-2.3707,-2.4772,-2.5688,-2.6462,-2.5079,-2.3237,0.0,0.0,0.0,0.0,0.0,0.0,0.0,0.0,0.0,0.0,0.0,0.0,0.0,0.0,0.0,0.0,0.0,0.0,0.0,0.0,0.0,0.0,0.0,0.0,0.0,0.0,0.0,0.0,0.0,0.0,0.0,0.0,0.0,0.0,0.0,0.0,0.0,0.0,0.0,0.0,0.0,0.0,0.0,0.0,0.0,0.0,0.0,0.0,0.0,0.0,0.0,0.0,0.0,0.0,0.0,0.0,0.0,0.0,0.0,0.0,0.0,0.0,0.0,0.0,0.0,0.0,0.0,0.0,0.0,0.0,0.0,0.0,0.0,0.0,0.0,0.0,0.0,0.0,0.0,0.0,0.0,0.0,0.0,0.0,0.0,0.0,0.0,0.0,0.0,0.0,0.0,0.0,0.0,0.0,0.0,0.0,0.0,0.0,0.0,0.0,0.0,0.0,0.0,0.0,0.0,0.0,0.0,0.0,-2.4184,-2.4467,-2.5454,-2.5825,-2.5519,-2.4632,-2.3951,0.0,0.0,0.0,0.0,0.0,0.0,0.0,0.0,0.0,0.0,0.0,0.0,0.0,0.0,0.0,0.0,0.0,0.0,0.0,0.0,0.0,0.0,0.0,0.0,0.0,0.0,0.0,0.0,0.0,0.0,0.0,0.0,0.0,0.0,0.0,0.0,0.0,0.0,0.0,0.0,0.0,0.0,0.0,0.0,0.0,0.0,0.0,0.0,-1.9387,0.0,0.0,0.0,0.0,0.0,0.0,0.0,0.0,0.0,0.0,0.0,0.0,0.0,0.0,0.0,0.0,0.0,0.0,0.0,0.0,0.0,0.0,0.0,0.0,0.0,0.0,0.0,0.0,0.0,0.0,0.0,0.0,0.0,0.0,0.0,0.0,0.0,0.0,0.0,0.0,0.0,0.0,0.0,0.0,0.0,0.0,0.0,0.0,0.0,0.0,0.0,0.0,0.0,0.0,0.0,0.0,0.0,0.0,0.0,-2.4269,-2.5185,-2.5442,-2.5805,-2.6307,-2.5669,-2.4776,0.0,0.0,0.0,0.0,0.0,0.0,0.0,0.0,0.0,0.0,0.0,0.0,0.0,0.0,0.0,0.0,0.0,0.0,0.0,0.0,0.0,0.0,0.0,0.0,0.0,0.0,0.0,0.0,0.0,0.0,0.0,0.0,0.0,0.0,0.0,0.0,0.0,0.0,0.0,0.0,0.0,0.0,0.0,0.0,0.0,0.0,0.0,0.0,0.0,0.0,0.0,0.0,0.0,0.0,0.0,0.0,0.0,0.0,0.0,0.0,0.0,0.0,0.0,0.0,0.0,0.0,0.0,0.0,0.0,0.0,0.0,0.0,0.0,0.0,0.0,0.0,0.0,0.0,0.0,0.0,0.0,0.0,0.0,0.0,0.0,0.0,0.0,0.0,0.0,0.0,0.0,0.0,0.0,0.0,0.0,0.0,0.0,0.0,0.0,0.0,0.0,0.0,0.0,0.0,0.0,0.0,0.0,-2.2978,-2.3984,-2.5504,-2.5181,-2.5768,-2.7425,-2.7038,-2.5609,-2.3176,0.0,0.0,0.0,0.0,0.0,0.0,0.0,0.0,0.0,0.0,0.0,0.0,0.0,0.0,0.0,0.0,0.0,0.0,0.0,0.0,0.0,0.0,0.0,0.0,0.0,0.0,0.0,0.0,0.0,0.0,0.0,0.0,0.0,0.0,0.0,0.0,0.0,0.0,-1.8103,-2.0444,0.0,0.0,0.0,0.0,0.0,0.0,0.0,0.0,-2.2369,0.0,0.0,0.0,0.0,0.0,0.0,0.0,0.0,0.0,0.0,0.0,0.0,0.0,0.0,0.0,0.0,0.0,0.0,0.0,0.0,0.0,0.0,0.0,0.0,0.0,0.0,0.0,0.0,0.0,0.0,0.0,0.0,0.0,0.0,0.0,0.0,0.0,0.0,0.0,0.0,0.0,0.0,0.0,0.0,0.0,0.0,0.0,0.0,0.0,0.0,0.0,0.0,0.0,0.0,0.0,0.0,-2.2332,-2.3272,-2.4099,-2.4708,-2.5315,-2.5932,-2.6503,-2.7228,-2.64,-2.3861,0.0,0.0,0.0,0.0,0.0,0.0,0.0,0.0,0.0,0.0,0.0,0.0,0.0,0.0,0.0,0.0,0.0,0.0,0.0,0.0,0.0,0.0,0.0,0.0,0.0,0.0,0.0,0.0,0.0,0.0,0.0,0.0,0.0,0.0,0.0,0.0,0.0,0.0,0.0,-2.1393,-2.2174,0.0,0.0,0.0,0.0,0.0,0.0,0.0,0.0,-2.3615,0.0,0.0,0.0,0.0,0.0,0.0,0.0,0.0,0.0,0.0,0.0,0.0,0.0,0.0,0.0,0.0,0.0,0.0,0.0,0.0,0.0,0.0,0.0,0.0,0.0,0.0,0.0,0.0,0.0,0.0,0.0,0.0,0.0,0.0,0.0,0.0,0.0,0.0,0.0,0.0,0.0,0.0,0.0,0.0,0.0,0.0,0.0,0.0,0.0,0.0,0.0,0.0,0.0,0.0,0.0,-2.281,-2.382,-2.4693,-2.5513,-2.568,-2.6076,-2.6745,-2.7396,-2.6724,0.0,0.0,0.0,0.0,0.0,0.0,0.0,0.0,0.0,0.0,0.0,0.0,0.0,0.0,0.0,0.0,0.0,0.0,0.0,0.0,0.0,0.0,0.0,0.0,0.0,0.0,0.0,0.0,0.0,0.0,0.0,0.0,0.0,0.0,0.0,0.0,0.0,0.0,0.0,0.0,-2.2327,-2.3124,-2.4053,0.0,0.0,0.0,0.0,0.0,0.0,-2.4771,-2.4327,0.0,0.0,0.0,0.0,0.0,0.0,0.0,0.0,0.0,0.0,0.0,0.0,0.0,0.0,0.0,0.0,0.0,0.0,0.0,0.0,0.0,0.0,0.0,0.0,0.0,0.0,0.0,0.0,0.0,0.0,0.0,0.0,0.0,0.0,0.0,0.0,0.0,0.0,0.0,0.0,0.0,0.0,0.0,0.0,0.0,0.0,0.0,0.0,0.0,0.0,0.0,0.0,0.0,0.0,0.0,-2.3277,-2.4247,-2.5279,-2.6322,-2.6177,-2.6516,-2.7409,-2.758,-2.6866,0.0,0.0,0.0,0.0,0.0,0.0,0.0,0.0,0.0,0.0,0.0,0.0,0.0,0.0,0.0,0.0,0.0,0.0,0.0,0.0,0.0,0.0,0.0,0.0,0.0,0.0,0.0,0.0,0.0,0.0,0.0,0.0,0.0,0.0,0.0,0.0,0.0,0.0,0.0,0.0,0.0,-2.3934,-2.5037,-2.4799,0.0,0.0,0.0,0.0,-2.5636,-2.578,0.0,0.0,0.0,0.0,0.0,0.0,0.0,0.0,0.0,0.0,0.0,0.0,0.0,0.0,0.0,0.0,0.0,0.0,0.0,0.0,0.0,0.0,0.0,0.0,0.0,0.0,0.0,0.0,0.0,0.0,0.0,0.0,0.0,0.0,0.0,0.0,0.0,0.0,0.0,0.0,0.0,0.0,0.0,0.0,0.0,0.0,0.0,0.0,0.0,0.0,0.0,0.0,0.0,0.0,0.0,0.0,-2.284,-2.437,-2.5441,-2.606,-2.6911,-2.7672,-2.8238,-2.7853,-2.6804,0.0,0.0,0.0,0.0,0.0,0.0,0.0,0.0,0.0,0.0,0.0,0.0,0.0,0.0,0.0,0.0,0.0,0.0,0.0,0.0,0.0,0.0,0.0,0.0,0.0,0.0,0.0,0.0,0.0,0.0,0.0,0.0,0.0,0.0,0.0,0.0,0.0,0.0,0.0,0.0,0.0,-2.3821,-2.5851,-2.5408,-2.5233,0.0,0.0,-2.7078,-2.781,-2.8085,0.0,0.0,0.0,0.0,0.0,0.0,0.0,0.0,0.0,0.0,0.0,0.0,0.0,0.0,0.0,0.0,0.0,0.0,0.0,0.0,0.0,0.0,0.0,0.0,0.0,0.0,0.0,0.0,0.0,0.0,0.0,0.0,0.0,0.0,0.0,0.0,0.0,0.0,0.0,0.0,0.0,0.0,0.0,0.0,0.0,0.0,0.0,0.0,0.0,0.0,0.0,0.0,0.0,0.0,0.0,-2.1827,-2.3419,-2.5256,-2.6341,-2.6575,-2.7097,-2.7636,-2.8155,-2.7541,-2.6503,0.0,0.0,0.0,0.0,0.0,0.0,0.0,0.0,0.0,0.0,0.0,0.0,0.0,0.0,0.0,0.0,0.0,0.0,0.0,0.0,0.0,0.0,0.0,0.0,0.0,0.0,0.0,0.0,0.0,0.0,0.0,0.0,0.0,0.0,0.0,0.0,0.0,0.0,0.0,0.0,0.0,0.0,-2.5673,-2.6027,0.0,0.0,0.0,-2.7596,-2.755,0.0,0.0,0.0,0.0,0.0,0.0,0.0,0.0,0.0,0.0,0.0,0.0,0.0,0.0,0.0,0.0,0.0,0.0,0.0,0.0,0.0,0.0,0.0,0.0,0.0,0.0,0.0,0.0,0.0,0.0,0.0,0.0,0.0,0.0,0.0,0.0,0.0,0.0,0.0,0.0,0.0,0.0,0.0,0.0,0.0,0.0,0.0,0.0,0.0,0.0,0.0,0.0,0.0,0.0,0.0,0.0,0.0,-2.3922,-2.5909,-2.6949,-2.6982,-2.7236,-2.7568,-2.8018,-2.7451,0.0,0.0,0.0,0.0,0.0,0.0,0.0,0.0,0.0,0.0,0.0,0.0,0.0,0.0,0.0,0.0,0.0,0.0,0.0,0.0,0.0,0.0,0.0,0.0,0.0,0.0,0.0,-1.3991,0.0,0.0,0.0,0.0,0.0,0.0,0.0,0.0,0.0,0.0,0.0,0.0,0.0,0.0,-2.3578,-2.542,-2.6326,-2.7038,0.0,0.0,-2.7803,-2.7528,-2.7985,-2.7662,0.0,0.0,0.0,0.0,0.0,0.0,0.0,0.0,0.0,0.0,0.0,0.0,0.0,0.0,0.0,0.0,0.0,0.0,0.0,0.0,0.0,0.0,0.0,0.0,0.0,0.0,0.0,0.0,0.0,0.0,0.0,0.0,0.0,0.0,0.0,0.0,0.0,0.0,0.0,0.0,0.0,0.0,0.0,0.0,0.0,0.0,0.0,0.0,0.0,0.0,0.0,0.0,0.0,0.0,-2.2537,-2.3918,-2.5824,-2.6842,-2.6934,-2.7481,-2.7887,-2.817,-2.7892,-2.6668,0.0,0.0,0.0,0.0,0.0,0.0,0.0,0.0,0.0,0.0,0.0,0.0,0.0,0.0,0.0,0.0,0.0,0.0,0.0,0.0,0.0,0.0,0.0,0.0,0.0,0.0,0.0,0.0,0.0,0.0,0.0,0.0,0.0,0.0,0.0,0.0,0.0,0.0,0.0,0.0,0.0,-2.3755,-2.5385,-2.5978,-2.6753,0.0,-2.7937,-2.7924,-2.8727,-2.8851,-2.8183,-2.616,0.0,0.0,0.0,0.0,0.0,0.0,0.0,0.0,0.0,0.0,0.0,0.0,0.0,0.0,0.0,0.0,0.0,0.0,0.0,0.0,0.0,0.0,0.0,0.0,0.0,0.0,0.0,0.0,0.0,0.0,0.0,0.0,0.0,0.0,0.0,0.0,0.0,0.0,0.0,0.0,0.0,0.0,0.0,0.0,0.0,0.0,0.0,0.0,0.0,0.0,0.0,0.0,0.0,-2.295,-2.4081,-2.6281,-2.7325,-2.7161,-2.7175,-2.7402,-2.7875,-2.7443,-2.6398,0.0,0.0,0.0,0.0,0.0,0.0,0.0,0.0,0.0,0.0,0.0,0.0,0.0,0.0,0.0,0.0,0.0,0.0,0.0,0.0,0.0,0.0,0.0,0.0,0.0,0.0,0.0,0.0,-1.8814,-1.911,-1.9227,0.0,0.0,0.0,0.0,0.0,0.0,0.0,0.0,0.0,0.0,-2.3903,-2.56,-2.6457,0.0,0.0,-2.8092,-2.8305,-2.8862,-2.8402,-2.7643,-2.6665,-2.5753,0.0,0.0,0.0,0.0,0.0,0.0,0.0,0.0,0.0,0.0,0.0,0.0,0.0,0.0,0.0,0.0,0.0,0.0,0.0,0.0,0.0,0.0,0.0,0.0,0.0,0.0,0.0,0.0,0.0,0.0,0.0,0.0,0.0,0.0,0.0,0.0,0.0,0.0,0.0,0.0,0.0,0.0,0.0,0.0,0.0,0.0,0.0,0.0,0.0,0.0,0.0,0.0,-2.2908,-2.3957,-2.6386,-2.7437,-2.7073,-2.6936,-2.701,-2.7372,-2.7046,-2.6241,0.0,0.0,0.0,0.0,0.0,0.0,0.0,0.0,0.0,0.0,0.0,0.0,0.0,0.0,0.0,0.0,0.0,0.0,0.0,0.0,0.0,0.0,0.0,0.0,0.0,0.0,0.0,0.0,-1.9391,-1.9243,-1.8348,0.0,0.0,0.0,0.0,0.0,0.0,0.0,0.0,0.0,0.0,-2.4392,-2.5813,-2.6772,-2.7457,-2.7811,-2.8156,-2.8425,-2.8469,-2.7876,-2.7268,-2.6853,0.0,0.0,0.0,0.0,0.0,0.0,0.0,0.0,0.0,0.0,0.0,0.0,0.0,0.0,0.0,0.0,0.0,0.0,0.0,0.0,0.0,0.0,0.0,0.0,0.0,0.0,0.0,-1.8018,0.0,0.0,-1.6556,0.0,0.0,0.0,0.0,0.0,0.0,0.0,0.0,0.0,0.0,0.0,0.0,0.0,0.0,0.0,0.0,0.0,0.0,0.0,0.0,0.0,0.0,-2.2293,-2.344,-2.5931,-2.7014,-2.6566,-2.6814,-2.6927,-2.6759,-2.6888,-2.628,-2.4753,0.0,0.0,0.0,0.0,0.0,0.0,0.0,0.0,0.0,0.0,0.0,0.0,0.0,0.0,0.0,0.0,0.0,0.0,0.0,0.0,0.0,0.0,0.0,0.0,0.0,0.0,-1.956,-1.943,-1.8694,0.0,0.0,0.0,0.0,0.0,0.0,0.0,0.0,0.0,-2.1984,-2.3907,-2.5363,-2.5909,-2.6668,-2.7286,-2.7695,-2.8101,-2.8175,-2.7616,-2.7441,-2.718,0.0,0.0,0.0,0.0,0.0,0.0,0.0,0.0,0.0,0.0,0.0,0.0,0.0,0.0,0.0,0.0,0.0,0.0,0.0,0.0,0.0,0.0,0.0,0.0,0.0,0.0,0.0,-1.9723,-1.9858,0.0,0.0,0.0,0.0,0.0,0.0,0.0,0.0,0.0,0.0,0.0,-1.9038,-1.8535,0.0,0.0,0.0,0.0,0.0,0.0,0.0,0.0,0.0,0.0,0.0,0.0,-2.2081,-2.3453,-2.5728,-2.6856,-2.6708,-2.7004,-2.6875,-2.6385,-2.7014,-2.6471,-2.4626,0.0,0.0,0.0,0.0,0.0,0.0,0.0,0.0,0.0,0.0,0.0,0.0,0.0,0.0,0.0,0.0,0.0,0.0,0.0,0.0,0.0,0.0,0.0,0.0,0.0,-1.8133,0.0,0.0,0.0,0.0,0.0,0.0,0.0,0.0,0.0,0.0,-1.9945,-2.1945,-2.2882,-2.3835,-2.4696,-2.5361,-2.5859,-2.6156,0.0,0.0,0.0,0.0,0.0,0.0,0.0,0.0,0.0,0.0,0.0,0.0,0.0,-2.2421,-2.2208,-2.0659,-2.036,-2.0377,-2.0493,0.0,0.0,0.0,0.0,0.0,0.0,0.0,0.0,0.0,0.0,0.0,0.0,0.0,0.0,-2.0182,-2.0526,-1.9677,0.0,0.0,0.0,0.0,0.0,0.0,0.0,0.0,-1.8407,-1.8835,-1.9423,-1.8948,-1.8732,-1.8692,-1.8148,-1.6967,0.0,0.0,0.0,0.0,0.0,0.0,0.0,0.0,-2.2104,-2.3471,-2.5756,-2.6913,-2.681,-2.697,-2.6822,-2.6345,-2.6999,-2.6862,-2.5866,-2.5,-2.3972,0.0,0.0,0.0,0.0,0.0,0.0,0.0,0.0,0.0,0.0,0.0,0.0,0.0,0.0,0.0,0.0,0.0,0.0,0.0,0.0,0.0,0.0,0.0,-1.8575,0.0,0.0,0.0,0.0,0.0,0.0,0.0,0.0,0.0,-1.8666,-2.0927,-2.2712,-2.3214,-2.3797,-2.4331,-2.4697,0.0,0.0,0.0,0.0,0.0,0.0,0.0,-2.5323,-2.6099,-2.5615,-2.5202,-2.5378,-2.4741,-2.4189,-2.4195,0.0,0.0,-2.296,-2.26,-2.2628,-2.2724,-2.1802,-2.0968,-2.0807,-2.136,-2.1781,0.0,0.0,0.0,0.0,-1.8436,0.0,0.0,0.0,-1.9729,-1.9714,0.0,-1.9605,0.0,0.0,0.0,0.0,-1.678,-1.7192,0.0,0.0,-1.9812,-2.0087,-1.9388,-1.9361,-1.9397,-1.9333,-1.809,-1.7519,-1.7584,-1.8297,-1.8431,0.0,0.0,0.0,0.0,0.0,-2.2263,-2.3478,-2.5864,-2.702,-2.6757,-2.6823,-2.6733,-2.6541,-2.6881,-2.7394,-2.8082,-2.6749,-2.6262,-2.6801,-2.2666,0.0,0.0,0.0,0.0,0.0,0.0,0.0,0.0,0.0,0.0,0.0,0.0,0.0,0.0,0.0,0.0,0.0,0.0,0.0,0.0,-1.945,0.0,0.0,0.0,0.0,0.0,0.0,0.0,0.0,0.0,-2.0734,-2.0595,-2.1809,-2.2786,-2.311,0.0,0.0,0.0,0.0,-2.5477,-2.5589,-2.6453,-2.6861,-2.6274,-2.6085,-2.5992,-2.6053,0.0,0.0,-2.616,-2.5823,-2.5503,-2.5535,-2.5978,-2.6058,-2.4954,-2.4736,-2.4754,-2.4706,-2.4516,-2.4337,-2.3824,-2.3956,-2.4308,-1.8093,0.0,0.0,0.0,0.0,-1.7307,-1.8401,-2.033,-2.0144,-2.0138,-2.0207,-1.9641,0.0,0.0,0.0,0.0,0.0,0.0,-1.6647,-1.7289,-1.7505,-1.7575,-1.7495,-1.7495,-1.7522,-1.751,-1.7507,-1.7976,-1.8826,-1.9002,-1.8154,-1.6475,0.0,0.0,0.0,0.0,-2.1683,-2.2902,-2.4947,-2.6008,-2.5942,-2.6823,-2.7219,-2.6995,-2.6646,-2.6554,-2.6794,-2.7395,-2.7081,-2.5719,-2.5339,0.0,0.0,0.0,0.0,0.0,0.0,0.0,0.0,0.0,0.0,0.0,0.0,0.0,0.0,0.0,0.0,0.0,0.0,0.0,-1.6991,-1.9245,-2.0015,0.0,0.0,0.0,0.0,0.0,0.0,0.0,0.0,0.0,-2.2274,-2.3214,-2.3918,0.0,0.0,-2.4273,-2.4368,-2.4426,-2.4414,-2.4362,-2.4511,0.0,-2.439,-2.433,-2.4544,-2.5259,-2.6011,-2.6483,-2.6352,-2.6281,-2.6208,-2.619,-2.6428,-2.6493,-2.6208,-2.5865,-2.5662,-2.5589,-2.5279,-2.4873,-2.457,-2.4777,-2.4944,-1.7999,-1.8212,-1.7116,-1.686,-1.718,-1.736,-1.8466,-2.0169,-2.033,-2.0339,-2.0239,-2.0033,-1.8854,-1.7037,-1.6265,0.0,0.0,0.0,-1.6667,-1.7093,-1.6875,-1.6725,-1.6624,-1.6687,-1.6705,-1.6694,-1.6835,-1.7396,-1.8329,-1.8242,-1.7508,-1.6244,0.0,-1.7988,-1.7969,-1.9658,-2.1099,-2.2266,-2.388,-2.4868,-2.5148,-2.593,-2.6338,-2.64,-2.6258,-2.6288,-2.6473,-2.762,-2.7766,-2.6682,-2.6386,-2.559,0.0,0.0,0.0,0.0,0.0,0.0,0.0,0.0,0.0,0.0,0.0,-1.5067,-1.521,0.0,0.0,0.0,-1.7675,-1.7695,-1.816,-1.973,0.0,0.0,0.0,0.0,0.0,0.0,0.0,-2.0451,-2.1296,-2.201,-2.2728,-2.3478,-2.406,-2.4432,-2.3977,-2.37,-2.3973,0.0,-2.3707,-2.3688,-2.3815,-2.3932,-2.4033,-2.3935,-2.4156,-2.4889,-2.567,-2.6213,-2.6261,-2.6349,-2.6454,-2.6471,-2.6522,-2.6539,-2.6435,-2.6185,-2.6078,-2.6237,-2.6004,-2.5741,-2.5613,-2.5734,-2.5814,-1.8216,-1.8446,-1.6854,-1.6658,-1.7381,-1.774,-1.8639,-1.9837,-2.0207,-2.0306,-2.0178,-2.0428,-1.9754,-1.8323,-1.7364,0.0,-1.7793,-1.7376,-1.7322,-1.7573,-1.7317,-1.6933,-1.643,-1.6428,-1.6452,-1.6368,-1.5974,-1.6022,-1.6513,-1.6467,-1.6537,-1.6709,-1.7924,-1.8395,-1.8213,-1.9368,-2.0527,-2.1592,-2.2715,-2.3628,-2.4385,-2.4469,-2.47,-2.5163,-2.5738,-2.6273,-2.6685,-2.74,-2.8103,-2.8654,-2.6382,-2.5288,-2.5738,0.0,0.0,0.0,0.0,0.0,0.0,0.0,0.0,0.0,0.0,0.0,0.0,0.0,0.0,-1.9815,-2.0896,0.0,-2.1223,-2.0565,0.0,0.0,0.0,-1.8999,-1.9816,-1.9982,-2.0303,-2.1019,0.0,0.0,-2.2501,-2.3014,-2.361,-2.4194,-2.3422,-2.2888,-2.3183,-2.3351,-2.34,-2.3619,-2.3968,-2.4323,-2.4472,-2.4467,-2.4586,-2.5008,-2.5206,-2.5596,-2.598,-2.6222,-2.6373,-2.6385,-2.6374,-2.6318,-2.6063,-2.6057,-2.6157,-2.655,-2.6607,-2.6623,-2.6421,-2.6438,-2.6487,-1.8136,-1.8183,-1.7771,-1.7713,-1.7936,-1.8029,-1.8567,-1.9363,-1.9453,-1.9479,-1.9425,-1.9535,-1.9046,-1.8111,-1.6928,-1.6652,-1.7006,-1.599,-1.5882,-1.6492,-1.5823,-1.5498,-1.5495,-1.4827,-1.4282,-1.3865,-1.3762,-1.4149,-1.49,-1.4444,-1.4953,-1.6334,-1.6239,-1.6914,-1.8452,-1.9384,-2.0154,-2.0685,-2.1533,-2.2504,-2.3628,-2.4215,-2.457,-2.4657,-2.484,-2.4939,-2.5079,-2.6076,-2.6669,-2.6876,-2.6956,-2.6879,-2.655,-2.3598,0.0,0.0,0.0,0.0,0.0,0.0,0.0,0.0,0.0,-1.6962,-1.6743,0.0,-1.9169,0.0,-2.2191,-2.219,-1.9752,-2.0851,0.0,0.0,-2.0237,-2.0245,-2.0874,-2.1002,-2.1301,-2.1983,-2.251,-2.2988,-2.3433,-2.3323,-2.3444,-2.3932,-2.3666,-2.3712,-2.4416,-2.3932,-2.3703,-2.4063,-2.3722,-2.3525,-2.4043,-2.4769,-2.5311,-2.5826,-2.5926,-2.6013,-2.6137,-2.6201,-2.625,-2.625,-2.625,-2.6223,-2.6154,-2.6137,-2.617,-2.6277,-2.6069,-2.5633,-2.5044,-2.5173,-2.5314,-1.7063,-1.7188,-1.7226,-1.7312,-1.7536,-1.8107,-1.814,-1.7848,-1.8408,-1.8443,-1.8089,-1.8089,-1.7875,-1.745,-1.6735,-1.6437,-1.6431,-1.5774,-1.5511,-1.5577,-1.5133,-1.4855,-1.4768,-1.4269,-1.3769,-1.3388,-1.3347,-1.3565,-1.393,-1.3615,-1.4164,-1.54,-1.5051,-1.5674,-1.7252,-1.8279,-1.9069,-1.9792,-2.0589,-2.1315,-2.1932,-2.2621,-2.2865,-2.2656,-2.3502,-2.3861,-2.3655,-2.483,-2.5437,-2.5347,-2.5704,-2.5899,-2.5791,-2.3403,-2.1812,0.0,0.0,0.0,0.0,0.0,0.0,0.0,0.0,0.0,0.0,0.0,-1.9728,-2.0534,-2.2234,-2.2363,-2.0057,-2.0831,-2.1242,-2.0754,-2.0349,-2.0306,-2.0735,-2.0858,-2.1042,-2.1433,-2.1749,-2.2064,-2.2393,-2.2214,-2.218,-2.2607,-2.2447,-2.2748,-2.3814,-2.3621,-2.3444,-2.3763,-2.3347,-2.3098,-2.3468,-2.3991,-2.465,-2.5298,-2.5501,-2.5618,-2.6085,-2.619,-2.619,-2.619,-2.619,-2.619,-2.619,-2.619,-2.6222,-2.6298,-2.6149,-2.5765,-2.5262,-2.4865,-2.4681,-1.585,-1.6166,-1.6174,-1.63,-1.6634,-1.79,-1.7557,-1.623,-1.7379,-1.7391,-1.6698,-1.6698,-1.6698,-1.6698,-1.6576,-1.6337,-1.6022,-1.5902,-1.5537,-1.4971,-1.4804,-1.4635,-1.4387,-1.4193,-1.3958,-1.3676,-1.3584,-1.3466,-1.3253,-1.3273,-1.354,-1.4054,-1.3973,-1.4446,-1.5366,-1.6477,-1.7614,-1.8811,-1.9694,-2.0063,-1.9998,-2.072,-2.0854,-2.0484,-2.2104,-2.2862,-2.2551,-2.3657,-2.4256,-2.4205,-2.3958,-2.4013,-2.4502,-2.2639,-2.1466,0.0,-1.9804,0.0,0.0,0.0,0.0,0.0,0.0,0.0,0.0,-1.9838,-1.9966,-2.0268,-2.1577,-2.2027,-2.1113,-2.0613,-2.0452,-2.0675,-2.0146,-1.9857,-2.0063,-2.0215,-2.0268,-2.0268,-2.0462,-2.0611,-2.0769,-2.0655,-2.0719,-2.091,-2.0917,-2.1249,-2.2276,-2.2708,-2.2923,-2.3045,-2.3138,-2.3245,-2.3257,-2.3284,-2.3721,-2.4486,-2.4744,-2.4979,-2.5854,-2.6081,-2.6159,-2.6151,-2.6149,-2.6151,-2.6137,-2.6097,-2.6066,-2.6204,-2.6159,-2.6105,-2.5983,-2.5287,-2.4909,-1.6491,-1.6554,-1.6595,-1.6234,-1.5718,-1.6668,-1.6879,-1.6603,-1.6838,-1.6862,-1.6698,-1.6698,-1.6698,-1.6657,-1.5966,-1.5606,-1.5464,-1.4774,-1.4794,-1.5272,-1.4296,-1.4189,-1.4683,-1.3648,-1.3048,-1.2958,-1.2482,-1.2367,-1.2598,-1.1843,-1.1981,-1.2877,-1.2382,-1.2612,-1.3674,0.0,0.0,0.0,-1.8378,-1.888,-1.9464,-2.0431,-2.089,-2.0787,-2.131,0.0,-2.2042,-2.2712,-2.3323,-2.3732,-2.4149,0.0,0.0,0.0,0.0,0.0,0.0,0.0,0.0,0.0,0.0,0.0,-1.9444,-1.9273,-1.9066,-1.9684,-2.0281,-2.0653,-2.0887,-2.0996,-2.1082,-2.0517,-2.0176,-2.02,-2.0083,-2.003,-2.0096,-2.0128,-2.0128,-2.0161,-2.0279,-2.0365,-2.0354,-2.0515,-2.0398,-1.9987,-2.0386,-2.0642,-2.0454,-2.1452,-2.2528,-2.3605,-2.3686,-2.3794,-2.3811,-2.4135,-2.4323,-2.4902,-2.4943,-2.497,-2.5241,-2.5657,-2.5952,-2.5936,-2.594,-2.5938,-2.5938,-2.558,-2.5295,-2.53,-2.5232,-2.5283,-2.577,-2.5688,-2.5463,-1.5088,-1.5095,-1.5179,-1.497,0.0,-1.5186,-1.5436,-1.5436,-1.5884,-1.5801,-1.5436,-1.5436,-1.5394,-1.5394,-1.495,-1.4741,-1.4741,-1.4292,-1.4334,-1.472,-1.398,-1.3838,-1.4217,-1.3377,-1.2938,-1.2815,-1.2482,-1.2369,-1.2318,-1.1885,-1.1875,-1.2219,-1.1848,-1.2068,-1.2863,-1.3602,-1.492,-1.6853,-1.7042,-1.7419,-1.8118,-1.8969,-1.95,-1.9619,-2.0373,0.0,0.0,0.0,0.0,0.0,0.0,0.0,0.0,-2.1276,-2.0779,-2.0738,-1.9858,-1.9408,-1.9479,-1.9476,-1.9611,-1.9865,-1.9561,-1.9325,-1.9235,-1.981,-2.0241,-2.0421,-2.0403,-2.042,-2.0549,-1.9966,-1.9573,-1.954,-1.9287,-1.9054,-1.9054,-1.9054,-1.9054,-1.9088,-1.9121,-1.9199,-1.9299,-1.9299,-1.9309,-1.921,-1.9398,-1.9683,-1.9998,-2.0826,-2.1846,-2.25,-2.2604,-2.2614,-2.2575,-2.2824,-2.3378,-2.3807,-2.4024,-2.4297,-2.4894,-2.5258,-2.5467,-2.5453,-2.5453,-2.5453,-2.5425,-2.5189,-2.5089,-2.5401,-2.56,-2.5825,-2.6162,-2.5727,-2.5406,-1.3442,-1.3398,-1.3568,-1.3652,-1.3737,-1.3955,-1.4039,-1.4124,-1.4866,0.0,0.0,-1.4088,-1.4082,-1.4046,-1.4082,-1.4082,-1.4046,-1.4082,-1.4088,-1.4068,-1.3728,-1.3553,-1.358,-1.3247,-1.3053,-1.2945,-1.2891,-1.2634,-1.2192,-1.2251,-1.2052,-1.1649,-1.1559,-1.1881,-1.2431,-1.3013,-1.4035,-1.5482,-1.5737,-1.6114,-1.6724,-1.7341,-1.7821,-1.8182,-1.9284,-1.9792,-1.9569,-2.0155,-2.0273,-1.9892,-1.987,-1.9921,-2.0034,-1.959,-1.9576,-2.0101,-1.9723,-1.9537,-1.9743,-1.9776,-1.9796,-1.9901,-1.9243,-1.9032,-1.9527,-1.9652,-1.9781,-1.9901,-1.9802,-1.9781,-1.9901,-1.9253,-1.8777,-1.8643,-1.8259,-1.794,-1.7657,-1.7725,-1.7784,-1.7613,-1.7716,-1.7862,-1.8056,-1.81,-1.8144,-1.8506,-1.8539,-1.864,-1.9715,-2.0581,-2.1167,-2.1282,-2.1376,-2.1187,-2.1123,-2.1239,-2.1522,-2.2506,-2.2767,-2.3246,-2.4153,-2.4696,-2.4809,-2.4838,-2.4838,-2.4851,-2.4838,-2.4667,-2.4842,-2.5298,-2.5831,-2.6247,-2.6136,-2.5442,-2.5165,-1.3614,-1.3398,-1.3434,-1.3519,-1.3688,-1.3737,-1.387,-1.4088,-1.4257,-1.4208,-1.4088,-1.4088,-1.3955,-1.3779,-1.3997,-1.3997,-1.3779,-1.3997,-1.4088,-1.4055,-1.3527,-1.336,-1.3567,-1.3112,-1.306,-1.3427,-1.3227,-1.2629,-1.1756,-1.2083,-1.1663,-1.0649,-1.0853,-1.1451,-1.2059,-1.2328,-1.2936,-1.3825,-1.4653,-1.5419,-1.6114,-1.6558,-1.7092,-1.776,-1.8069,-1.876,-1.9706,-1.9825,-2.0085,-2.0458,-2.0478,-2.0415,-2.0243,-2.0145,-2.0124,-2.0105,-2.0018,-2.0018,-2.0019,-2.0051,-1.9792,-1.9199,-1.8529,-1.8398,-1.9017,-1.8623,-1.8529,-1.9077,-1.8687,-1.8529,-1.9011,-1.8563,-1.792,-1.7389,-1.7681,-1.7476,-1.6271,-1.6664,-1.6793,-1.6237,-1.6664,-1.7044,-1.7148,-1.7545,-1.7896,-1.811,-1.8245,-1.8496,-1.9088,-2.0193,-2.0996,-2.1103,-2.1103,-2.1103,-2.0933,-2.106,-2.1123,-2.1313,-2.1854,-2.2212,-2.2597,-2.3433,-2.4018,-2.4205,-2.4134,-2.4163,-2.4205,-2.375,-2.3624,-2.3748,-2.4213,-2.4535,-2.4591,-2.4644,-2.5163,-1.3262,-1.3058,-1.3179,-1.327,-1.3392,-1.361,-1.387,-1.4088,-1.4088,-1.4088,-1.4082,-1.3955,-1.3822,-1.3688,-1.3737,-1.361,-1.3509,-1.3633,-1.3637,-1.3581,-1.316,-1.3113,-1.3267,-1.2473,-1.2258,-1.255,-1.1903,-1.1273,-1.0867,-1.093,-1.0607,-0.9935,-1.0719,-1.1536,-1.2263,-1.2719,-1.3135,-1.3484,-1.392,-1.4517,-1.5234,-1.5403,-1.586,-1.6602,-1.6671,-1.7189,-1.8186,-1.822,-1.8523,-1.9177,-1.9177,-1.9133,-1.9077,-1.9044,-1.9021,-1.8954,-1.8954,-1.8954,-1.8965,-1.86,-1.8031,-1.7292,-1.6932,-1.6862,-1.7198,-1.7706,-1.811,-1.8428,-1.8178,-1.8144,-1.8395,-1.7808,-1.726,-1.6932,-1.6837,-1.6455,-1.5886,-1.5991,-1.6097,-1.5781,-1.6026,-1.6228,-1.6237,-1.6524,-1.6975,-1.7432,-1.7998,-1.8448,-1.8607,-1.9231,-1.977,-1.9966,-2.0009,-2.0009,-2.0031,-1.9998,-2.0172,-2.0484,-2.0826,-2.1144,-2.1459,-2.2194,-2.2561,-2.2925,-2.3027,-2.319,-2.3454,-2.3348,-2.3138,-2.3158,-2.3572,-2.3941,-2.4054,-2.4431,-2.5096,-1.3109,-1.2801,-1.3083,-1.3207,-1.3181,-1.3326,-1.3597,-1.4004,-1.4082,-1.4079,-1.4083,-1.3812,-1.3652,-1.3568,-1.3434,-1.3361,-1.3258,-1.337,-1.3336,-1.322,-1.306,-1.3046,-1.3068,-1.2099,-1.1708,-1.1767,-1.0924,-1.0312,-1.0124,-1.0112,-0.9922,-0.97,-1.0549,-1.1448,-1.2329,-1.2924,-1.3344,-1.3601,-1.3601,-1.385,-1.433,-1.4358,-1.4716,-1.5384,-1.5455,-1.5842,-1.6585,-1.6629,-1.6906,-1.7442,-1.7476,-1.7476,-1.7476,-1.7486,-1.7486,-1.751,-1.7476,-1.7476,-1.7442,-1.6985,-1.6376,-1.5745,-1.5702,-1.5702,-1.5781,-1.6768,-1.7476,-1.7476,-1.7442,-1.7442,-1.7364,-1.6975,-1.6585,-1.6367,-1.6026,-1.5569,-1.5286,-1.5357,-1.5357,-1.5251,-1.5357,-1.5455,-1.5463,-1.5604,-1.6097,-1.701,-1.7706,-1.8158,-1.8381,-1.8482,-1.8617,-1.8774,-1.8942,-1.9108,-1.9098,-1.9164,-1.9363,-1.9802,-2.0063,-2.0387,-2.0805,-2.0965,-2.1282,-2.1834,-2.1885,-2.2082,-2.2537,-2.2598,-2.2567,-2.2543,-2.2836,-2.3212,-2.3193,-2.3462,-2.4322,-1.3492,-1.3157,-1.3282,-1.3468,-1.3355,-1.2752,-1.2966,-1.3763,-1.3968,-1.4107,-1.4046,-1.3812,-1.3453,-1.3228,-1.3313,-1.3239,-1.3159,-1.348,-1.3528,-1.3315,-1.3452,-1.34,-1.3134,-1.2497,-1.2211,-1.2094,-1.1391,-1.0489,-0.9744,-1.0388,-1.0365,-0.9792,-0.9981,-1.0691,-1.1681,-1.2193,-1.292,-1.3938,-1.3976,-1.3829,-1.3616,-1.3601,-1.3941,-1.4673,-1.4716,-1.5065,-1.5772,-1.5816,-1.5842,-1.5921,-1.5956,-1.5921,-1.5956,-1.5921,-1.5921,-1.5956,-1.5948,-1.5921,-1.5921,-1.5851,-1.5737,-1.571,-1.5631,-1.5596,-1.5631,-1.5781,-1.5921,-1.5921,-1.5921,-1.6026,-1.5921,-1.5851,-1.5604,-1.51,-1.5321,-1.5223,-1.4122,-1.4294,-1.4474,-1.3775,-1.4374,-1.4716,-1.4752,-1.5215,-1.5956,-1.6689,-1.7044,-1.7535,-1.8202,-1.8405,-1.8414,-1.8337,-1.8506,-1.8885,-1.9008,-1.9098,-1.9164,-1.9297,-1.9715,-2.0042,-2.0269,-2.0613,-2.1112,-2.1092,-2.1187,-2.125,-2.1345,-2.127,-2.1376,-2.1565,-2.1616,-2.1493,-2.1406,-2.1606,-2.2464,-1.1956,-1.1722,-1.1675,-1.212,-1.2693,-1.2578,-1.3169,-1.4151,-1.3523,-1.3319,-1.3365,-1.2405,-1.2413,-1.3281,-1.2691,-1.262,-1.3031,-1.3192,-1.3292,-1.3246,-1.33,-1.3125,-1.2622,-1.1834,-1.1293,-1.082,-0.9952,-0.9294,-0.8954,-0.909,-0.9268,-0.9429,-0.952,-1.0092,-1.1062,-1.1316,-1.1958,-1.3025,-1.3071,-1.3242,-1.3601,-1.3578,-1.3637,-1.3912,-1.3941,-1.4294,-1.4966,-1.5065,-1.5242,-1.5631,-1.5702,-1.5702,-1.5702,-1.5702,-1.5702,-1.5702,-1.5702,-1.549,-1.5065,-1.5065,-1.4859,-1.4446,-1.441,-1.441,-1.441,-1.441,-1.441,-1.4482,-1.518,-1.5702,-1.564,-1.5313,-1.4922,-1.4645,-1.451,-1.4165,-1.3593,-1.3775,-1.3811,-1.3564,-1.3775,-1.3949,-1.4049,-1.4573,-1.5349,-1.6088,-1.6559,-1.721,-1.811,-1.8347,-1.8405,-1.8472,-1.8674,-1.8707,-1.8697,-1.8931,-1.9065,-1.9142,-1.9297,-1.9485,-1.9626,-1.9693,-1.9998,-2.0442,-2.0529,-2.0722,-2.1103,-2.106,-2.1103,-2.1028,-2.1071,-2.1103,-2.1103,-2.1103,-2.1696,-1.0924,-1.0836,-1.045,-1.0964,-1.2078,-1.1921,-1.2529,-1.3489,-1.2603,-1.2329,-1.24,-1.1042,-1.1334,-1.2613,-1.1888,-1.1954,-1.2734,-1.265,-1.2706,-1.2824,-1.2785,-1.2476,-1.1863,-1.1047,-1.0394,-0.9817,-0.8905,-0.8412,-0.8345,-0.8182,-0.8379,-0.889,-0.9009,-0.9525,-1.0421,-1.0608,-1.1152,-1.2089,-1.2394,-1.2842,-1.3323,-1.3535,-1.357,-1.352,-1.3506,-1.3775,-1.4258,-1.4294,-1.4537,-1.5073,-1.5117,-1.5117,-1.5117,-1.5081,-1.5108,-1.5073,-1.5073,-1.4867,-1.433,-1.4294,-1.4086,-1.3564,-1.3492,-1.3492,-1.3492,-1.3492,-1.3492,-1.3601,-1.433,-1.4816,-1.501,-1.4609,-1.433,-1.4258,-1.3775,-1.3492,-1.3492,-1.3492,-1.3528,-1.3492,-1.3528,-1.3492,-1.3557,-1.3977,-1.4573,-1.5313,-1.6008,-1.6967,-1.7918,-1.8316,-1.8587,-1.8823,-1.9014,-1.9005,-1.8644,-1.8841,-1.9085,-1.9285,-1.936,-1.9445,-1.943,-1.9492,-1.9401,-2.021,-2.0093,-1.9987,-2.0194,-2.0387,-2.0549,-2.0549,-2.0549,-2.0549,-2.0366,-2.0528,-2.0516,-1.1187,-1.1024,-1.0188,-1.051,-1.1549,-1.0464,-1.0473,-1.1569,-1.1252,-1.1172,-1.1142,-1.0137,-1.0333,-1.1283,-1.0896,-1.1373,-1.2193,-1.1838,-1.1767,-1.2003,-1.1835,-1.1424,-1.0926,-1.0262,-0.9932,-0.9728,-0.8978,-0.858,-0.8575,-0.8369,-0.828,-0.8357,-0.8412,-0.8923,-0.9835,-1.0164,-1.0704,-1.1491,-1.2217,-1.2685,-1.2617,-1.3317,-1.3652,-1.3521,-1.3556,-1.3572,-1.3579,-1.3572,-1.3601,-1.3637,-1.3666,-1.3666,-1.363,-1.3666,-1.3702,-1.3666,-1.3666,-1.363,-1.3601,-1.3593,-1.3564,-1.3492,-1.3492,-1.3492,-1.3492,-1.3492,-1.3455,-1.3463,-1.3185,-1.3215,-1.3557,-1.363,-1.3593,-1.363,-1.3564,-1.3492,-1.3492,-1.3492,-1.3492,-1.3492,-1.3492,-1.3492,-1.3492,-1.3528,-1.4,-1.4624,-1.5195,-1.6085,-1.7495,-1.8341,-1.8674,-1.8911,-1.9304,-1.9742,-1.9212,-1.9225,-1.9393,-1.9606,-1.9793,-1.9865,-2.0151,-2.0327,-2.0149,-1.9986,-1.9986,-1.98,-1.9387,-1.9264,-1.9386,-1.9452,-1.9518,-1.9495,-1.9682,-1.9363,-1.9419,-0.9227,-0.9413,-0.9603,-1.0149,-1.0775,-1.0509,-1.0861,-1.1574,-1.0756,-1.05,-1.036,-0.9199,-0.9016,-0.9653,-0.9542,-1.0344,-1.1663,-1.14,-1.1474,-1.1854,-1.1828,-1.1329,-1.0494,-1.0195,-0.9672,-0.9095,-0.874,-0.8616,-0.8608,-0.8543,-0.851,-0.8486,-0.8388,-0.8597,-0.8987,-0.9043,-0.9501,-1.0414,-1.0846,-1.1186,-1.1706,-1.2515,-1.2938,-1.2915,-1.3564,-1.3777,-1.3575,-1.3732,-1.3711,-1.3499,-1.3492,-1.3492,-1.3492,-1.3492,-1.3492,-1.3492,-1.3492,-1.3492,-1.3492,-1.3492,-1.3492,-1.3492,-1.3492,-1.3455,-1.3492,-1.3492,-1.3346,-1.3046,-1.3156,-1.3046,-1.2526,-1.268,-1.3083,-1.3419,-1.3492,-1.3492,-1.3492,-1.3492,-1.3492,-1.3492,-1.3492,-1.3492,-1.3514,-1.3492,-1.3894,-1.4728,-1.5091,-1.5823,-1.6887,-1.7546,-1.7812,-1.7915,-1.811,-1.8394,-1.8789,-1.9374,-1.9842,-2.0029,-2.0203,-2.0224,-2.0395,-2.0498,-2.0384,-2.0311,-2.0193,-2.0052,-1.9734,-1.9391,-1.9316,-1.9243,-1.9222,-1.9305,-1.9098,-1.9233,-1.9191,-0.8237,-0.8482,-0.9179,-0.9677,-1.0023,-1.0216,-1.06,-1.0935,-1.0051,-0.9657,-0.9509,-0.8581,-0.8382,-0.8726,-0.8722,-0.9445,-1.0778,-1.0669,-1.0926,-1.1405,-1.123,-1.0639,-0.9972,-0.9854,-0.944,-0.875,-0.8637,-0.8616,-0.8616,-0.8616,-0.8616,-0.86,-0.8477,-0.8482,-0.8571,-0.8438,-0.8789,-0.941,-0.9728,-1.0246,-1.0869,-1.1663,-1.229,-1.2634,-1.3351,-1.3789,-1.376,-1.3836,-1.3849,-1.3675,-1.3558,-1.3492,-1.3492,-1.3492,-1.3492,-1.3492,-1.3492,-1.3492,-1.3492,-1.3492,-1.3419,-1.3229,-1.3193,-1.3163,-1.2973,-1.2936,-1.2709,-1.2482,-1.2415,-1.2268,-1.1929,-1.1892,-1.2342,-1.301,-1.32,-1.3309,-1.3455,-1.3492,-1.3492,-1.3514,-1.3609,-1.3645,-1.3675,-1.3762,-1.4171,-1.4849,-1.5017,-1.5624,-1.6568,-1.7004,-1.7257,-1.7555,-1.7752,-1.8237,-1.8779,-1.95,-2.0078,-2.0317,-2.0514,-2.0561,-2.0715,-2.0746,-2.0715,-2.0679,-2.0545,-2.0379,-2.01,-1.9727,-1.9551,-1.9479,-1.9624,-1.9768,-1.9616,-1.945,-1.945,-0.8382,-0.8482,-0.8985,-0.9236,-0.9335,-0.9381,-0.9282,-0.9331,-0.9076,-0.8871,-0.868,-0.8432,-0.8528,-0.8722,-0.8627,-0.8916,-0.9629,-0.9763,-1.004,-1.0436,-0.9901,-0.95,-0.924,-0.9236,-0.9137,-0.8816,-0.8645,-0.862,-0.8633,-0.8624,-0.8616,-0.8612,-0.86,-0.8588,-0.8616,-0.8596,-0.8596,-0.8828,-0.9432,-0.9816,-0.9985,-1.0783,-1.1632,-1.2413,-1.2759,-1.3268,-1.3984,-1.3796,-1.3753,-1.3848,-1.3638,-1.3514,-1.3499,-1.3492,-1.3492,-1.3492,-1.3455,-1.3455,-1.3411,-1.3339,-1.2973,-1.2643,-1.2569,-1.2298,-1.1929,-1.1855,-1.1781,-1.1632,-1.1372,-1.1111,-1.1446,-1.1223,-1.1409,-1.2372,-1.2636,-1.29,-1.3266,-1.3492,-1.3499,-1.3558,-1.3866,-1.3998,-1.4078,-1.4325,-1.458,-1.4667,-1.4971,-1.5469,-1.6214,-1.6693,-1.7413,-1.7831,-1.7823,-1.7965,-1.8795,-1.9631,-2.012,-2.0577,-2.0768,-2.0896,-2.1277,-2.1387,-2.128,-2.1186,-2.0938,-2.0762,-2.0545,-2.0213,-2.0131,-2.0089,-2.0224,-2.0213,-2.0048,-1.9882,-1.9844,-0.8382,-0.8482,-0.8985,-0.9187,-0.9236,-0.9381,-0.9381,-0.9187,-0.9084,-0.8931,-0.873,-0.8676,-0.8726,-0.8825,-0.8882,-0.9084,-0.9331,-0.9529,-0.9706,-0.9818,-0.9657,-0.9445,-0.9351,-0.9322,-0.9229,-0.8986,-0.8751,-0.8633,-0.8698,-0.8669,-0.8616,-0.8616,-0.8616,-0.8616,-0.8616,-0.8616,-0.8616,-0.8656,-0.8872,-0.8999,-0.9087,-0.9859,-1.0506,-1.0804,-1.1445,-1.2294,-1.3271,-1.3824,-1.3874,-1.3549,-1.3572,-1.3533,-1.3506,-1.3492,-1.3492,-1.3455,-1.2973,-1.2673,-1.2599,-1.2187,-1.1848,-1.1595,-1.1558,-1.1477,-1.1335,-1.1372,-1.126,-1.1037,-1.1149,-1.126,-1.0663,-1.07,-1.1149,-1.1892,-1.2335,-1.2636,-1.2966,-1.3273,-1.3609,-1.3903,-1.447,-1.4698,-1.456,-1.4817,-1.5054,-1.4844,-1.4977,-1.5282,-1.5669,-1.5973,-1.5974,-1.6263,-1.6739,-1.7658,-1.843,-1.9244,-1.9965,-2.0418,-2.0731,-2.0853,-2.1303,-2.1357,-2.1321,-2.1333,-2.1135,-2.1024,-2.0808,-2.0772,-2.0669,-2.0452,-2.0401,-2.037,-2.0374,-2.0277,-2.0088,-0.8233,-0.8287,-0.8733,-0.8882,-0.8931,-0.9175,-0.9278,-0.9187,-0.9187,-0.9084,-0.8981,-0.8931,-0.8931,-0.8981,-0.9137,-0.9286,-0.9381,-0.9529,-0.9624,-0.9624,-0.9624,-0.9559,-0.9449,-0.9424,-0.9355,-0.9149,-0.8832,-0.8718,-0.8804,-0.8653,-0.8616,-0.8616,-0.8616,-0.8616,-0.8616,-0.8616,-0.8616,-0.8616,-0.8612,-0.8616,-0.87,-0.913,-0.9554,-0.9941,-1.0506,-1.1316,-1.2328,-1.2901,-1.3188,-1.3106,-1.3097,-1.3133,-1.3345,-1.3382,-1.3419,-1.3353,-1.279,-1.2305,-1.2231,-1.1713,-1.1037,-1.085,-1.0812,-1.0775,-1.0625,-1.0663,-1.0513,-1.0438,-1.0663,-1.0812,-1.0438,-1.0556,-1.0962,-1.1298,-1.1892,-1.2452,-1.2826,-1.3273,-1.3521,-1.3852,-1.4335,-1.4615,-1.4711,-1.4943,-1.5323,-1.5117,-1.5082,-1.5112,-1.5338,-1.5423,-1.5431,-1.5582,-1.6345,-1.7188,-1.7957,-1.8816,-1.9706,-2.0216,-2.0653,-2.0662,-2.0857,-2.045,-2.0227,-2.0488,-2.0456,-2.0741,-2.0637,-2.1042,-2.1124,-2.0875,-2.0626,-2.0706,-2.0703,-2.0293,-2.0145,-0.7988,-0.8038,-0.8283,-0.8432,-0.8482,-0.873,-0.8977,-0.9137,-0.9137,-0.9137,-0.9187,-0.9137,-0.9187,-0.9232,-0.9286,-0.9381,-0.9579,-0.9579,-0.9624,-0.9624,-0.9624,-0.9608,-0.9579,-0.9482,-0.9408,-0.9367,-0.9007,-0.8861,-0.8901,-0.8706,-0.8629,-0.8649,-0.8629,-0.8616,-0.8616,-0.8616,-0.8616,-0.8616,-0.8616,-0.8616,-0.8612,-0.8612,-0.9003,-0.9685,-0.9859,-1.0332,-1.1101,-1.1375,-1.1818,-1.2622,-1.2419,-1.2513,-1.3079,-1.3228,-1.3323,-1.3251,-1.2606,-1.2114,-1.2003,-1.1254,-1.0738,-1.0186,-1.0218,-1.0223,-0.9809,-0.9803,-0.9879,-0.9916,-1.0067,-1.0325,-1.0663,-1.0887,-1.0956,-1.0999,-1.1558,-1.2268,-1.3266,-1.3499,-1.355,-1.3653,-1.3851,-1.4175,-1.4538,-1.4843,-1.5109,-1.5218,-1.5258,-1.5272,-1.5367,-1.5389,-1.5389,-1.579,-1.6304,-1.7107,-1.8037,-1.9204,-2.002,-2.0137,-2.0323,-2.004,-2.0196,-1.9825,-1.9532,-1.9758,-1.9905,-2.0226,-2.0546,-2.0819,-2.1141,-2.109,-2.0989,-2.1086,-2.1004,-2.0682,-2.0578,-0.7988,-0.8038,-0.8283,-0.8382,-0.8432,-0.8676,-0.8829,-0.8878,-0.8928,-0.9031,-0.9137,-0.9187,-0.9282,-0.948,-0.948,-0.9529,-0.9579,-0.9575,-0.9624,-0.9624,-0.9624,-0.9624,-0.9592,-0.9449,-0.9477,-0.9478,-0.9198,-0.9092,-0.9229,-0.8889,-0.8747,-0.8747,-0.8665,-0.8616,-0.8616,-0.8616,-0.8616,-0.8616,-0.8616,-0.8616,-0.8616,-0.8616,-0.8696,-0.8911,-0.913,-0.9559,-1.0202,-1.0246,-1.1033,-1.2406,-1.2289,-1.2447,-1.3075,-1.3154,-1.2876,-1.221,-1.1571,-1.0919,-1.0389,-0.9825,-0.9425,-0.9359,-0.9506,-0.9397,-0.9397,-0.9511,-0.962,-0.9809,-1.018,-1.0625,-1.085,-1.1223,-1.1595,-1.2003,-1.1929,-1.2224,-1.3156,-1.3499,-1.3572,-1.3851,-1.4433,-1.463,-1.4665,-1.4938,-1.5245,-1.5091,-1.5068,-1.5126,-1.5265,-1.5389,-1.5431,-1.5914,-1.6509,-1.735,-1.827,-1.9481,-2.0167,-2.0167,-1.9883,-1.9164,-1.9402,-1.9511,-1.9383,-1.9413,-1.9325,-1.9571,-1.9885,-2.0178,-2.0527,-2.1136,-2.1213,-2.129,-2.153,-2.1422,-2.1305,-0.7988,-0.7988,-0.8184,-0.8233,-0.8233,-0.8382,-0.8528,-0.8627,-0.8627,-0.8829,-0.9137,-0.9187,-0.9286,-0.943,-0.9529,-0.9529,-0.948,-0.9529,-0.9624,-0.9624,-0.9624,-0.9624,-0.96,-0.9506,-0.9527,-0.9579,-0.934,-0.9322,-0.9314,-0.8995,-0.8795,-0.8783,-0.8653,-0.8616,-0.8616,-0.8616,-0.8616,-0.8616,-0.8616,-0.8616,-0.8616,-0.8616,-0.8652,-0.874,-0.8872,-0.9126,-0.9428,-0.9384,-0.9971,-1.0904,-1.1103,-1.137,-1.2122,-1.2201,-1.192,-1.1298,-1.0667,-1.0062,-0.9652,-0.9112,-0.9041,-0.9279,-0.9322,-0.9473,-0.9733,-0.9922,-0.9992,-1.0223,-1.0775,-1.1223,-1.1552,-1.1892,-1.2342,-1.2746,-1.2452,-1.2489,-1.3419,-1.3492,-1.3572,-1.3866,-1.4163,-1.4529,-1.43,-1.4736,-1.4872,-1.4828,-1.4863,-1.498,-1.5126,-1.5265,-1.545,-1.5827,-1.6657,-1.7594,-1.8198,-1.9164,-1.9844,-1.9883,-1.9244,-1.8527,-1.8238,-1.8598,-1.843,-1.835,-1.859,-1.8908,-1.9304,-1.9864,-2.0653,-2.1126,-2.129,-2.1443,-2.1606,-2.1578,-2.1578,-0.7988,-0.7988,-0.7988,-0.7988,-0.7988,-0.7988,-0.8187,-0.8333,-0.8382,-0.8634,-0.8985,-0.9084,-0.9084,-0.9183,-0.943,-0.9434,-0.9232,-0.948,-0.9579,-0.9624,-0.9624,-0.9624,-0.9624,-0.9608,-0.9604,-0.9604,-0.9453,-0.9453,-0.9388,-0.906,-0.8889,-0.8844,-0.8698,-0.8593,-0.862,-0.8616,-0.8616,-0.8616,-0.8616,-0.8616,-0.8616,-0.8616,-0.8652,-0.878,-0.8823,-0.8872,-0.8911,-0.8819,-0.9009,-0.9432,-0.946,-1.0216,-1.0838,-1.095,-1.0794,-1.0718,-1.0133,-0.9573,-0.9372,-0.8999,-0.9188,-0.9614,-0.9695,-0.9954,-1.0438,-1.0663,-1.07,-1.085,-1.1446,-1.2003,-1.2489,-1.2673,-1.29,-1.3236,-1.2936,-1.301,-1.3339,-1.3492,-1.3492,-1.3492,-1.3499,-1.3653,-1.3821,-1.396,-1.4093,-1.4456,-1.4553,-1.4684,-1.4849,-1.5061,-1.517,-1.5359,-1.6456,-1.7876,-1.8327,-1.8807,-1.9204,-1.9402,-1.8567,-1.7764,-1.6919,-1.696,-1.6919,-1.7,-1.7602,-1.8278,-1.8908,-1.962,-2.0498,-2.1049,-2.1165,-2.1367,-2.153,-2.1262,-2.1185,-0.7988,-0.7988,-0.7988,-0.7988,-0.7988,-0.7988,-0.8038,-0.8088,-0.8088,-0.8287,-0.8535,-0.8581,-0.873,-0.8878,-0.9179,-0.9232,-0.9236,-0.943,-0.9624,-0.9624,-0.9624,-0.9624,-0.9624,-0.9624,-0.9624,-0.9612,-0.9592,-0.9563,-0.9494,-0.9324,-0.9165,-0.9023,-0.884,-0.8698,-0.8637,-0.862,-0.8616,-0.8616,-0.8616,-0.8616,-0.8616,-0.8612,-0.8656,-0.874,-0.8696,-0.8784,-0.8828,-0.8696,-0.8675,-0.8908,-0.9477,-1.0226,-1.1189,-1.1056,-1.0649,-1.0361,-0.9786,-0.9089,-0.8583,-0.8581,-0.8818,-0.9884,-1.0067,-1.0276,-1.1329,-1.1446,-1.1446,-1.1595,-1.204,-1.2636,-1.3119,-1.3266,-1.3346,-1.3419,-1.3346,-1.3309,-1.3455,-1.3492,-1.3492,-1.3492,-1.3492,-1.3528,-1.3601,-1.3631,-1.3777,-1.4026,-1.4194,-1.4311,-1.456,-1.4805,-1.4966,-1.5116,-1.6297,-1.7548,-1.7917,-1.8247,-1.8519,-1.863,-1.7917,-1.744,-1.6599,-1.6072,-1.6319,-1.6566,-1.6853,-1.7561,-1.847,-1.9067,-1.9825,-2.0421,-2.1059,-2.1339,-2.1425,-2.1118,-2.1002,-0.7988,-0.7988,-0.7988,-0.7988,-0.7988,-0.7988,-0.7988,-0.7988,-0.7988,-0.8134,-0.8382,-0.8382,-0.8482,-0.8627,-0.8882,-0.9031,-0.913,-0.9426,-0.9624,-0.9624,-0.9624,-0.9624,-0.9624,-0.9624,-0.9624,-0.9624,-0.9624,-0.9624,-0.9579,-0.9453,-0.9343,-0.9198,-0.8962,-0.8787,-0.8678,-0.8653,-0.8616,-0.8616,-0.8616,-0.8616,-0.8616,-0.8612,-0.874,-0.8828,-0.8828,-0.8823,-0.9043,-0.8784,-0.8612,-0.87,-0.9087,-0.9648,-1.0323,-1.0123,-0.9757,-0.9442,-0.9137,-0.8968,-0.8792,-0.8899,-0.9502,-1.0933,-1.0802,-1.1223,-1.1818,-1.212,-1.212,-1.2268,-1.2636,-1.3193,-1.3455,-1.3492,-1.3492,-1.3492,-1.3492,-1.3492,-1.3492,-1.3492,-1.3492,-1.3492,-1.3492,-1.3492,-1.3492,-1.3492,-1.3528,-1.3777,-1.4011,-1.4128,-1.4223,-1.4509,-1.4794,-1.5182,-1.6213,-1.7071,-1.7414,-1.7674,-1.7836,-1.7706,-1.722,-1.7033,-1.6714,-1.6353,-1.6105,-1.6319,-1.6574,-1.7326,-1.8158,-1.8709,-1.9471,-2.0518,-2.1195,-2.1397,-2.1397,-2.1128,-2.1089,-0.7988,-0.7988,-0.7988,-0.7988,-0.7988,-0.7988,-0.7988,-0.7988,-0.7988,-0.8137,-0.8283,-0.8333,-0.8336,-0.8428,-0.8676,-0.8825,-0.9072,-0.9324,-0.9624,-0.9624,-0.9624,-0.9624,-0.9624,-0.9624,-0.9624,-0.9624,-0.9624,-0.9624,-0.9583,-0.9482,-0.9441,-0.9351,-0.9039,-0.8861,-0.8792,-0.8658,-0.8616,-0.8616,-0.8616,-0.8616,-0.8616,-0.8616,-0.8784,-0.8959,-0.8915,-0.8867,-0.8955,-0.8784,-0.8616,-0.8616,-0.8616,-0.8616,-0.8616,-0.8604,-0.8642,-0.8589,-0.8573,-0.8761,-0.9319,-0.9587,-1.0226,-1.2171,-1.1923,-1.2066,-1.2672,-1.2974,-1.2988,-1.3045,-1.3335,-1.3506,-1.3506,-1.3492,-1.3492,-1.3492,-1.3492,-1.3492,-1.3492,-1.3492,-1.3492,-1.3492,-1.3492,-1.3492,-1.3492,-1.3492,-1.3492,-1.3528,-1.3762,-1.3931,-1.4056,-1.4196,-1.4443,-1.4912,-1.5897,-1.6661,-1.7074,-1.6968,-1.7105,-1.679,-1.6398,-1.6407,-1.648,-1.6263,-1.5948,-1.6121,-1.6484,-1.7204,-1.7876,-1.855,-1.9471,-2.0693,-2.1177,-2.1215,-2.1215,-2.1177,-2.1128,-0.7988,-0.7988,-0.7988,-0.7988,-0.7988,-0.7988,-0.7988,-0.7988,-0.7988,-0.8038,-0.8038,-0.8041,-0.8088,-0.8187,-0.8627,-0.9023,-0.9327,-0.9529,-0.9624,-0.9624,-0.9624,-0.9624,-0.9624,-0.9624,-0.9624,-0.9624,-0.9624,-0.9624,-0.9624,-0.9542,-0.949,-0.9392,-0.9157,-0.8999,-0.8832,-0.8666,-0.8629,-0.8616,-0.8616,-0.8616,-0.8616,-0.8612,-0.8656,-0.8828,-0.874,-0.874,-0.874,-0.8656,-0.8616,-0.8616,-0.8616,-0.8616,-0.8616,-0.8616,-0.889,-0.913,-0.8721,-0.8755,-0.9522,-0.9589,-1.0562,-1.1936,-1.238,-1.296,-1.3751,-1.4106,-1.3949,-1.3966,-1.389,-1.3844,-1.3521,-1.3587,-1.3528,-1.3514,-1.3558,-1.355,-1.3528,-1.3528,-1.3514,-1.3499,-1.3499,-1.3492,-1.3492,-1.3492,-1.3492,-1.3492,-1.3594,-1.3689,-1.3718,-1.3865,-1.407,-1.4688,-1.5373,-1.6126,-1.6716,-1.642,-1.6293,-1.5917,-1.5613,-1.5523,-1.5591,-1.5764,-1.5775,-1.574,-1.6137,-1.6804,-1.7521,-1.827,-1.9274,-2.0362,-2.0731,-2.0984,-2.0984,-2.0974,-2.0896,-0.7988,-0.7988,-0.7988,-0.7988,-0.7988,-0.7988,-0.7988,-0.7988,-0.7988,-0.7988,-0.7988,-0.7988,-0.7988,-0.8088,-0.8386,-0.8882,-0.9282,-0.9529,-0.9579,-0.9624,-0.9624,-0.9624,-0.9624,-0.9624,-0.9624,-0.9624,-0.9624,-0.9624,-0.9624,-0.9624,-0.9571,-0.9486,-0.9363,-0.9141,-0.8966,-0.8796,-0.8653,-0.8645,-0.8616,-0.8616,-0.8612,-0.8612,-0.8656,-0.8696,-0.8652,-0.8652,-0.874,-0.8608,-0.8612,-0.8616,-0.8616,-0.8616,-0.8616,-0.8656,-0.8788,-0.9065,-0.8779,-0.8854,-0.9591,-0.9727,-1.0589,-1.2401,-1.2721,-1.3265,-1.4105,-1.4443,-1.454,-1.4474,-1.443,-1.4218,-1.404,-1.3975,-1.3996,-1.4004,-1.3975,-1.3894,-1.3799,-1.3755,-1.3682,-1.3587,-1.3528,-1.3521,-1.3492,-1.3492,-1.3492,-1.3492,-1.3492,-1.3492,-1.3492,-1.3623,-1.3821,-1.4319,-1.4933,-1.5353,-1.5867,-1.5736,-1.5657,-1.5334,-1.5035,-1.4955,-1.494,-1.5187,-1.5194,-1.5078,-1.5685,-1.6341,-1.7066,-1.7738,-1.8908,-1.9962,-2.0411,-2.0731,-2.077,-2.077,-2.0731,-0.7988,-0.7988,-0.7988,-0.7988,-0.7988,-0.7988,-0.7988,-0.7988,-0.7988,-0.7988,-0.7988,-0.8038,-0.8088,-0.8191,-0.8435,-0.8832,-0.9282,-0.9529,-0.9579,-0.9624,-0.9624,-0.9624,-0.9624,-0.9624,-0.9624,-0.9624,-0.9624,-0.9624,-0.9624,-0.9624,-0.9624,-0.9555,-0.9433,-0.9314,-0.908,-0.8881,-0.8735,-0.8621,-0.8616,-0.8616,-0.8612,-0.8784,-0.8784,-0.8828,-0.87,-0.8652,-0.8736,-0.8652,-0.8612,-0.8616,-0.8616,-0.8616,-0.8616,-0.8616,-0.8616,-0.8616,-0.8616,-0.9087,-0.9595,-0.9852,-1.0695,-1.2775,-1.2913,-1.3601,-1.4374,-1.4765,-1.4692,-1.4629,-1.456,-1.4501,-1.4392,-1.4474,-1.4474,-1.446,-1.443,-1.4408,-1.4203,-1.4093,-1.3989,-1.3857,-1.3667,-1.3572,-1.3565,-1.3492,-1.3492,-1.3492,-1.3492,-1.3492,-1.3492,-1.3492,-1.3682,-1.4004,-1.442,-1.4653,-1.4927,-1.4914,-1.5028,-1.5083,-1.4853,-1.4706,-1.4692,-1.4761,-1.4727,-1.4781,-1.5087,-1.5777,-1.6506,-1.7366,-1.851,-1.949,-2.0128,-2.0527,-2.0654,-2.0693,-2.0654,-0.7988,-0.7988,-0.7988,-0.7988,-0.7988,-0.7988,-0.7988,-0.7988,-0.7988,-0.7988,-0.8038,-0.8237,-0.8382,-0.8482,-0.8886,-0.9232,-0.948,-0.9579,-0.9624,-0.9624,-0.9624,-0.9624,-0.9624,-0.9624,-0.9624,-0.9624,-0.9624,-0.9624,-0.9624,-0.9624,-0.9624,-0.9587,-0.9466,-0.9326,-0.9133,-0.8954,-0.8735,-0.8649,-0.862,-0.8656,-0.8744,-0.9301,-0.9301,-0.8828,-0.8696,-0.8652,-0.8696,-0.8612,-0.8616,-0.8616,-0.8616,-0.8616,-0.8616,-0.8616,-0.8616,-0.8616,-0.87,-0.8955,-0.9637,-0.9812,-1.0722,-1.2578,-1.3172,-1.4018,-1.4792,-1.5196,-1.5068,-1.4856,-1.4849,-1.4794,-1.4633,-1.4523,-1.4526,-1.4577,-1.4611,-1.4553,-1.446,-1.4399,-1.4326,-1.4179,-1.4011,-1.3792,-1.3667,-1.3572,-1.3492,-1.3492,-1.3492,-1.3492,-1.3492,-1.3492,-1.3521,-1.3821,-1.4077,-1.4348,-1.4443,-1.4384,-1.4553,-1.4809,-1.4655,-1.4487,-1.4582,-1.4618,-1.4618,-1.4739,-1.4959,-1.5238,-1.5938,-1.6927,-1.8129,-1.8847,-1.9323,-1.9962,-2.0605,-2.0566,-2.0411,-0.7988,-0.7988,-0.7988,-0.7988,-0.7988,-0.7988,-0.7988,-0.8038,-0.8134,-0.8233,-0.8283,-0.8482,-0.868,-0.8882,-0.9137,-0.9331,-0.9579,-0.9624,-0.9624,-0.9624,-0.9624,-0.9624,-0.9624,-0.9624,-0.9624,-0.9624,-0.9624,-0.9624,-0.9624,-0.9624,-0.9624,-0.9612,-0.9547,-0.9425,-0.923,-0.9064,-0.8893,-0.8869,-0.9063,-0.9047,-0.9087,-0.9777,-1.0033,-0.8744,-0.9087,-0.8999,-0.87,-0.8616,-0.8616,-0.8616,-0.8616,-0.8616,-0.8616,-0.8616,-0.8616,-0.8616,-0.8616,-0.8788,-0.913,-0.9437,-1.0717,-1.2083,-1.2978,-1.3678,-1.4957,-1.5382,-1.5352,-1.5199,-1.5177,-1.5082,-1.5021,-1.5013,-1.5013,-1.5006,-1.4918,-1.4823,-1.4772,-1.4728,-1.463,-1.4509,-1.4355,-1.4165,-1.3938,-1.374,-1.3638,-1.3558,-1.3543,-1.3521,-1.3506,-1.3492,-1.3528,-1.3623,-1.3857,-1.4122,-1.4136,-1.4136,-1.4326,-1.4494,-1.4377,-1.435,-1.4523,-1.4589,-1.4582,-1.456,-1.4673,-1.5028,-1.5547,-1.6357,-1.7363,-1.7969,-1.8519,-1.9225,-1.9855,-1.9893,-1.9775,-0.7988,-0.7988,-0.7988,-0.7988,-0.7988,-0.7988,-0.8038,-0.8137,-0.8333,-0.8432,-0.8581,-0.8779,-0.9031,-0.9232,-0.9331,-0.943,-0.9628,-0.9624,-0.9624,-0.9624,-0.9624,-0.9624,-0.9624,-0.9624,-0.9624,-0.9624,-0.9624,-0.9624,-0.9624,-0.9624,-0.9624,-0.9624,-0.9612,-0.9506,-0.9408,-0.9261,-0.9144,-0.9337,-0.9904,-0.9917,-0.982,-1.0895,-1.0424,-0.9733,-0.9432,-0.9476,-0.8744,-0.8616,-0.8616,-0.8616,-0.8616,-0.8616,-0.8616,-0.8872,-0.8828,-0.8828,-0.8828,-0.8915,-0.8915,-0.9087,-1.0159,-1.1526,-1.2978,-1.4139,-1.509,-1.5389,-1.5389,-1.5352,-1.5352,-1.5367,-1.5382,-1.5352,-1.535,-1.5328,-1.535,-1.5192,-1.5082,-1.5009,-1.4966,-1.4918,-1.4772,-1.4618,-1.4362,-1.4018,-1.3821,-1.3675,-1.3609,-1.3587,-1.3543,-1.3528,-1.3521,-1.3572,-1.3645,-1.3821,-1.3836,-1.3946,-1.4144,-1.4291,-1.4181,-1.4254,-1.4472,-1.4545,-1.4531,-1.4494,-1.4504,-1.4656,-1.5055,-1.5791,-1.6573,-1.7218,-1.7848,-1.8488,-1.8942,-1.9067,-1.9094,-0.7988,-0.7988,-0.7988,-0.7988,-0.7988,-0.7988,-0.8137,-0.8333,-0.8382,-0.8577,-0.8829,-0.908,-0.9327,-0.9529,-0.9525,-0.9579,-0.9624,-0.9624,-0.9624,-0.9624,-0.9624,-0.9624,-0.9624,-0.9624,-0.9624,-0.9624,-0.9624,-0.9624,-0.9624,-0.9624,-0.9624,-0.9624,-0.9624,-0.951,-0.9457,-0.9371,-0.9643,-1.0012,-1.071,-1.1067,-1.1219,-1.1811,-1.1623,-1.0246,-0.9816,-0.9519,-0.87,-0.8612,-0.8744,-0.8744,-0.8784,-0.8959,-0.9174,-0.9559,-0.9559,-0.9301,-0.9559,-0.9519,-0.9301,-0.8999,-0.9816,-1.1612,-1.3451,-1.479,-1.5305,-1.5389,-1.5389,-1.5389,-1.5389,-1.5389,-1.5389,-1.5389,-1.5389,-1.5389,-1.5389,-1.5345,-1.5265,-1.5287,-1.5243,-1.5243,-1.5126,-1.4977,-1.4882,-1.4567,-1.4187,-1.4026,-1.3931,-1.3901,-1.3667,-1.3609,-1.3543,-1.3536,-1.3514,-1.3558,-1.355,-1.3682,-1.3887,-1.4166,-1.4232,-1.435,-1.4516,-1.4531,-1.4596,-1.4494,-1.4479,-1.4501,-1.4609,-1.5291,-1.5943,-1.6589,-1.713,-1.7498,-1.8214,-1.8709,-1.8487,-0.7988,-0.7988,-0.7988,-0.7988,-0.7988,-0.8187,-0.8283,-0.8432,-0.8733,-0.9031,-0.9278,-0.943,-0.948,-0.9579,-0.9624,-0.9624,-0.9624,-0.9624,-0.9624,-0.9624,-0.9624,-0.9624,-0.9624,-0.9624,-0.9624,-0.9624,-0.9624,-0.9624,-0.9624,-0.9624,-0.9624,-0.9624,-0.9624,-0.96,-0.9518,-0.9493,-0.99,-1.0649,-1.1261,-1.1658,-1.2061,-1.2967,-1.2772,-1.0977,-1.0761,-1.0289,-0.9515,-0.8872,-0.8999,-0.9257,-0.9384,-0.9689,-1.0038,-1.0506,-1.0506,-1.0207,-1.0549,-1.0463,-1.0033,-0.9519,-0.9811,-1.1901,-1.3837,-1.518,-1.5347,-1.5389,-1.5389,-1.5389,-1.5389,-1.5389,-1.5389,-1.5389,-1.5389,-1.5389,-1.5389,-1.5389,-1.5389,-1.5389,-1.5382,-1.5316,-1.5301,-1.5214,-1.5163,-1.5138,-1.4743,-1.4399,-1.4342,-1.4218,-1.3945,-1.3755,-1.3718,-1.3616,-1.3587,-1.3506,-1.3499,-1.3587,-1.3682,-1.3945,-1.4254,-1.437,-1.4523,-1.4757,-1.4739,-1.464,-1.4596,-1.4743,-1.4837,-1.4926,-1.5329,-1.5982,-1.6151,-1.6236,-1.7072,-1.8101,-1.7876,-0.7988,-0.7988,-0.7988,-0.8038,-0.8137,-0.8333,-0.8485,-0.8684,-0.9034,-0.9331,-0.9624,-0.9624,-0.9624,-0.9624,-0.9624,-0.9624,-0.9723,-0.9916,-0.9821,-0.9871,-0.9916,-0.9821,-0.9723,-0.9624,-0.9624,-0.9624,-0.9624,-0.9624,-0.9624,-0.9624,-0.9624,-0.9624,-0.9624,-0.962,-0.9579,-0.9542,-0.9923,-1.074,-1.1531,-1.2048,-1.2412,-1.3474,-1.3626,-1.1966,-1.1714,-1.1235,-1.0544,-0.999,-0.9985,-1.0246,-1.0463,-1.0717,-1.1154,-1.1499,-1.1542,-1.1499,-1.1542,-1.1628,-1.1068,-1.0939,-1.0755,-1.2498,-1.3915,-1.4915,-1.5257,-1.5347,-1.5389,-1.5389,-1.5389,-1.5389,-1.5389,-1.5389,-1.5389,-1.5389,-1.5389,-1.5389,-1.5389,-1.5389,-1.5389,-1.5374,-1.536,-1.5345,-1.5323,-1.5292,-1.5017,-1.4677,-1.445,-1.4394,-1.4276,-1.4077,-1.3975,-1.385,-1.3718,-1.3616,-1.3521,-1.3565,-1.3638,-1.3924,-1.4136,-1.4326,-1.4516,-1.471,-1.4805,-1.467,-1.4721,-1.5006,-1.4981,-1.489,-1.5047,-1.5381,-1.5658,-1.6071,-1.61,-1.6992,-1.6952,-0.7988,-0.7988,-0.7988,-0.8134,-0.8382,-0.8432,-0.8684,-0.9084,-0.9183,-0.9381,-0.9624,-0.9673,-0.9772,-0.9772,-1.0015,-1.0162,-1.0306,-1.0788,-1.0788,-1.0404,-1.0841,-1.0547,-1.0207,-1.0015,-1.0256,-0.9723,-0.9969,-1.0162,-0.9916,-0.992,-0.9821,-0.9821,-0.9916,-0.9867,-0.9657,-0.9498,-0.9837,-1.0621,-1.1748,-1.2401,-1.3145,-1.409,-1.3698,-1.3033,-1.2485,-1.1972,-1.1451,-1.1144,-1.1101,-1.1235,-1.1483,-1.166,-1.1757,-1.24,-1.2314,-1.1757,-1.232,-1.2235,-1.1542,-1.2143,-1.2601,-1.293,-1.409,-1.4824,-1.5082,-1.5257,-1.5389,-1.5389,-1.5389,-1.5389,-1.5389,-1.5389,-1.5389,-1.5389,-1.5389,-1.5389,-1.5389,-1.5389,-1.5389,-1.5389,-1.5389,-1.5389,-1.5389,-1.5345,-1.5199,-1.4929,-1.4662,-1.4516,-1.4518,-1.4445,-1.4311,-1.4077,-1.3909,-1.3777,-1.3667,-1.3543,-1.3601,-1.385,-1.4011,-1.4136,-1.4377,-1.4626,-1.467,-1.4633,-1.486,-1.5104,-1.497,-1.4768,-1.5013,-1.5303,-1.5928,-1.625,-1.609,-1.594,-1.6064,-0.7988,-0.7988,-0.7988,-0.8237,-0.8627,-0.8676,-0.8878,-0.9187,-0.9385,-0.9529,-0.9772,-1.0306,-1.0641,-1.0788,-1.1277,-1.1521,-1.1663,-1.1809,-1.1809,-1.1712,-1.2047,-1.1999,-1.1663,-1.1419,-1.1517,-1.1614,-1.1668,-1.1521,-1.1717,-1.1033,-1.0694,-1.0641,-1.0641,-1.0694,-1.0681,-1.0794,-1.1399,-1.3125,-1.3801,-1.4044,-1.4744,-1.4838,-1.4568,-1.3763,-1.3162,-1.2643,-1.2289,-1.2155,-1.2083,-1.2266,-1.251,-1.2729,-1.2918,-1.3568,-1.3434,-1.3137,-1.3568,-1.3483,-1.3264,-1.3555,-1.3451,-1.362,-1.4006,-1.4824,-1.509,-1.5298,-1.5389,-1.5389,-1.5389,-1.5389,-1.5389,-1.5389,-1.5389,-1.5389,-1.5389,-1.5389,-1.5389,-1.5389,-1.5389,-1.5389,-1.5389,-1.5389,-1.5389,-1.5389,-1.5279,-1.5243,-1.5028,-1.4874,-1.4823,-1.4757,-1.4662,-1.4355,-1.4128,-1.3975,-1.3828,-1.3638,-1.3514,-1.3653,-1.374,-1.3799,-1.4077,-1.4465,-1.4684,-1.4743,-1.4973,-1.5206,-1.509,-1.5035,-1.5002,-1.5331,-1.5793,-1.6015,-1.579,-1.5631,-1.5631,-0.8041,-0.8137,-0.8137,-0.8432,-0.8878,-0.8829,-0.9027,-0.9331,-0.9529,-0.9624,-0.9821,-1.069,-1.117,-1.1463,-1.2145,-1.2684,-1.2732,-1.3119,-1.2823,-1.2877,-1.3119,-1.2877,-1.2732,-1.2775,-1.2441,-1.2732,-1.2732,-1.2635,-1.249,-1.1999,-1.1755,-1.1712,-1.1755,-1.1999,-1.2042,-1.2323,-1.2304,-1.3625,-1.4025,-1.4571,-1.5057,-1.5221,-1.5142,-1.4588,-1.4008,-1.3458,-1.3384,-1.3193,-1.2978,-1.333,-1.3626,-1.3844,-1.4201,-1.4292,-1.4328,-1.4334,-1.4243,-1.4201,-1.4159,-1.4075,-1.3886,-1.3704,-1.4349,-1.4734,-1.4999,-1.5215,-1.5347,-1.5389,-1.5389,-1.5389,-1.5389,-1.5389,-1.5305,-1.5305,-1.5305,-1.5305,-1.5305,-1.5305,-1.5389,-1.5389,-1.5389,-1.5389,-1.5389,-1.5389,-1.536,-1.5367,-1.536,-1.5221,-1.509,-1.5024,-1.4962,-1.4677,-1.437,-1.4179,-1.3938,-1.3667,-1.3558,-1.3499,-1.3587,-1.3704,-1.3976,-1.434,-1.4604,-1.4842,-1.5082,-1.5272,-1.5345,-1.5323,-1.5214,-1.5199,-1.5411,-1.5519,-1.5431,-1.5389,-1.5389,-0.8184,-0.8382,-0.8432,-0.8733,-0.9084,-0.8977,-0.9175,-0.9575,-0.9575,-0.9624,-0.9673,-1.0788,-1.1414,-1.156,-1.2436,-1.3017,-1.3216,-1.3998,-1.3752,-1.3505,-1.404,-1.3655,-1.336,-1.3162,-1.3403,-1.3119,-1.3119,-1.3505,-1.2926,-1.2829,-1.278,-1.2635,-1.2678,-1.3119,-1.3409,-1.3536,-1.3408,-1.4204,-1.4793,-1.5173,-1.5393,-1.5469,-1.5468,-1.5147,-1.472,-1.4519,-1.4462,-1.4491,-1.4481,-1.465,-1.4824,-1.4783,-1.4783,-1.4692,-1.4692,-1.465,-1.4482,-1.4482,-1.4356,-1.4237,-1.4237,-1.4139,-1.4475,-1.4692,-1.4866,-1.5173,-1.5347,-1.5389,-1.5389,-1.5389,-1.534,-1.5215,-1.5131,-1.5131,-1.5131,-1.5131,-1.5166,-1.5257,-1.5389,-1.5389,-1.5389,-1.5389,-1.5389,-1.5389,-1.5389,-1.5389,-1.5389,-1.5367,-1.5265,-1.5279,-1.5204,-1.5006,-1.4699,-1.4392,-1.4136,-1.3938,-1.377,-1.3718,-1.3748,-1.3895,-1.41,-1.4254,-1.4501,-1.4761,-1.5112,-1.5284,-1.5153,-1.5226,-1.5309,-1.5309,-1.5255,-1.536,-1.5389,-1.5389,-1.5389,-0.8333,-0.8432,-0.8577,-0.8878,-0.9187,-0.9331,-0.9476,-0.9575,-0.9624,-0.9624,-0.9677,-1.1468,-1.2145,-1.2436,-1.413,-1.4663,-1.4956,-1.5153,-1.5201,-1.5105,-1.501,-1.5057,-1.4908,-1.4711,-1.4854,-1.4806,-1.4813,-1.4615,-1.4669,-1.4286,-1.3318,-1.2829,-1.3559,-1.4142,-1.4573,-1.4956,-1.5123,-1.5355,-1.5792,-1.5908,-1.5881,-1.6039,-1.5948,-1.5586,-1.5021,-1.4899,-1.4943,-1.4901,-1.4832,-1.4824,-1.4957,-1.4957,-1.4734,-1.4692,-1.4692,-1.4734,-1.4741,-1.4783,-1.4475,-1.4482,-1.4489,-1.4482,-1.4608,-1.4824,-1.4999,-1.5215,-1.5389,-1.5389,-1.5389,-1.5389,-1.5257,-1.5131,-1.4999,-1.4908,-1.4957,-1.5041,-1.5082,-1.5257,-1.5347,-1.5389,-1.5389,-1.5389,-1.5389,-1.5389,-1.5389,-1.5389,-1.5389,-1.5389,-1.5389,-1.5389,-1.5352,-1.5204,-1.4915,-1.4633,-1.4567,-1.4406,-1.4174,-1.3983,-1.402,-1.3967,-1.3982,-1.415,-1.4414,-1.4728,-1.5031,-1.4984,-1.4721,-1.494,-1.5316,-1.5123,-1.5028,-1.5255,-1.5389,-1.5389,-1.5389,-0.8634,-0.8733,-0.8878,-0.913,-0.9381,-0.9529,-0.9624,-0.9624,-0.9624,-0.9772,-1.0404,-1.1955,-1.2926,-1.3553,-1.4908,-1.5683,-1.5683,-1.5635,-1.5635,-1.5635,-1.5825,-1.5683,-1.5778,-1.5825,-1.5683,-1.5825,-1.5825,-1.5534,-1.5642,-1.5302,-1.4478,-1.4184,-1.4717,-1.4962,-1.5391,-1.5872,-1.6359,-1.6574,-1.6788,-1.6937,-1.6797,-1.6579,-1.6214,-1.5857,-1.5214,-1.514,-1.5101,-1.5041,-1.5022,-1.4985,-1.5173,-1.5124,-1.4999,-1.4999,-1.4992,-1.5041,-1.5006,-1.4957,-1.4741,-1.465,-1.4699,-1.4699,-1.4783,-1.4957,-1.5131,-1.534,-1.5389,-1.5389,-1.5389,-1.5347,-1.5215,-1.5041,-1.4866,-1.4734,-1.4824,-1.4908,-1.5082,-1.5257,-1.5347,-1.5389,-1.5389,-1.5389,-1.5389,-1.5389,-1.5389,-1.5389,-1.5389,-1.5389,-1.5389,-1.5389,-1.5389,-1.5301,-1.5075,-1.482,-1.4791,-1.4757,-1.4465,-1.4284,-1.4298,-1.4247,-1.4055,-1.4238,-1.4601,-1.4798,-1.4958,-1.4874,-1.4765,-1.5072,-1.5316,-1.5109,-1.4992,-1.5262,-1.5389,-1.5389,-1.5389,-0.8981,-0.9187,-0.9232,-0.9335,-0.9579,-0.9624,-0.9673,-0.9723,-0.9821,-1.0207,-1.1077,-1.2339,-1.3318,-1.3896,-1.5153,-1.5778,-1.5825,-1.5825,-1.5825,-1.5825,-1.5825,-1.5825,-1.5825,-1.5825,-1.5825,-1.5825,-1.5825,-1.5825,-1.5825,-1.5588,-1.5493,-1.5778,-1.5737,-1.5832,-1.6069,-1.6353,-1.669,-1.6965,-1.7019,-1.703,-1.6943,-1.6756,-1.6487,-1.6216,-1.5869,-1.5654,-1.5603,-1.5581,-1.5497,-1.5487,-1.5447,-1.5462,-1.5347,-1.5548,-1.5541,-1.5458,-1.5423,-1.5249,-1.5041,-1.4866,-1.4915,-1.4957,-1.5082,-1.5124,-1.5215,-1.534,-1.5389,-1.5389,-1.5389,-1.5347,-1.5215,-1.4957,-1.4741,-1.4692,-1.4734,-1.4776,-1.4866,-1.5124,-1.5389,-1.5389,-1.5389,-1.5389,-1.5347,-1.5305,-1.4999,-1.5173,-1.5215,-1.5215,-1.5305,-1.5305,-1.5389,-1.5389,-1.5236,-1.5046,-1.4995,-1.4933,-1.4706,-1.4567,-1.4621,-1.4496,-1.4342,-1.456,-1.4878,-1.4856,-1.4831,-1.4944,-1.5035,-1.5192,-1.5284,-1.5131,-1.5109,-1.5335,-1.5389,-1.5382,-1.5389,-0.9137,-0.9187,-0.943,-0.9529,-0.9575,-0.9624,-1.006,-1.0788,-1.0837,-1.0547,-1.0551,-1.2538,-1.3607,-1.3655,-1.5153,-1.5825,-1.5825,-1.5825,-1.5825,-1.5825,-1.5825,-1.5825,-1.5825,-1.5825,-1.5825,-1.5825,-1.5825,-1.5825,-1.5825,-1.5825,-1.5825,-1.5825,-1.5933,-1.6177,-1.6447,-1.6636,-1.6824,-1.7145,-1.7113,-1.7113,-1.7153,-1.6824,-1.6534,-1.6364,-1.6123,-1.5918,-1.591,-1.5892,-1.6001,-1.6089,-1.5906,-1.5659,-1.5411,-1.5997,-1.594,-1.5665,-1.5865,-1.565,-1.5409,-1.5124,-1.5082,-1.4999,-1.4999,-1.5041,-1.5124,-1.5298,-1.5389,-1.5389,-1.5389,-1.5298,-1.5173,-1.4915,-1.4699,-1.465,-1.465,-1.4692,-1.4734,-1.5041,-1.5389,-1.5389,-1.5389,-1.5347,-1.5305,-1.5041,-1.4734,-1.465,-1.4608,-1.465,-1.4866,-1.4957,-1.5305,-1.5347,-1.5389,-1.5265,-1.524,-1.516,-1.497,-1.4948,-1.4977,-1.4801,-1.4614,-1.4633,-1.471,-1.4655,-1.4626,-1.4787,-1.4955,-1.5082,-1.5131,-1.4984,-1.5101,-1.5236,-1.5338,-1.5352,-1.5374,-0.948,-0.943,-1.0064,-1.0359,-1.0458,-1.0355,-1.0886,-1.1755,-1.1853,-1.1517,-1.1282,-1.3178,-1.4148,-1.3992,-1.5343,-1.5825,-1.5825,-1.5825,-1.5825,-1.5825,-1.5825,-1.5825,-1.5825,-1.5825,-1.5825,-1.5825,-1.5825,-1.5825,-1.5967,-1.5825,-1.5825,-1.5879,-1.6123,-1.6407,-1.6629,-1.673,-1.6918,-1.7279,-1.72,-1.72,-1.7239,-1.6918,-1.6636,-1.6465,-1.6301,-1.6149,-1.6204,-1.6202,-1.626,-1.6294,-1.6052,-1.5877,-1.5692,-1.5838,-1.6038,-1.5982,-1.6023,-1.6015,-1.5775,-1.5533,-1.5291,-1.5208,-1.5041,-1.5131,-1.5041,-1.5173,-1.5131,-1.5173,-1.5347,-1.5347,-1.5257,-1.5041,-1.4957,-1.4866,-1.4915,-1.4957,-1.5041,-1.5257,-1.5389,-1.5389,-1.5347,-1.5173,-1.5041,-1.4741,-1.4391,-1.3942,-1.3977,-1.423,-1.444,-1.4741,-1.5041,-1.5305,-1.5389,-1.5389,-1.5365,-1.5294,-1.5236,-1.5258,-1.5258,-1.5167,-1.494,-1.4662,-1.4516,-1.4626,-1.4648,-1.4582,-1.4757,-1.4904,-1.4853,-1.4684,-1.4904,-1.5133,-1.5221,-1.5309,-1.5367,-0.9871,-0.9969,-1.093,-1.1521,-1.1678,-1.1468,-1.195,-1.278,-1.2926,-1.3022,-1.3167,-1.4094,-1.4968,-1.535,-1.5825,-1.5825,-1.5825,-1.5825,-1.5825,-1.5825,-1.5825,-1.5825,-1.5825,-1.5825,-1.5967,-1.6109,-1.6157,-1.6339,-1.6567,-1.6567,-1.6527,-1.6204,-1.6258,-1.6548,-1.673,-1.6871,-1.7106,-1.7372,-1.7426,-1.7286,-1.7099,-1.6918,-1.673,-1.6595,-1.648,-1.6402,-1.6512,-1.656,-1.6559,-1.6595,-1.647,-1.6218,-1.6182,-1.6232,-1.6348,-1.6458,-1.6427,-1.6542,-1.6501,-1.6105,-1.5824,-1.559,-1.5382,-1.5257,-1.5249,-1.5159,-1.5159,-1.5367,-1.5541,-1.5506,-1.5458,-1.5458,-1.5367,-1.5208,-1.5208,-1.5173,-1.5264,-1.5389,-1.5389,-1.5389,-1.5173,-1.5006,-1.4699,-1.4433,-1.3935,-1.3476,-1.3476,-1.3766,-1.4062,-1.4482,-1.4824,-1.5173,-1.5389,-1.5389,-1.5389,-1.5382,-1.5352,-1.5352,-1.533,-1.5338,-1.5243,-1.4871,-1.4703,-1.4867,-1.4853,-1.4589,-1.4516,-1.4618,-1.4516,-1.4435,-1.4772,-1.5024,-1.5082,-1.5185,-1.5338,-1.0162,-1.0984,-1.2004,-1.2441,-1.249,-1.2436,-1.3028,-1.3908,-1.3998,-1.4436,-1.4956,-1.5201,-1.5302,-1.4675,-1.5493,-1.5784,-1.5825,-1.5825,-1.5825,-1.5825,-1.5825,-1.5825,-1.5825,-1.5825,-1.6298,-1.6629,-1.6951,-1.7458,-1.7544,-1.7816,-1.7777,-1.7138,-1.752,-1.7613,-1.7412,-1.7512,-1.7613,-1.7924,-1.7746,-1.7512,-1.7426,-1.7246,-1.6972,-1.6885,-1.6885,-1.6897,-1.6947,-1.7059,-1.7108,-1.7246,-1.7499,-1.7087,-1.6962,-1.7138,-1.7415,-1.7335,-1.7245,-1.7474,-1.7441,-1.6894,-1.6566,-1.6427,-1.6263,-1.6105,-1.6015,-1.5884,-1.6,-1.6412,-1.646,-1.6098,-1.6057,-1.6221,-1.618,-1.5816,-1.5699,-1.5416,-1.534,-1.5389,-1.5389,-1.5222,-1.5006,-1.4748,-1.4405,-1.3893,-1.3167,-1.2881,-1.2881,-1.3215,-1.3851,-1.423,-1.465,-1.4999,-1.5389,-1.5389,-1.5389,-1.5389,-1.5382,-1.5389,-1.5374,-1.5338,-1.5221,-1.5009,-1.4915,-1.4948,-1.4735,-1.4443,-1.4414,-1.4472,-1.437,-1.437,-1.4666,-1.4915,-1.4973,-1.5027,-1.5153]},{"header":{"parameterUnit":"m.s-1","parameterCategory":1,"la1":31.0,"la2":29.5877,"lo1":-88.7671,"lo2":-86.6584,"dx":0.0162,"dy":0.0185,"nx":115,"ny":88,"refTime":"2022-12-31T06:00:00:Z","depth":0,"parameterNumber":3,"parameterNumberName":"V-component_of_WINDS"},"data":[0.0,0.0,0.0,0.0,0.0,0.0,0.0,0.0,0.0,0.0,0.0,0.0,0.0,0.0,0.0,0.0,0.0,0.0,0.0,0.0,0.0,0.0,0.0,0.0,0.0,0.0,0.0,0.0,0.0,0.0,0.0,0.0,0.0,0.0,0.0,0.0,0.0,0.0,0.0,0.0,0.0,0.0,0.0,0.0,0.0,0.0,0.0,0.0,0.0,0.0,0.0,0.0,0.0,0.0,0.0,0.0,0.0,0.0,0.0,0.0,0.0,0.0,0.0,0.0,0.0,0.0,0.0,0.0,0.0,0.0,0.0,0.0,0.0,0.0,0.0,0.0,0.0,0.0,0.0,0.0,0.0,0.0,0.0,0.0,0.0,0.0,0.0,0.0,0.0,0.0,0.0,0.0,0.0,0.0,0.0,0.0,0.0,0.0,0.0,0.0,0.0,0.0,0.0,0.0,0.0,0.0,0.0,0.0,0.0,0.0,0.0,0.0,0.0,0.0,0.0,0.0,0.0,0.0,0.0,0.0,0.0,0.0,0.0,0.0,0.0,0.0,0.0,0.0,0.0,0.0,0.0,0.0,0.0,0.0,0.0,0.0,0.0,0.0,0.0,0.0,0.0,0.0,0.0,0.0,0.0,0.0,0.0,0.0,0.0,0.0,0.0,0.0,0.0,0.0,0.0,0.0,0.0,0.0,0.0,0.0,0.0,0.0,0.0,0.0,0.0,0.0,0.0,0.0,0.0,0.0,0.0,0.0,0.0,0.0,0.0,0.0,0.0,0.0,0.0,0.0,0.0,0.0,0.0,0.0,0.0,0.0,0.0,0.0,0.0,0.0,0.0,0.0,0.0,0.0,0.0,0.0,0.0,0.0,0.0,0.0,0.0,0.0,0.0,0.0,0.0,0.0,0.0,0.0,0.0,0.0,0.0,0.0,0.0,0.0,0.0,0.0,0.0,0.0,0.0,0.0,0.0,0.0,0.0,0.0,0.0,0.0,0.0,0.0,0.0,0.0,0.0,0.0,0.0,0.0,0.0,0.0,0.0,0.0,0.0,0.0,0.0,0.0,0.0,0.0,0.0,0.0,0.0,0.0,0.0,0.0,0.0,0.0,0.0,0.0,0.0,0.0,0.0,0.0,0.0,0.0,0.0,0.0,0.0,0.0,0.0,0.0,0.0,0.0,0.0,0.0,0.0,0.0,0.0,0.0,0.0,0.0,0.0,0.0,0.0,0.0,0.0,0.0,0.0,0.0,0.0,0.0,0.0,0.0,0.0,0.0,0.0,0.0,0.0,0.0,0.0,0.0,0.0,0.0,0.0,0.0,0.0,0.0,0.0,0.0,0.0,0.0,0.0,0.0,0.0,0.0,0.0,0.0,0.0,0.0,0.0,0.0,0.0,0.0,0.0,0.0,0.0,0.0,0.0,0.0,0.0,0.0,0.0,0.0,0.0,0.0,0.0,0.0,0.0,0.0,0.0,0.0,0.0,0.0,0.0,0.0,0.0,0.0,0.0,0.0,0.0,0.0,0.0,0.0,0.0,0.0,0.0,0.0,0.0,0.0,0.0,0.0,0.0,0.0,0.0,0.0,0.0,0.0,0.0,0.0,0.0,0.0,0.0,0.0,0.0,0.0,0.0,0.0,0.0,0.0,0.0,0.0,0.0,0.0,0.0,0.0,0.0,0.0,0.0,0.0,0.0,0.0,0.0,0.0,0.0,0.0,0.0,0.0,0.0,0.0,0.0,0.0,0.0,0.0,0.0,0.0,0.0,0.0,0.0,0.0,0.0,0.0,0.0,0.0,0.0,0.0,0.0,0.0,0.0,0.0,0.0,0.0,0.0,0.0,0.0,0.0,0.0,0.0,0.0,0.0,0.0,0.0,0.0,0.0,0.0,0.0,0.0,0.0,0.0,0.0,0.0,0.0,0.0,0.0,0.0,0.0,0.0,0.0,0.0,0.0,0.0,0.0,0.0,0.0,0.0,0.0,0.0,0.0,0.0,0.0,0.0,0.0,0.0,0.0,0.0,0.0,0.0,0.0,0.0,0.0,0.0,0.0,0.0,0.0,0.0,0.0,0.0,0.0,0.0,0.0,0.0,0.0,0.0,0.0,0.0,0.0,0.0,0.0,0.0,0.0,0.0,0.0,0.0,0.0,0.0,0.0,0.0,0.0,0.0,0.0,0.0,0.0,0.0,0.0,0.0,0.0,0.0,0.0,0.0,0.0,0.0,0.0,0.0,0.0,0.0,0.0,0.0,0.0,0.0,0.0,0.0,0.0,0.0,0.0,0.0,0.0,0.0,0.0,0.0,0.0,0.0,0.0,0.0,0.0,0.0,0.0,0.0,0.0,0.0,0.0,0.0,0.0,0.0,0.0,0.0,0.0,0.0,0.0,0.0,0.0,0.0,0.0,0.0,0.0,0.0,0.0,0.0,0.0,0.0,0.0,0.0,0.0,0.0,0.0,0.0,0.0,0.0,0.0,0.0,0.0,0.0,0.0,0.0,0.0,0.0,0.0,0.0,0.0,0.0,0.0,0.0,0.0,0.0,0.0,0.0,0.0,0.0,0.0,0.0,0.0,0.0,0.0,0.0,0.0,0.0,0.0,0.0,0.0,0.0,0.0,0.0,0.0,0.0,0.0,0.0,0.0,0.0,0.0,0.0,0.0,0.0,0.0,0.0,0.0,0.0,0.0,0.0,0.0,0.0,0.0,0.0,0.0,0.0,0.0,0.0,0.0,0.0,0.0,0.0,0.0,0.0,0.0,0.0,0.0,0.0,0.0,0.0,0.0,0.0,0.0,0.0,0.0,0.0,0.0,0.0,0.0,0.0,0.0,0.0,0.0,0.0,0.0,0.0,0.0,0.0,0.0,0.0,0.0,0.0,0.0,0.0,0.0,0.0,0.0,0.0,0.0,0.0,0.0,0.0,0.0,0.0,0.0,0.0,0.0,0.0,0.0,0.0,0.0,0.0,0.0,0.0,0.0,0.0,0.0,0.0,0.0,0.0,0.0,0.0,0.0,0.0,0.0,0.0,0.0,0.0,0.0,0.0,0.0,0.0,0.0,0.0,0.0,0.0,0.0,0.0,0.0,0.0,0.0,0.0,0.0,0.0,0.0,0.0,0.0,0.0,0.0,0.0,0.0,0.0,0.0,0.0,0.0,0.0,0.0,0.0,0.0,0.0,0.0,0.0,0.0,0.0,0.0,0.0,0.0,0.0,0.0,0.0,0.0,0.0,0.0,0.0,0.0,0.0,0.0,0.0,0.0,0.0,0.0,0.0,0.0,0.0,0.0,0.0,0.0,0.0,0.0,0.0,0.0,0.0,0.0,0.0,0.0,0.0,0.0,0.0,0.0,0.0,0.0,0.0,0.0,0.0,0.0,0.0,0.0,0.0,0.0,0.0,0.0,0.0,0.0,0.0,0.0,0.0,0.0,0.0,0.0,0.0,0.0,0.0,0.0,0.0,0.0,0.0,0.0,0.0,0.0,0.0,0.0,0.0,0.0,0.0,0.0,0.0,0.0,0.0,0.0,0.0,0.0,0.0,0.0,0.0,0.0,0.0,0.0,0.0,0.0,0.0,0.0,0.0,0.0,0.0,0.0,0.0,0.0,0.0,0.0,0.0,0.0,0.0,0.0,0.0,0.0,0.0,0.0,0.0,0.0,0.0,0.0,0.0,0.0,0.0,0.0,0.0,0.0,0.0,0.0,0.0,0.0,0.0,0.0,0.0,0.0,0.0,0.0,0.0,0.0,0.0,0.0,0.0,0.0,0.0,0.0,0.0,0.0,0.0,0.0,0.0,0.0,0.0,0.0,0.0,0.0,0.0,0.0,0.0,0.0,0.0,0.0,0.0,0.0,0.0,0.0,0.0,0.0,0.0,0.0,0.0,0.0,0.0,0.0,0.0,0.0,0.0,0.0,0.0,0.0,0.0,0.0,0.0,0.0,0.0,0.0,0.0,0.0,0.0,0.0,0.0,0.0,0.0,0.0,0.0,0.0,0.0,0.0,0.0,0.0,0.0,0.0,0.0,0.0,0.0,0.0,0.0,0.0,0.0,0.0,0.0,0.0,0.0,0.0,0.0,0.0,0.0,0.0,0.0,0.0,0.0,0.0,0.0,0.0,0.0,0.0,0.0,0.0,0.0,0.0,0.0,0.0,0.0,0.0,0.0,0.0,0.0,0.0,0.0,0.0,0.0,0.0,0.0,0.0,0.0,0.0,0.0,0.0,0.0,0.0,0.0,0.0,0.1295,0.0,0.0,0.0,-0.006,0.0,0.0,0.0,0.0,0.0,0.0,0.0,0.0,0.0,0.0,0.0,0.0,0.0,0.0,0.0,0.0,0.0,0.0,0.0,0.0,0.0,0.0,0.0,0.0,0.0,0.0,0.0,0.0,0.0,0.0,0.0,0.0,0.0,0.0,0.0,0.0,0.0,0.0,0.0,0.0,0.0,0.0,0.0,0.0,0.0,0.0,0.0,0.0,0.0,0.0,0.0,0.0,0.0,0.0,0.0,0.0,0.0,0.0,0.0,0.0,0.0,0.0,0.0,0.0,0.0,0.0,0.0,0.0,0.0,0.0,0.0,0.0,0.0,0.0,0.0,0.0,0.0,0.0,0.0,0.0,0.0,0.0,0.0,0.0,0.0,0.0,0.0,0.0,0.0,0.0,0.0,0.0,0.0,0.0,0.0,0.0,0.0,0.0,0.0,0.0,0.0,0.0,0.0,0.0,0.0,0.0,0.0,0.0,0.0,0.0,0.1227,0.0716,0.0067,-0.0262,-0.0225,0.0,0.0,0.0,0.0,0.0,0.0,0.0,0.0,0.0,0.0,0.0,0.0,0.0,0.0,0.0,0.0,0.0,0.0,0.0,0.0,0.0,0.0,0.0,0.0,0.0,0.0,0.0,0.0,0.0,0.0,0.0,0.0,0.0,0.0,0.0,0.0,0.0,0.0,0.0,0.0,0.0,0.0,0.0,0.0,0.0,0.0,0.0,0.0,0.0,0.0,0.0,0.0,0.0,0.0,0.0,0.0,0.0,0.0,0.0,0.0,0.0,0.0,0.0,0.0,0.0,0.0,0.0,0.0,0.0,0.0,0.0,0.0,0.0,0.0,0.0,0.0,0.0,0.0,0.0,0.0,0.0,0.0,0.0,0.0,0.0,0.0,0.0,0.0,0.0,0.0,0.0,0.0,0.0,0.0,0.0,0.0,0.0,0.0,0.0,0.0,0.0,0.0,0.0,0.0,0.0,0.0,0.0,0.0,0.0,0.0,0.0,0.0,0.0091,-0.0267,-0.0211,0.0,0.0,0.0,0.0,0.0,0.0,0.0,0.0,0.0,0.0,0.0,0.0,0.0,0.0,0.0,0.0,0.0,0.0,0.0,0.0,0.0,0.0,0.0,0.0,0.0,0.0,0.0,0.0,0.0,0.0,0.0,0.0,0.0,0.0,0.0,0.0,0.0,0.0,0.0,0.0,0.0,0.0,0.0,0.0,0.0,0.0,0.0,0.0,0.0,0.0,0.0,0.0,0.0,0.0,0.0,0.0,0.0,0.0,0.0,0.0,0.0,0.0,0.0,0.0,0.0,0.0,0.0,0.0,0.0,0.0,0.0,0.0,0.0,0.0,0.0,0.0,0.0,0.0,0.0,0.0,0.0,0.0,0.0,0.0,0.0,0.0,0.0,0.0,0.0,0.0,0.0,0.0,0.0,0.0,0.0,0.0,0.0,0.0,0.0,0.0,0.0,0.0,0.0,0.0,0.0,0.0,0.0,0.0,0.0,0.0,0.1962,0.1098,0.0558,0.0,0.0274,0.0,0.0,0.0,0.0,0.0,0.0,0.0,0.0,0.0,0.0,0.0,0.0,0.0,0.0,0.0,0.0,0.0,0.0,0.0,0.0,0.0,0.0,0.0,0.0,0.0,0.0,0.0,0.0,0.0,0.0,0.0,0.0,0.0,0.0,0.0,0.0,0.0,0.0,0.0,0.0,0.0,0.0,0.0,0.0,0.0,0.0,0.0,0.0,0.0,0.0,0.0,0.0,0.0,0.0,0.0,0.0,0.0,0.0,0.0,0.0,0.0,0.0,0.0,0.0,0.0,0.0,0.0,0.0,0.0,0.0,0.0,0.0,0.0,0.0,0.0,0.0,0.0,0.0,0.0,0.0,0.0,0.0,0.0,0.0,0.0,0.0,0.0,0.0,0.0,0.0,0.0,0.0,0.0,0.0,0.0,0.0,0.0,0.0,0.0,0.0,0.0,0.0,0.0,0.0,0.0,0.0,0.0,0.0,0.0,0.0,0.2275,0.1299,0.0534,0.0173,0.0,0.0,0.0,0.0,0.0,0.0,0.0,0.0,0.0,0.0,0.0,0.0,0.0,0.0,0.0,0.0,0.0,0.0,0.0,0.0,0.0,0.0,0.0,0.0,0.0,0.0,0.0,0.0,0.0,0.0,0.0,0.0,0.0,0.0,0.0,0.0,0.0,0.0,0.0,0.0,0.0,0.0,0.0,0.0,0.0,0.0,0.0,0.0,0.0,0.0,0.0,0.0,0.0,0.0,0.0,0.0,0.0,0.0,0.0,0.0,0.0,0.0,0.0,0.0,0.0,0.0,0.0,0.0,0.0,0.0,0.0,0.0,0.0,0.0,0.0,0.0,0.0,0.0,0.0,0.0,0.0,0.0,0.0,0.0,0.0,0.0,0.0,0.0,0.0,0.0,0.0,0.0,0.0,0.0,0.0,0.0,0.0,0.0,0.0,0.0,0.0,0.0,0.0,0.0,0.0,0.0,0.0,0.0,0.0,0.0,0.3322,0.2511,0.1362,0.0542,0.0145,0.016,0.0,0.0,0.0,0.0,0.0,0.0,0.0,0.0,0.0,0.0,0.0,0.0,0.0,0.0,0.0,0.0,0.0,0.0,0.0,0.0,0.0,0.0,0.0,0.0,0.0,0.0,0.0,0.0,0.0,0.0,0.0,0.0,0.0,0.0,0.0,0.0,0.0,0.0,0.0,0.0,0.0,0.0,0.0,0.0,0.0,0.0,0.0,0.0,0.0,0.0,0.0,0.0,0.0,0.0,0.0,0.0,0.0,0.0,0.0,0.0,0.0,0.0,0.0,0.0,0.0,0.0,0.0,0.0,0.0,0.0,0.0,0.0,0.0,0.0,0.0,0.0,0.0,0.0,0.0,0.0,0.0,0.0,0.0,0.0,0.0,0.0,0.0,0.0,0.0,0.0,0.0,0.0,0.0,0.0,0.0,0.0,0.0,0.0,0.0,0.0,0.0,0.0,0.0,0.0,0.0,0.0,0.0,0.0,0.4254,0.3807,0.2793,0.1182,0.0704,0.04,0.0,0.0,0.0,0.0,0.0,0.0,0.0,0.0,0.0,0.0,0.0,0.0,0.0,0.0,0.0,0.0,0.0,0.0,0.0,0.0,0.0,0.0,0.0,0.0,0.0,0.0,0.0,0.0,0.0,0.0,0.0,0.0,0.0,0.0,0.0,0.0,0.0,0.0,0.0,0.0,0.0,0.0,0.0,0.0,0.0,0.0,0.0,0.0,0.0,0.0,0.0,0.0,0.0,0.0,0.0,0.0,0.0,0.0,0.0,0.0,0.0,0.0,0.0,0.0,0.0,0.0,0.0,0.0,0.0,0.0,0.0,0.0,0.0,0.0,0.0,0.0,0.0,0.0,0.0,0.0,0.0,0.0,0.0,0.0,0.0,0.0,0.0,0.0,0.0,0.0,0.0,0.0,0.0,0.0,0.0,0.0,0.0,0.0,0.0,0.0,0.0,0.0,0.0,0.0,0.0,0.0,0.0,0.0,0.0,0.4272,0.3388,0.2438,0.1516,0.1008,0.0654,0.0,0.0,0.0,0.0,0.0,0.0,0.0,0.0,0.0,0.0,0.0,0.0,0.0,0.0,0.0,0.0,0.0,0.0,0.0,0.0,0.0,0.0,0.0,0.0,0.0,0.0,0.0,0.0,0.0,0.0,0.0,0.0,0.0,0.0,0.0,0.0,0.0,0.0,0.0,0.0,0.0,0.0,0.0,0.0,0.0,0.0,0.0,0.0,0.0,0.0,0.0,0.0,0.0,0.0,0.0,0.0,0.0,0.0,0.0,0.0,0.0,0.0,0.0,0.0,0.0,0.0,0.0,0.0,0.0,0.0,0.0,0.0,0.0,0.0,0.0,0.0,0.0,0.0,0.0,0.0,0.0,0.0,0.0,0.0,0.0,0.0,0.0,0.0,0.0,0.0,0.0,0.0,0.0,0.0,0.0,0.0,0.0,0.0,0.0,0.0,0.0,0.0,0.0,0.0,0.0,0.0,0.0,0.0,0.0,0.4298,0.3501,0.2653,0.17,0.1231,0.083,0.0,0.0,0.0,0.0,0.0,0.0,0.0,0.0,0.0,0.0,0.0,0.0,0.0,0.0,0.0,0.0,0.0,0.0,0.0,0.0,0.0,0.0,0.0,0.0,0.0,0.0,0.0,0.0,0.0,0.0,0.0,0.0,0.0,0.0,0.0,0.0,0.0,0.0,0.0,0.0,0.0,0.0,0.0,0.0,0.0,0.0,0.0,0.0,0.0,0.0,0.0,0.0,0.0,0.0,0.0,0.0,0.0,0.0,0.0,0.0,0.0,0.0,0.0,0.0,0.0,0.0,0.0,0.0,0.0,0.0,0.0,0.0,0.0,0.0,0.0,0.0,0.0,0.0,0.0,0.0,0.0,0.0,0.0,0.0,0.0,0.0,0.0,0.0,0.0,0.0,0.0,0.0,0.0,0.0,0.0,0.0,0.0,0.0,0.0,0.0,0.0,0.0,0.0,0.0,0.0,0.0,0.0,0.0,0.5229,0.4354,0.4246,0.3348,0.1665,0.1333,0.0946,0.0,0.0,0.0,0.0,0.0,0.0,0.0,0.0,0.0,0.0,0.0,0.0,0.0,0.0,0.0,0.0,0.0,0.0,0.0,0.0,0.0,0.0,0.0,0.0,0.0,0.0,0.0,0.0,0.0,0.0,0.0,0.0,0.0,0.0,0.0,0.0,0.0,0.0,0.0,0.0,0.0,0.0,0.0,0.0,0.0,0.0,0.0,0.0,0.0,0.0,0.0,0.0,0.0,0.0,0.0,0.0,0.0,0.0,0.0,0.0,0.0,0.0,0.0,0.0,0.0,0.0,0.0,0.0,0.0,0.0,0.0,0.0,0.0,0.0,0.0,0.0,0.0,0.0,0.0,0.0,0.0,0.0,0.0,0.0,0.0,0.0,0.0,0.0,0.0,0.0,0.0,0.0,0.0,0.0,0.0,0.0,0.0,0.0,0.0,0.0,0.0,0.0,0.0,0.0,0.0,0.0,0.0,0.0,0.0,0.4328,0.3656,0.2843,0.1837,0.1286,0.0912,0.0,0.0,0.0,0.0,0.0,0.0,0.0,0.0,0.0,0.0,0.0,0.0,0.0,0.0,0.0,0.0,0.0,0.0,0.0,0.0,0.0,0.0,0.0,0.0,0.0,0.0,0.0,0.0,0.0,0.0,0.0,0.0,0.0,0.0,0.0,0.0,0.0,0.0,0.0,0.0,0.0,0.0,0.0,0.0,0.0,0.0,0.0,0.0,0.0,0.0,0.0,0.0,0.0,0.0,0.0,0.0,0.0,0.0,0.0,0.0,0.0,0.0,0.0,0.0,0.0,0.0,0.0,0.0,0.0,0.0,0.0,0.0,0.0,0.0,0.0,0.0,0.0,0.0,0.0,0.0,0.0,0.0,0.0,0.0,0.0,0.0,0.0,0.0,0.0,0.0,0.0,0.0,0.0,0.0,0.0,0.0,0.0,0.0,0.0,0.0,0.0,0.0,0.0,0.0,0.0,0.0,0.0,0.0,0.0,0.4615,0.3758,0.2907,0.2119,0.1424,0.0984,0.0855,0.0,0.0,0.0,0.0,0.0,0.0,0.0,0.0,0.0,0.0,0.0,0.0,0.0,0.0,0.0,0.0,0.0,0.0,0.0,0.0,0.0,0.0,0.0,0.0,0.0,0.0,0.0,0.0,0.0,0.0,0.0,0.0,0.0,0.0,0.0,0.0,0.0,0.0,0.0,0.0,0.0,0.0,0.0,0.0,0.0,0.0,0.0,0.0,0.0,0.0,0.0,0.0,0.0,0.0,0.0,0.0,0.0,0.0,0.0,0.0,0.0,0.0,0.0,0.0,0.0,0.0,0.0,0.0,0.0,0.0,0.0,0.0,0.0,0.0,0.0,0.0,0.0,0.0,0.0,0.0,0.0,0.0,0.0,0.0,0.0,0.0,0.0,0.0,0.0,0.0,0.0,0.0,0.0,0.0,0.0,0.0,0.0,0.0,0.0,0.0,0.0,0.0,0.0,0.0,0.0,0.0,0.0,0.0,0.5171,0.4416,0.3485,0.2431,0.1715,0.1174,0.0,0.0,0.0,0.0,0.0,0.0,0.0,0.0,0.0,0.0,0.0,0.0,0.0,0.0,0.0,0.0,0.0,0.0,0.0,0.0,0.0,0.0,0.0,0.0,0.0,0.0,0.0,0.0,0.0,0.0,0.0,0.0,0.0,0.0,0.0,0.0,0.0,0.0,0.0,0.0,0.0,0.0,0.0,0.0,0.0,0.0,0.0,0.0,0.0,0.0,0.0,0.0,0.0,0.0,0.0,0.0,0.0,0.0,0.0,0.0,0.0,0.0,0.0,0.0,0.0,0.0,0.0,0.0,0.0,0.0,0.0,0.0,0.0,0.0,0.0,0.0,0.0,0.0,0.0,0.0,0.0,0.0,0.0,0.0,0.0,0.0,0.0,0.0,0.0,0.0,0.0,0.0,0.0,0.0,0.0,0.0,0.0,0.0,0.0,0.0,0.0,0.0,0.0,0.0,0.0,0.0,0.0,0.0,0.0,0.5801,0.4772,0.371,0.2663,0.2055,0.1547,0.0,0.0,0.0,0.0,0.0,0.0,0.0,0.0,0.0,0.0,0.0,0.0,0.0,0.0,0.0,0.0,0.0,0.0,0.0,0.0,0.0,0.0,0.0,0.0,0.0,0.0,0.0,0.0,0.0,0.0,0.0,0.0,0.0,0.0,0.0,0.0,0.0,0.0,0.0,0.0,0.0,0.0,0.0,0.0,0.0,0.0,0.0,0.0,0.0,0.0,0.0,0.0,0.0,0.0,0.0,0.0,0.0,0.0,0.0,0.0,0.0,0.0,0.0,0.0,0.0,0.0,0.0,0.0,0.0,0.0,0.0,0.0,0.0,0.0,0.0,0.0,0.0,0.0,0.0,0.0,0.0,0.0,0.0,0.0,0.0,0.0,0.0,0.0,0.0,0.0,0.0,0.0,0.0,0.0,0.0,0.0,0.0,0.0,0.0,0.0,0.0,0.0,0.0,0.0,0.0,0.0,0.0,0.0,0.5913,0.6164,0.5234,0.4194,0.3157,0.2461,0.1852,0.0,0.0,0.0,0.0,0.0,0.0,0.0,0.0,0.0,0.0,0.0,0.0,0.0,0.0,0.0,0.0,0.0,0.0,0.0,0.0,0.0,0.0,0.0,0.0,0.0,0.0,0.0,0.0,0.0,0.0,0.0,0.0,0.0,0.0,0.0,0.0,0.0,0.0,0.0,0.0,0.0,0.0,0.0,0.0,0.0,0.0,0.0,0.0,0.0,0.0,0.0,0.0,0.0,0.0,0.0,0.0,0.0,0.0,0.0,0.0,0.0,0.0,0.0,0.0,0.0,0.0,0.0,0.0,0.0,0.0,0.0,0.0,0.0,0.0,0.0,0.0,0.0,0.0,0.0,0.0,0.0,0.0,0.0,0.0,0.0,0.0,0.0,0.0,0.0,0.0,0.0,0.0,0.0,0.0,0.0,0.0,0.0,0.0,0.0,0.0,0.0,0.0,0.0,0.0,0.0,0.0,0.0,0.0,0.6157,0.638,0.5747,0.4906,0.3837,0.2968,0.2186,0.0,0.0,0.0,0.0,0.0,0.0,0.0,0.0,0.0,0.0,0.0,0.0,0.0,0.0,0.0,0.0,0.0,0.0,0.0,0.0,0.0,0.0,0.0,0.0,0.0,0.0,0.0,0.0,0.0,0.0,0.0,0.0,0.0,0.0,0.0,0.0,0.0,0.0,0.0,0.0,0.0,0.0,0.0,0.0,0.0,0.0,0.0,0.0,0.0,0.0,0.0,0.0,0.0,0.0,0.0,0.0,0.0,0.0,0.0,0.0,0.0,0.0,0.0,0.0,0.0,0.0,0.0,0.0,0.0,0.0,0.0,0.0,0.0,0.0,0.0,0.0,0.0,0.0,0.0,0.0,0.0,0.0,0.0,0.0,0.0,0.0,0.0,0.0,0.0,0.0,0.0,0.0,0.0,0.0,0.0,0.0,0.0,0.0,0.0,0.0,0.0,0.0,0.0,0.0,0.0,0.0,0.0,0.0,0.7135,0.6929,0.6494,0.5696,0.4528,0.3791,0.2861,0.0,0.0,0.0,0.0,0.0,0.0,0.0,0.0,0.0,0.0,0.0,0.0,0.0,0.0,0.0,0.0,0.0,0.0,0.0,0.0,0.0,0.0,0.0,0.0,0.0,0.0,0.0,0.0,0.0,0.0,0.0,0.0,0.0,0.0,0.0,0.0,0.0,0.0,0.0,0.0,0.0,0.0,0.0,0.0,0.0,0.0,0.0,0.0,0.4498,0.0,0.0,0.0,0.0,0.0,0.0,0.0,0.0,0.0,0.0,0.0,0.0,0.0,0.0,0.0,0.0,0.0,0.0,0.0,0.0,0.0,0.0,0.0,0.0,0.0,0.0,0.0,0.0,0.0,0.0,0.0,0.0,0.0,0.0,0.0,0.0,0.0,0.0,0.0,0.0,0.0,0.0,0.0,0.0,0.0,0.0,0.0,0.0,0.0,0.0,0.0,0.0,0.0,0.0,0.0,0.0,0.0,0.0,0.0,0.7594,0.74,0.6847,0.6047,0.4995,0.4353,0.3482,0.0,0.0,0.0,0.0,0.0,0.0,0.0,0.0,0.0,0.0,0.0,0.0,0.0,0.0,0.0,0.0,0.0,0.0,0.0,0.0,0.0,0.0,0.0,0.0,0.0,0.0,0.0,0.0,0.0,0.0,0.0,0.0,0.0,0.0,0.0,0.0,0.0,0.0,0.0,0.0,0.0,0.0,0.0,0.0,0.0,0.0,0.0,0.0,0.0,0.0,0.0,0.0,0.0,0.0,0.0,0.0,0.0,0.0,0.0,0.0,0.0,0.0,0.0,0.0,0.0,0.0,0.0,0.0,0.0,0.0,0.0,0.0,0.0,0.0,0.0,0.0,0.0,0.0,0.0,0.0,0.0,0.0,0.0,0.0,0.0,0.0,0.0,0.0,0.0,0.0,0.0,0.0,0.0,0.0,0.0,0.0,0.0,0.0,0.0,0.0,0.0,0.0,0.0,0.0,0.0,0.0,0.0,0.842,0.7909,0.7767,0.7132,0.6365,0.5486,0.4798,0.4113,0.336,0.0,0.0,0.0,0.0,0.0,0.0,0.0,0.0,0.0,0.0,0.0,0.0,0.0,0.0,0.0,0.0,0.0,0.0,0.0,0.0,0.0,0.0,0.0,0.0,0.0,0.0,0.0,0.0,0.0,0.0,0.0,0.0,0.0,0.0,0.0,0.0,0.0,0.0,0.7383,0.7215,0.0,0.0,0.0,0.0,0.0,0.0,0.0,0.0,0.4373,0.0,0.0,0.0,0.0,0.0,0.0,0.0,0.0,0.0,0.0,0.0,0.0,0.0,0.0,0.0,0.0,0.0,0.0,0.0,0.0,0.0,0.0,0.0,0.0,0.0,0.0,0.0,0.0,0.0,0.0,0.0,0.0,0.0,0.0,0.0,0.0,0.0,0.0,0.0,0.0,0.0,0.0,0.0,0.0,0.0,0.0,0.0,0.0,0.0,0.0,0.0,0.0,0.0,0.0,0.0,0.0,0.9768,0.9344,0.8652,0.7761,0.7649,0.7131,0.6149,0.5169,0.4596,0.4369,0.0,0.0,0.0,0.0,0.0,0.0,0.0,0.0,0.0,0.0,0.0,0.0,0.0,0.0,0.0,0.0,0.0,0.0,0.0,0.0,0.0,0.0,0.0,0.0,0.0,0.0,0.0,0.0,0.0,0.0,0.0,0.0,0.0,0.0,0.0,0.0,0.0,0.0,0.0,0.7866,0.7285,0.0,0.0,0.0,0.0,0.0,0.0,0.0,0.0,0.4191,0.0,0.0,0.0,0.0,0.0,0.0,0.0,0.0,0.0,0.0,0.0,0.0,0.0,0.0,0.0,0.0,0.0,0.0,0.0,0.0,0.0,0.0,0.0,0.0,0.0,0.0,0.0,0.0,0.0,0.0,0.0,0.0,0.0,0.0,0.0,0.0,0.0,0.0,0.0,0.0,0.0,0.0,0.0,0.0,0.0,0.0,0.0,0.0,0.0,0.0,0.0,0.0,0.0,0.0,0.0,1.0185,1.0265,0.9789,0.8754,0.8251,0.7693,0.7041,0.5823,0.5104,0.0,0.0,0.0,0.0,0.0,0.0,0.0,0.0,0.0,0.0,0.0,0.0,0.0,0.0,0.0,0.0,0.0,0.0,0.0,0.0,0.0,0.0,0.0,0.0,0.0,0.0,0.0,0.0,0.0,0.0,0.0,0.0,0.0,0.0,0.0,0.0,0.0,0.0,0.0,0.0,0.9077,0.8646,0.8666,0.0,0.0,0.0,0.0,0.0,0.0,0.5209,0.4536,0.0,0.0,0.0,0.0,0.0,0.0,0.0,0.0,0.0,0.0,0.0,0.0,0.0,0.0,0.0,0.0,0.0,0.0,0.0,0.0,0.0,0.0,0.0,0.0,0.0,0.0,0.0,0.0,0.0,0.0,0.0,0.0,0.0,0.0,0.0,0.0,0.0,0.0,0.0,0.0,0.0,0.0,0.0,0.0,0.0,0.0,0.0,0.0,0.0,0.0,0.0,0.0,0.0,0.0,0.0,1.0762,1.1178,1.0926,0.9907,0.9045,0.8329,0.7795,0.6431,0.5588,0.0,0.0,0.0,0.0,0.0,0.0,0.0,0.0,0.0,0.0,0.0,0.0,0.0,0.0,0.0,0.0,0.0,0.0,0.0,0.0,0.0,0.0,0.0,0.0,0.0,0.0,0.0,0.0,0.0,0.0,0.0,0.0,0.0,0.0,0.0,0.0,0.0,0.0,0.0,0.0,0.0,1.0098,1.0243,0.9241,0.0,0.0,0.0,0.0,0.657,0.5893,0.0,0.0,0.0,0.0,0.0,0.0,0.0,0.0,0.0,0.0,0.0,0.0,0.0,0.0,0.0,0.0,0.0,0.0,0.0,0.0,0.0,0.0,0.0,0.0,0.0,0.0,0.0,0.0,0.0,0.0,0.0,0.0,0.0,0.0,0.0,0.0,0.0,0.0,0.0,0.0,0.0,0.0,0.0,0.0,0.0,0.0,0.0,0.0,0.0,0.0,0.0,0.0,0.0,0.0,0.0,0.0,1.1575,1.2184,1.1897,1.0628,1.0062,0.9259,0.8164,0.6719,0.5789,0.0,0.0,0.0,0.0,0.0,0.0,0.0,0.0,0.0,0.0,0.0,0.0,0.0,0.0,0.0,0.0,0.0,0.0,0.0,0.0,0.0,0.0,0.0,0.0,0.0,0.0,0.0,0.0,0.0,0.0,0.0,0.0,0.0,0.0,0.0,0.0,0.0,0.0,0.0,0.0,0.0,1.0887,1.0313,0.9945,0.9529,0.0,0.0,0.7957,0.8304,0.7624,0.0,0.0,0.0,0.0,0.0,0.0,0.0,0.0,0.0,0.0,0.0,0.0,0.0,0.0,0.0,0.0,0.0,0.0,0.0,0.0,0.0,0.0,0.0,0.0,0.0,0.0,0.0,0.0,0.0,0.0,0.0,0.0,0.0,0.0,0.0,0.0,0.0,0.0,0.0,0.0,0.0,0.0,0.0,0.0,0.0,0.0,0.0,0.0,0.0,0.0,0.0,0.0,0.0,0.0,0.0,1.2507,1.2158,1.3323,1.3133,1.1521,1.0982,1.0127,0.8844,0.7832,0.6885,0.0,0.0,0.0,0.0,0.0,0.0,0.0,0.0,0.0,0.0,0.0,0.0,0.0,0.0,0.0,0.0,0.0,0.0,0.0,0.0,0.0,0.0,0.0,0.0,0.0,0.0,0.0,0.0,0.0,0.0,0.0,0.0,0.0,0.0,0.0,0.0,0.0,0.0,0.0,0.0,0.0,0.0,1.1196,1.1014,0.0,0.0,0.0,0.8734,0.8555,0.0,0.0,0.0,0.0,0.0,0.0,0.0,0.0,0.0,0.0,0.0,0.0,0.0,0.0,0.0,0.0,0.0,0.0,0.0,0.0,0.0,0.0,0.0,0.0,0.0,0.0,0.0,0.0,0.0,0.0,0.0,0.0,0.0,0.0,0.0,0.0,0.0,0.0,0.0,0.0,0.0,0.0,0.0,0.0,0.0,0.0,0.0,0.0,0.0,0.0,0.0,0.0,0.0,0.0,0.0,0.0,0.0,1.3124,1.4733,1.467,1.2798,1.2055,1.1173,0.9991,0.9118,0.0,0.0,0.0,0.0,0.0,0.0,0.0,0.0,0.0,0.0,0.0,0.0,0.0,0.0,0.0,0.0,0.0,0.0,0.0,0.0,0.0,0.0,0.0,0.0,0.0,0.0,0.0,0.7795,0.0,0.0,0.0,0.0,0.0,0.0,0.0,0.0,0.0,0.0,0.0,0.0,0.0,0.0,1.2274,1.1989,1.2032,1.1827,0.0,0.0,0.954,0.9011,0.8992,0.8523,0.0,0.0,0.0,0.0,0.0,0.0,0.0,0.0,0.0,0.0,0.0,0.0,0.0,0.0,0.0,0.0,0.0,0.0,0.0,0.0,0.0,0.0,0.0,0.0,0.0,0.0,0.0,0.0,0.0,0.0,0.0,0.0,0.0,0.0,0.0,0.0,0.0,0.0,0.0,0.0,0.0,0.0,0.0,0.0,0.0,0.0,0.0,0.0,0.0,0.0,0.0,0.0,0.0,0.0,1.5345,1.4982,1.6571,1.653,1.4738,1.3515,1.2562,1.1813,1.0394,0.9118,0.0,0.0,0.0,0.0,0.0,0.0,0.0,0.0,0.0,0.0,0.0,0.0,0.0,0.0,0.0,0.0,0.0,0.0,0.0,0.0,0.0,0.0,0.0,0.0,0.0,0.0,0.0,0.0,0.0,0.0,0.0,0.0,0.0,0.0,0.0,0.0,0.0,0.0,0.0,0.0,0.0,1.3303,1.2244,1.2811,1.3048,0.0,1.1146,1.0475,1.0385,1.0501,0.9876,0.7687,0.0,0.0,0.0,0.0,0.0,0.0,0.0,0.0,0.0,0.0,0.0,0.0,0.0,0.0,0.0,0.0,0.0,0.0,0.0,0.0,0.0,0.0,0.0,0.0,0.0,0.0,0.0,0.0,0.0,0.0,0.0,0.0,0.0,0.0,0.0,0.0,0.0,0.0,0.0,0.0,0.0,0.0,0.0,0.0,0.0,0.0,0.0,0.0,0.0,0.0,0.0,0.0,0.0,1.6257,1.6166,1.7478,1.745,1.5999,1.4909,1.3849,1.2777,1.1826,1.0732,0.0,0.0,0.0,0.0,0.0,0.0,0.0,0.0,0.0,0.0,0.0,0.0,0.0,0.0,0.0,0.0,0.0,0.0,0.0,0.0,0.0,0.0,0.0,0.0,0.0,0.0,0.0,0.0,1.1083,1.1313,1.1382,0.0,0.0,0.0,0.0,0.0,0.0,0.0,0.0,0.0,0.0,1.3558,1.3255,1.3553,0.0,0.0,1.1997,1.1329,1.0755,1.0867,1.0335,0.8439,0.8213,0.0,0.0,0.0,0.0,0.0,0.0,0.0,0.0,0.0,0.0,0.0,0.0,0.0,0.0,0.0,0.0,0.0,0.0,0.0,0.0,0.0,0.0,0.0,0.0,0.0,0.0,0.0,0.0,0.0,0.0,0.0,0.0,0.0,0.0,0.0,0.0,0.0,0.0,0.0,0.0,0.0,0.0,0.0,0.0,0.0,0.0,0.0,0.0,0.0,0.0,0.0,0.0,1.7145,1.7167,1.8604,1.8594,1.7082,1.6225,1.5165,1.3909,1.3338,1.2446,0.0,0.0,0.0,0.0,0.0,0.0,0.0,0.0,0.0,0.0,0.0,0.0,0.0,0.0,0.0,0.0,0.0,0.0,0.0,0.0,0.0,0.0,0.0,0.0,0.0,0.0,0.0,0.0,1.1941,1.1995,1.1326,0.0,0.0,0.0,0.0,0.0,0.0,0.0,0.0,0.0,0.0,1.4118,1.3979,1.4048,1.3914,1.3191,1.2536,1.181,1.0964,1.0981,1.0604,0.9181,0.0,0.0,0.0,0.0,0.0,0.0,0.0,0.0,0.0,0.0,0.0,0.0,0.0,0.0,0.0,0.0,0.0,0.0,0.0,0.0,0.0,0.0,0.0,0.0,0.0,0.0,0.0,1.4526,0.0,0.0,1.4297,0.0,0.0,0.0,0.0,0.0,0.0,0.0,0.0,0.0,0.0,0.0,0.0,0.0,0.0,0.0,0.0,0.0,0.0,0.0,0.0,0.0,0.0,1.8093,1.8027,2.0169,2.0264,1.8173,1.7414,1.6541,1.541,1.4904,1.4306,1.3475,0.0,0.0,0.0,0.0,0.0,0.0,0.0,0.0,0.0,0.0,0.0,0.0,0.0,0.0,0.0,0.0,0.0,0.0,0.0,0.0,0.0,0.0,0.0,0.0,0.0,0.0,1.1928,1.2468,1.2344,0.0,0.0,0.0,0.0,0.0,0.0,0.0,0.0,0.0,1.2821,1.4365,1.5127,1.4251,1.4329,1.4204,1.3433,1.2658,1.1851,1.1053,1.1017,1.0775,0.0,0.0,0.0,0.0,0.0,0.0,0.0,0.0,0.0,0.0,0.0,0.0,0.0,0.0,0.0,0.0,0.0,0.0,0.0,0.0,0.0,0.0,0.0,0.0,0.0,0.0,0.0,1.6845,1.7376,0.0,0.0,0.0,0.0,0.0,0.0,0.0,0.0,0.0,0.0,0.0,1.8914,1.8616,0.0,0.0,0.0,0.0,0.0,0.0,0.0,0.0,0.0,0.0,0.0,0.0,1.8776,1.9419,2.0927,2.1362,2.0633,1.9218,1.817,1.7464,1.6473,1.5283,1.3827,0.0,0.0,0.0,0.0,0.0,0.0,0.0,0.0,0.0,0.0,0.0,0.0,0.0,0.0,0.0,0.0,0.0,0.0,0.0,0.0,0.0,0.0,0.0,0.0,0.0,1.1776,0.0,0.0,0.0,0.0,0.0,0.0,0.0,0.0,0.0,0.0,1.3108,1.4082,1.4683,1.493,1.5023,1.4976,1.478,1.4573,0.0,0.0,0.0,0.0,0.0,0.0,0.0,0.0,0.0,0.0,0.0,0.0,0.0,0.9002,0.8636,0.793,0.7892,0.7848,0.7484,0.0,0.0,0.0,0.0,0.0,0.0,0.0,0.0,0.0,0.0,0.0,0.0,0.0,0.0,1.9532,1.9822,1.9127,0.0,0.0,0.0,0.0,0.0,0.0,0.0,0.0,2.0088,2.0464,2.1011,2.0678,2.0532,2.0489,1.9503,1.7879,0.0,0.0,0.0,0.0,0.0,0.0,0.0,0.0,1.9642,2.072,2.1901,2.2284,2.1856,2.0742,1.9802,1.9097,1.8126,1.6867,1.5312,1.4434,1.3356,0.0,0.0,0.0,0.0,0.0,0.0,0.0,0.0,0.0,0.0,0.0,0.0,0.0,0.0,0.0,0.0,0.0,0.0,0.0,0.0,0.0,0.0,0.0,1.3006,0.0,0.0,0.0,0.0,0.0,0.0,0.0,0.0,0.0,1.3717,1.4755,1.5609,1.5843,1.5639,1.5426,1.532,0.0,0.0,0.0,0.0,0.0,0.0,0.0,1.2011,1.1586,1.1707,1.1718,1.1332,1.108,1.0928,1.0867,0.0,0.0,0.954,0.939,0.9373,0.898,0.8864,0.8685,0.8196,0.8603,0.8966,0.0,0.0,0.0,0.0,2.1162,0.0,0.0,0.0,2.2496,2.204,0.0,2.2111,0.0,0.0,0.0,0.0,2.1143,2.0809,0.0,0.0,2.2942,2.2754,2.2353,2.2273,2.2216,2.2142,2.1228,2.074,2.0633,1.9924,1.9128,0.0,0.0,0.0,0.0,0.0,2.0715,2.199,2.3085,2.3128,2.2106,2.1964,2.136,2.0274,1.9755,1.9004,1.7934,1.7082,1.6093,1.4818,1.2889,0.0,0.0,0.0,0.0,0.0,0.0,0.0,0.0,0.0,0.0,0.0,0.0,0.0,0.0,0.0,0.0,0.0,0.0,0.0,0.0,1.4723,0.0,0.0,0.0,0.0,0.0,0.0,0.0,0.0,0.0,1.679,1.5767,1.6397,1.6784,1.637,0.0,0.0,0.0,0.0,1.4895,1.4662,1.4438,1.4132,1.3568,1.3507,1.3603,1.378,0.0,0.0,1.3618,1.2946,1.2404,1.2248,1.2811,1.278,1.1274,1.0949,1.086,1.0871,1.1011,1.0931,1.0452,1.0635,1.0854,2.5191,0.0,0.0,0.0,0.0,2.4097,2.453,2.5331,2.5155,2.5035,2.4954,2.4582,0.0,0.0,0.0,0.0,0.0,0.0,2.4108,2.4922,2.5058,2.4984,2.4754,2.4754,2.4735,2.4719,2.4097,2.4237,2.504,2.4932,2.272,1.8621,0.0,0.0,0.0,0.0,2.2503,2.3716,2.4409,2.4573,2.4245,2.3266,2.2189,2.1091,2.0585,2.0192,1.9872,1.9138,1.818,1.6983,1.5988,0.0,0.0,0.0,0.0,0.0,0.0,0.0,0.0,0.0,0.0,0.0,0.0,0.0,0.0,0.0,0.0,0.0,0.0,0.0,1.3275,1.5865,1.6832,0.0,0.0,0.0,0.0,0.0,0.0,0.0,0.0,0.0,1.894,1.8631,1.827,0.0,0.0,1.6682,1.6052,1.6282,1.6545,1.6587,1.6611,0.0,1.6336,1.5463,1.4784,1.4804,1.4829,1.4907,1.5176,1.4907,1.464,1.4592,1.4687,1.461,1.4193,1.3465,1.3005,1.2933,1.2638,1.2401,1.2351,1.2286,1.2301,2.8734,2.7646,2.6356,2.6149,2.6709,2.6989,2.7571,2.8341,2.8634,2.858,2.8243,2.815,2.7497,2.636,2.5903,0.0,0.0,0.0,2.648,2.6766,2.6488,2.6189,2.5906,2.5819,2.5784,2.5768,2.5255,2.5489,2.6483,2.6543,2.4888,2.1655,0.0,2.3075,2.2692,2.3636,2.454,2.5389,2.5721,2.5808,2.5591,2.4769,2.3872,2.2949,2.2426,2.2058,2.1774,2.1146,2.0266,1.9164,1.8604,1.7629,0.0,0.0,0.0,0.0,0.0,0.0,0.0,0.0,0.0,0.0,0.0,1.3418,1.3077,0.0,0.0,0.0,1.5569,1.5518,1.5786,1.7843,0.0,0.0,0.0,0.0,0.0,0.0,0.0,1.9535,2.0034,2.0615,2.1334,2.1094,2.0549,1.9609,1.8482,1.7618,1.7179,0.0,1.7543,1.7568,1.7824,1.7993,1.7824,1.7231,1.668,1.6396,1.6158,1.6024,1.6132,1.595,1.5738,1.5709,1.5661,1.5671,1.5845,1.5347,1.483,1.4506,1.4119,1.3867,1.3979,1.3755,1.3689,3.1791,3.211,2.8471,2.7724,2.8999,2.9671,3.0566,3.1593,3.226,3.2106,3.1446,3.2144,3.1461,2.9683,2.9259,0.0,2.9981,2.9206,2.8829,2.8677,2.7848,2.7098,2.6421,2.6354,2.6201,2.6068,2.544,2.5455,2.6046,2.6099,2.6147,2.6292,2.7274,2.7336,2.6562,2.6535,2.6691,2.7023,2.7011,2.6766,2.6265,2.624,2.5915,2.5273,2.48,2.4233,2.3661,2.3042,2.2304,2.1397,2.0798,2.007,1.9132,0.0,0.0,0.0,0.0,0.0,0.0,0.0,0.0,0.0,0.0,0.0,0.0,0.0,0.0,1.8357,1.9916,0.0,2.045,2.0342,0.0,0.0,0.0,2.0419,2.1816,2.1903,2.206,2.254,0.0,0.0,2.3098,2.347,2.3151,2.1641,2.0182,1.9121,1.8731,1.8616,1.8365,1.837,1.8684,1.896,1.8991,1.903,1.8908,1.8379,1.7938,1.7551,1.7155,1.6746,1.636,1.6487,1.6321,1.6485,1.6885,1.7002,1.6704,1.6071,1.5594,1.5371,1.5524,1.538,1.5177,3.349,3.3576,3.2644,3.2454,3.2777,3.2948,3.2985,3.2955,3.3106,3.3068,3.2896,3.3081,3.3072,3.2926,3.2518,3.277,3.3466,3.2967,3.2564,3.2281,3.2353,3.1512,3.0005,3.0232,2.9693,2.8506,2.8295,2.8148,2.8023,2.8195,2.8724,2.9467,2.9987,2.9296,2.7486,2.7747,2.8255,2.8933,2.8381,2.7667,2.6766,2.6369,2.6119,2.5983,2.5835,2.5713,2.5521,2.453,2.3855,2.3621,2.272,2.1864,2.1214,1.9366,0.0,0.0,0.0,0.0,0.0,0.0,0.0,0.0,0.0,1.6344,1.5923,0.0,1.9086,0.0,2.2582,2.318,2.0998,2.2457,0.0,0.0,2.2279,2.2534,2.3387,2.3377,2.3502,2.4096,2.3981,2.4066,2.4586,2.4205,2.4224,2.5055,2.3511,2.1968,2.1272,2.1786,2.2007,2.1524,2.1407,2.1652,2.1839,2.1342,2.0726,2.0177,1.9984,1.9871,1.974,1.9655,1.9557,1.9557,1.9557,1.9626,1.9619,1.974,1.9631,1.9356,1.8,1.7006,1.7863,1.7544,1.7236,3.4791,3.5143,3.5124,3.53,3.556,3.4876,3.4661,3.4747,3.4895,3.5054,3.5216,3.5216,3.5368,3.558,3.5383,3.535,3.5438,3.5223,3.4634,3.3789,3.399,3.3366,3.2033,3.2237,3.1667,3.0427,3.0424,3.0113,2.9536,2.9618,3.0117,3.0972,3.0774,3.0352,2.9732,2.9756,2.986,2.9973,2.9336,2.874,2.8198,2.7748,2.737,2.7061,2.6799,2.6559,2.6271,2.56,2.4997,2.4531,2.4127,2.3629,2.302,2.1351,2.034,0.0,0.0,0.0,0.0,0.0,0.0,0.0,0.0,0.0,0.0,0.0,2.1341,2.1924,2.4211,2.4728,2.2571,2.4229,2.5315,2.501,2.5241,2.57,2.648,2.6458,2.6512,2.6825,2.662,2.6588,2.6924,2.6591,2.6669,2.7608,2.6752,2.5431,2.397,2.3776,2.365,2.3301,2.3195,2.325,2.3571,2.3067,2.239,2.1655,2.1446,2.1306,2.0795,2.0693,2.0693,2.0693,2.0693,2.0693,2.0693,2.0693,2.0811,2.1154,2.043,1.9681,1.9693,1.8993,1.8556,3.5916,3.6524,3.6541,3.6934,3.747,3.6099,3.5897,3.6559,3.6849,3.7189,3.7505,3.7505,3.7505,3.7505,3.756,3.7238,3.663,3.6682,3.5946,3.4637,3.456,3.4166,3.3486,3.3335,3.2883,3.2218,3.2002,3.1437,3.0571,3.0435,3.068,3.1199,3.0485,3.0718,3.1946,3.1652,3.1213,3.0621,3.0038,2.9815,2.9859,2.9387,2.8835,2.8259,2.7789,2.7245,2.6639,2.6505,2.6012,2.501,2.5246,2.5194,2.4663,2.329,2.2522,0.0,2.0733,0.0,0.0,0.0,0.0,0.0,0.0,0.0,0.0,2.3434,2.4167,2.3888,2.5544,2.6135,2.4939,2.603,2.7141,2.7877,2.8309,2.8893,2.9674,2.9689,2.9629,2.9629,2.9496,2.9368,2.9184,2.9361,2.9316,2.918,2.9055,2.8326,2.6666,2.5442,2.4798,2.4497,2.4436,2.4495,2.4295,2.427,2.3981,2.3085,2.2923,2.2492,2.1694,2.1452,2.1325,2.1366,2.146,2.1366,2.126,2.137,2.1775,2.2728,2.284,2.2394,2.1324,2.0385,1.9858,3.7149,3.7291,3.7273,3.756,3.7948,3.7326,3.7145,3.7291,3.7379,3.7432,3.7505,3.7505,3.7505,3.7523,3.7844,3.791,3.7799,3.8116,3.7919,3.7329,3.7002,3.6604,3.6114,3.5096,3.4552,3.4315,3.3054,3.1906,3.0889,3.0454,3.0127,2.9883,2.9985,3.0355,3.0984,0.0,0.0,0.0,3.0814,3.051,3.0187,2.9589,2.9219,2.9076,2.8865,0.0,2.8086,2.7674,2.7187,2.6648,2.6297,0.0,0.0,0.0,0.0,0.0,0.0,0.0,0.0,0.0,0.0,0.0,2.4389,2.4176,2.3916,2.5886,2.7098,2.6915,2.8035,2.8635,2.8232,2.8764,2.9219,2.9392,2.9496,2.9626,2.9793,2.9772,2.9772,2.975,2.9645,2.9563,2.9546,2.9435,2.954,2.9843,2.9524,2.9275,2.9144,2.8148,2.7269,2.6447,2.6191,2.5854,2.4982,2.5267,2.5519,2.5175,2.5162,2.5025,2.4696,2.4348,2.4148,2.408,2.419,2.4135,2.4135,2.4541,2.4696,2.508,2.5232,2.4792,2.3102,2.2577,2.233,3.8181,3.82,3.8167,3.8249,0.0,3.8185,3.8085,3.8085,3.7879,3.7913,3.8085,3.8085,3.8101,3.8101,3.832,3.8401,3.8401,3.8611,3.8596,3.8346,3.7769,3.7384,3.7158,3.6139,3.5426,3.4972,3.4179,3.3304,3.2406,3.2109,3.1655,3.102,3.0766,3.0932,3.154,3.2143,3.2178,3.1696,3.1551,3.1344,3.0991,3.0431,2.9884,2.9431,2.9367,0.0,0.0,0.0,0.0,0.0,0.0,0.0,0.0,2.645,2.5948,2.5955,2.5133,2.4841,2.5329,2.5381,2.5965,2.7405,2.7742,2.7407,2.6414,2.7901,2.884,2.8761,2.9275,2.9572,2.9483,2.9881,3.014,3.0161,3.0347,3.0493,3.0493,3.0493,3.0493,3.0472,3.0452,3.0356,3.0293,3.0293,3.0309,3.0372,3.023,3.0021,2.9859,2.9264,2.8535,2.7972,2.7913,2.7678,2.7204,2.72,2.7191,2.6791,2.6622,2.64,2.5892,2.5591,2.5411,2.5398,2.5398,2.5398,2.5425,2.5632,2.5867,2.6189,2.6568,2.6568,2.5541,2.5008,2.475,3.9039,3.891,3.8851,3.8822,3.8792,3.8735,3.8704,3.8673,3.8352,0.0,0.0,3.8707,3.8689,3.8723,3.8689,3.8689,3.8723,3.8689,3.8707,3.8652,3.7716,3.7364,3.7437,3.6519,3.5862,3.5445,3.5298,3.483,3.4076,3.3889,3.3338,3.2445,3.1543,3.1464,3.2174,3.2722,3.2765,3.2367,3.2265,3.2057,3.1787,3.1365,3.0712,2.9815,2.9838,2.9551,2.8876,2.9257,2.9223,2.8608,2.8575,2.8516,2.8413,2.7913,2.7828,2.8246,2.7843,2.7902,2.8592,2.864,2.9006,2.9854,3.0351,3.0092,2.8882,2.955,3.0027,2.9924,2.9989,3.0027,2.9924,3.0368,3.0642,3.0723,3.0998,3.123,3.1368,3.1329,3.1274,3.137,3.1312,3.1252,3.1117,3.1114,3.1112,3.0875,3.0855,3.0794,3.007,2.9461,2.9067,2.8958,2.8889,2.9028,2.9074,2.8966,2.8756,2.7917,2.768,2.7278,2.6532,2.6081,2.5973,2.5946,2.5946,2.596,2.5946,2.6108,2.6292,2.6775,2.7399,2.784,2.7783,2.7283,2.6927,3.9538,3.891,3.8877,3.8848,3.8788,3.8792,3.8765,3.8707,3.8645,3.8643,3.8707,3.8707,3.8735,3.8777,3.8719,3.8719,3.8777,3.8719,3.8707,3.8615,3.7165,3.6831,3.7401,3.5903,3.5881,3.7015,3.6464,3.5786,3.5136,3.4239,3.3165,3.1943,3.0862,3.0729,3.1313,3.1397,3.2017,3.3172,3.2814,3.2418,3.2057,3.1808,3.1479,3.0995,3.0906,3.0538,2.9843,2.9881,2.9707,2.9285,2.9246,2.9291,2.9386,2.9311,2.9349,2.9528,2.9469,2.9469,2.961,2.9588,2.9832,3.0356,3.0838,3.0848,3.0286,3.069,3.0838,3.0456,3.072,3.0838,3.0497,3.0818,3.1196,3.1451,3.1332,3.1447,3.2021,3.1841,3.175,3.2039,3.1841,3.1638,3.1582,3.1408,3.1232,3.1131,3.1052,3.0858,3.0472,2.9728,2.9166,2.9113,2.9113,2.9113,2.9212,2.912,2.9074,2.8935,2.848,2.8176,2.7843,2.7195,2.6733,2.659,2.6628,2.6602,2.659,2.7023,2.7237,2.744,2.7915,2.8411,2.8414,2.8601,2.8693,3.9781,3.9026,3.8964,3.8954,3.8892,3.8837,3.8765,3.8707,3.8707,3.8707,3.8689,3.8735,3.8762,3.8788,3.8792,3.8567,3.8147,3.8103,3.7853,3.7312,3.6156,3.6028,3.6699,3.5717,3.5853,3.6971,3.6363,3.5888,3.5544,3.4665,3.3641,3.2622,3.192,3.1696,3.1841,3.2187,3.2716,3.3375,3.3196,3.2896,3.2484,3.2383,3.2161,3.1807,3.1771,3.1493,3.0951,3.0931,3.0751,3.0393,3.0393,3.0398,3.0456,3.0477,3.0514,3.0555,3.0555,3.0555,3.0572,3.0727,3.0996,3.1437,3.1677,3.1714,3.1511,3.1295,3.1131,3.0898,3.1092,3.1112,3.0918,3.1237,3.1543,3.1677,3.1749,3.1949,3.2214,3.2162,3.2109,3.2266,3.2144,3.2021,3.2039,3.1913,3.1675,3.1449,3.1173,3.0932,3.0814,3.0405,3.0011,2.9881,2.9875,2.9875,2.9837,2.9859,2.9766,2.9528,2.9264,2.9035,2.8803,2.8216,2.7923,2.7625,2.7565,2.7454,2.728,2.7397,2.7575,2.766,2.8154,2.8532,2.8667,2.9116,2.9448,4.0346,3.9398,3.9532,3.947,3.9252,3.8976,3.88,3.8738,3.8689,3.8814,3.8958,3.8869,3.8822,3.8851,3.8877,3.853,3.7966,3.7886,3.74,3.657,3.5881,3.5844,3.6272,3.603,3.6303,3.69,3.673,3.6562,3.6351,3.5705,3.4744,3.369,3.3331,3.3013,3.2757,3.3449,3.3768,3.3665,3.3665,3.3436,3.2957,3.2923,3.2765,3.2435,3.2401,3.2214,3.186,3.1859,3.1712,3.1466,3.1447,3.1447,3.1447,3.1464,3.1464,3.1428,3.1447,3.1447,3.1466,3.1693,3.1967,3.2283,3.2282,3.2282,3.2266,3.1786,3.1447,3.1447,3.1466,3.1466,3.1487,3.1675,3.186,3.195,3.2144,3.2368,3.2503,3.2469,3.2469,3.2519,3.2469,3.2401,3.2419,3.2351,3.2109,3.1657,3.1295,3.1058,3.0972,3.0912,3.0831,3.0712,3.0609,3.0506,3.0489,3.0447,3.0321,2.9989,2.9815,2.9595,2.9303,2.9189,2.8958,2.8519,2.8456,2.8328,2.8018,2.7968,2.7993,2.8088,2.8454,2.8728,2.8769,2.9103,2.9637,4.1679,4.0494,4.1029,4.0844,4.0059,3.9394,3.9036,3.8865,3.8771,3.9157,3.9801,3.9138,3.8932,3.8968,3.8939,3.8861,3.8765,3.8737,3.8203,3.747,3.7338,3.6942,3.6456,3.7215,3.7721,3.7923,3.8609,3.8641,3.8191,3.7939,3.675,3.472,3.4381,3.4167,3.3924,3.4552,3.4788,3.4498,3.4482,3.412,3.3385,3.3349,3.3144,3.2763,3.2765,3.2584,3.2248,3.2248,3.2214,3.2196,3.2179,3.2196,3.2179,3.2196,3.2196,3.2179,3.2162,3.2196,3.2196,3.2231,3.2265,3.23,3.2317,3.2334,3.2317,3.2266,3.2196,3.2196,3.2196,3.2144,3.2196,3.2231,3.2351,3.2568,3.2486,3.2554,3.3068,3.2972,3.2894,3.3256,3.2959,3.2765,3.2749,3.2536,3.2179,3.1805,3.1638,3.1391,3.1055,3.0935,3.0952,3.0975,3.0875,3.0667,3.0568,3.0489,3.0447,3.0363,3.007,2.9853,2.97,2.9438,2.9058,2.9097,2.9028,2.8982,2.8912,2.8943,2.8889,2.8748,2.8881,2.9046,2.9061,2.9132,2.9341,4.2572,4.1562,4.192,4.1753,4.1194,4.0821,4.0531,4.024,4.0415,4.0688,4.0981,4.0894,4.0443,3.9692,3.9352,3.8841,3.8251,3.8176,3.7665,3.6893,3.6791,3.6936,3.7318,3.7821,3.8434,3.9016,3.9186,3.9086,3.8784,3.8231,3.7344,3.6295,3.5685,3.5487,3.5627,3.5485,3.548,3.5665,3.5669,3.5418,3.4863,3.3927,3.3334,3.3178,3.3144,3.2972,3.2651,3.2584,3.2502,3.2317,3.2282,3.2282,3.2282,3.2282,3.2282,3.2282,3.2282,3.2384,3.2584,3.2584,3.27,3.2928,3.2943,3.2943,3.2943,3.2943,3.2943,3.2912,3.2553,3.2282,3.2334,3.2468,3.265,3.2797,3.2878,3.307,3.3331,3.3256,3.3241,3.3364,3.3256,3.3162,3.3099,3.2829,3.2452,3.2092,3.1895,3.1615,3.1131,3.0992,3.0935,3.0895,3.0773,3.0753,3.0736,3.0593,3.051,3.0485,3.0363,3.022,3.0222,3.0108,2.9859,2.9605,2.9592,2.9457,2.9113,2.912,2.9113,2.9143,2.9136,2.9113,2.9113,2.9113,2.9187,4.3412,4.2669,4.2504,4.2394,4.2294,4.2094,4.1795,4.1516,4.1712,4.1957,4.22,4.2313,4.1933,4.1096,4.0457,3.9562,3.8619,3.879,3.8113,3.698,3.7262,3.7696,3.8057,3.8525,3.9131,3.9743,3.9557,3.9365,3.926,3.8495,3.7993,3.7756,3.7166,3.6997,3.7261,3.6843,3.6764,3.6795,3.6776,3.6519,3.5992,3.4805,3.4014,3.3782,3.3535,3.3256,3.2988,3.2972,3.2844,3.2602,3.2603,3.2603,3.2603,3.262,3.2586,3.2602,3.2602,3.2718,3.2957,3.2972,3.3083,3.3364,3.3393,3.3393,3.3393,3.3393,3.3393,3.3349,3.2957,3.2699,3.2653,3.2813,3.2957,3.2988,3.3256,3.3393,3.3393,3.3393,3.3378,3.3393,3.3378,3.3393,3.3345,3.3129,3.2829,3.2468,3.2371,3.2078,3.1669,3.1644,3.1712,3.1482,3.1412,3.1166,3.0951,3.0671,3.0543,3.0787,3.0832,3.0894,3.1019,3.1118,3.0898,3.068,3.0429,3.0125,2.9798,2.9595,2.9483,2.9483,2.9483,2.9483,2.9633,2.9522,2.9506,4.4252,4.3407,4.2848,4.2951,4.3291,4.2762,4.2397,4.2253,4.2177,4.2623,4.3276,4.284,4.2834,4.3239,4.2513,4.1537,4.0673,4.1285,4.0371,3.8361,3.9638,3.9677,3.8418,3.9328,3.9835,3.9946,4.0081,4.0148,4.0129,3.9374,3.8954,3.8898,3.8746,3.8651,3.855,3.895,3.8926,3.8028,3.774,3.7234,3.6514,3.6098,3.545,3.4768,3.3872,3.3487,3.34,3.3382,3.3349,3.3334,3.3301,3.3301,3.3316,3.3301,3.3286,3.3301,3.3301,3.3316,3.3349,3.3331,3.3364,3.3393,3.3393,3.3393,3.3393,3.3393,3.3408,3.3426,3.3473,3.3441,3.3345,3.3316,3.3331,3.3316,3.3364,3.3393,3.3393,3.3393,3.3393,3.3393,3.3393,3.3393,3.3393,3.3378,3.3183,3.3041,3.3341,3.3442,3.2904,3.3089,3.3261,3.3172,3.2854,3.2295,3.097,3.0916,3.1111,3.13,3.1598,3.1714,3.2249,3.2531,3.2089,3.1753,3.1523,3.1155,3.0653,3.0384,3.0284,3.0241,3.0199,3.0236,3.0092,3.0321,3.0262,4.5101,4.4763,4.4463,4.4402,4.4455,4.4197,4.3971,4.3769,4.3957,4.4159,4.4433,4.4469,4.4566,4.4692,4.4416,4.3293,4.1701,4.1996,4.155,4.0671,4.1248,4.1023,4.0216,4.0514,4.0482,4.0195,4.0253,4.032,4.0282,3.9976,3.9823,3.9709,3.925,3.9185,3.9518,3.9365,3.9197,3.9207,3.911,3.8851,3.8289,3.7539,3.692,3.6597,3.5568,3.4752,3.4243,3.4202,3.3936,3.3411,3.3393,3.3393,3.3393,3.3393,3.3393,3.3393,3.3393,3.3393,3.3393,3.3393,3.3393,3.3393,3.3393,3.3408,3.3393,3.3393,3.3452,3.3549,3.3506,3.3549,3.3726,3.3689,3.3534,3.3422,3.3393,3.3393,3.3393,3.3393,3.3393,3.3393,3.3393,3.3393,3.3447,3.3393,3.3439,3.3571,3.3795,3.3933,3.3963,3.4067,3.4216,3.4051,3.3882,3.3528,3.2791,3.2244,3.2142,3.221,3.2332,3.2365,3.2718,3.2884,3.2541,3.2426,3.2315,3.2012,3.1427,3.0882,3.0837,3.0721,3.0688,3.082,3.0489,3.0704,3.0638,4.555,4.5485,4.537,4.5286,4.5211,4.5148,4.5019,4.4898,4.5105,4.5191,4.5222,4.5467,4.5504,4.5419,4.54,4.4676,4.3227,4.3194,4.2827,4.2197,4.2466,4.2276,4.1735,4.1643,4.1298,4.0731,4.0416,4.032,4.032,4.032,4.032,4.0244,3.9671,3.969,4.011,3.9699,3.9643,3.9962,3.9946,3.9796,3.9529,3.8752,3.825,3.8035,3.7312,3.6276,3.5157,3.4791,3.4386,3.3846,3.3556,3.3393,3.3393,3.3393,3.3393,3.3393,3.3393,3.3393,3.3393,3.3393,3.3422,3.3477,3.3491,3.3524,3.3577,3.3591,3.3657,3.3721,3.3766,3.382,3.3921,3.3934,3.3793,3.3563,3.3509,3.3466,3.3408,3.3393,3.3393,3.3447,3.3683,3.3773,3.3846,3.4063,3.4318,3.4562,3.4745,3.499,3.503,3.5254,3.5283,3.5114,3.5124,3.4941,3.4497,3.4117,3.3416,3.3317,3.315,3.3145,3.3232,3.3282,3.3232,3.3094,3.2878,3.2613,3.2166,3.157,3.1288,3.1172,3.1404,3.1636,3.1317,3.1052,3.1052,4.5504,4.5485,4.5429,4.5398,4.5378,4.5348,4.5369,4.5359,4.537,4.5371,4.5448,4.5495,4.5457,4.54,4.5438,4.5342,4.5057,4.4968,4.4146,4.2849,4.3537,4.3526,4.2783,4.2764,4.2306,4.1476,4.0673,4.0339,4.0396,4.0358,4.032,4.0301,4.0244,4.0186,4.032,4.0225,4.0225,4.0234,4.0057,3.9924,3.9862,3.9552,3.927,3.9072,3.8837,3.786,3.6076,3.5248,3.4803,3.4492,3.3861,3.3447,3.3411,3.3393,3.3393,3.3393,3.3408,3.3408,3.3404,3.3433,3.3577,3.3703,3.373,3.3788,3.3921,3.3947,3.3972,3.4023,3.4111,3.4197,3.4086,3.4161,3.4099,3.3762,3.3684,3.3605,3.3462,3.3393,3.3411,3.3556,3.4,3.4537,3.4736,3.5015,3.5417,3.574,3.6143,3.6443,3.631,3.6629,3.692,3.6763,3.6441,3.6132,3.6104,3.5968,3.5113,3.4415,3.414,3.4016,3.4217,3.431,3.4054,3.3905,3.3508,3.3226,3.2878,3.2348,3.2216,3.215,3.2365,3.2348,3.2083,3.1818,3.1681,4.5504,4.5485,4.5429,4.5408,4.5398,4.5348,4.5348,4.5408,4.5409,4.5419,4.5438,4.5429,4.5419,4.54,4.5429,4.5409,4.5359,4.5317,4.494,4.4516,4.4711,4.4437,4.3758,4.3624,4.3185,4.2278,4.095,4.0616,4.0922,4.0568,4.032,4.032,4.032,4.032,4.032,4.032,4.032,4.0291,4.0225,4.0176,4.0157,3.9914,3.9728,3.9628,3.9427,3.8843,3.8003,3.6973,3.5909,3.4841,3.4454,3.4029,3.3535,3.3393,3.3393,3.3408,3.3577,3.3671,3.3698,3.3829,3.3928,3.4036,3.4049,3.4055,3.4124,3.4111,3.4148,3.4221,3.4185,3.4148,3.434,3.4328,3.4185,3.3934,3.3775,3.3684,3.3559,3.3481,3.3683,3.409,3.4193,3.4521,3.5151,3.5551,3.5791,3.6512,3.6837,3.7008,3.7481,3.7629,3.7862,3.7739,3.7487,3.702,3.6664,3.6287,3.565,3.5099,3.4846,3.4705,3.4935,3.5108,3.4878,3.4642,3.4236,3.3891,3.3543,3.3243,3.3077,3.289,3.2807,3.2757,3.2685,3.2608,3.2541,4.5531,4.5541,4.5458,4.5429,4.5419,4.5351,4.535,4.5408,4.5408,4.5409,4.5409,4.5419,4.5419,4.5409,4.5418,4.5388,4.5348,4.5317,4.5277,4.5277,4.5277,4.4972,4.4456,4.4102,4.3777,4.3042,4.1552,4.1017,4.1418,4.0711,4.032,4.032,4.032,4.032,4.032,4.032,4.032,4.032,4.0301,4.032,4.0282,4.0147,3.9988,3.9873,3.9728,3.9464,3.9099,3.8419,3.737,3.6009,3.5264,3.4436,3.3557,3.3437,3.3422,3.347,3.3647,3.3807,3.3834,3.4016,3.4221,3.4281,3.4293,3.4305,3.4351,3.434,3.4386,3.4409,3.434,3.4293,3.4409,3.4393,3.4245,3.4136,3.3934,3.3753,3.3633,3.3481,3.3571,3.3964,3.4186,3.4747,3.5405,3.5964,3.6208,3.7181,3.7448,3.752,3.8082,3.8174,3.8192,3.8088,3.7703,3.7283,3.6919,3.6533,3.6105,3.5732,3.5414,3.5341,3.5407,3.5599,3.5569,3.5397,3.5076,3.4863,3.4516,3.4087,3.3806,3.357,3.3494,3.3789,3.3951,3.3606,3.3444,4.5594,4.5586,4.5522,4.5495,4.5485,4.5438,4.539,4.5418,4.5418,4.5418,4.5408,4.5418,4.5408,4.5379,4.5388,4.5348,4.5307,4.5307,4.5277,4.5277,4.5277,4.5201,4.5067,4.4369,4.4025,4.3834,4.2374,4.1686,4.1877,4.096,4.0377,4.0473,4.0377,4.032,4.032,4.032,4.032,4.032,4.032,4.032,4.0301,4.0301,4.0195,3.9956,3.9914,3.9773,3.9525,3.9346,3.8807,3.7586,3.6066,3.4853,3.385,3.3582,3.3608,3.3531,3.3716,3.3855,3.3895,3.413,3.4316,3.4525,3.4495,3.4514,3.4634,3.4615,3.4594,3.4583,3.4539,3.4443,3.434,3.4269,3.4227,3.4233,3.4049,3.382,3.3462,3.3411,3.3538,3.3686,3.4175,3.4865,3.5645,3.628,3.6931,3.7667,3.7883,3.7919,3.8154,3.8209,3.8209,3.8003,3.7721,3.7321,3.688,3.6308,3.5932,3.5866,3.5739,3.5876,3.5788,3.595,3.6066,3.5921,3.5817,3.5659,3.5408,3.4907,3.4668,3.4585,3.476,3.518,3.4956,3.4421,3.4164,4.5594,4.5586,4.5522,4.5504,4.5495,4.5429,4.5419,4.541,4.54,4.54,4.5418,4.5408,4.5369,4.5328,4.5328,4.5317,4.5307,4.5288,4.5277,4.5277,4.5277,4.5277,4.5125,4.4456,4.435,4.459,4.3271,4.2775,4.3185,4.182,4.1151,4.1151,4.0549,4.032,4.032,4.032,4.032,4.032,4.032,4.032,4.032,4.032,4.0263,4.0196,4.0147,4.0007,3.9807,3.9796,3.9118,3.776,3.6729,3.5643,3.4625,3.4491,3.4324,3.4007,3.4086,3.4239,3.4383,3.4548,3.472,3.4778,3.4718,3.4768,3.4768,3.4737,3.4687,3.4634,3.4506,3.4351,3.4281,3.4161,3.4036,3.3895,3.3921,3.3815,3.3506,3.3411,3.3592,3.4175,3.4209,3.4677,3.5403,3.5734,3.6134,3.7002,3.7412,3.7557,3.7901,3.8209,3.8192,3.7951,3.7632,3.7208,3.6744,3.6161,3.5827,3.5827,3.5963,3.6329,3.6203,3.6122,3.6169,3.613,3.6155,3.6045,3.5873,3.5574,3.5554,3.5264,3.5218,3.5171,3.5048,3.4702,3.4682,4.5594,4.5594,4.554,4.5531,4.5531,4.5504,4.5457,4.5438,4.5438,4.5419,4.5418,4.5408,4.5388,4.5338,4.5317,4.5317,4.5328,4.5317,4.5277,4.5277,4.5277,4.5277,4.5163,4.4723,4.4819,4.5067,4.394,4.3624,4.3586,4.2316,4.16,4.1323,4.0711,4.032,4.032,4.032,4.032,4.032,4.032,4.032,4.032,4.032,4.0272,4.0253,4.0225,4.0128,4.0038,4.0048,3.9443,3.8343,3.7634,3.6901,3.5837,3.5687,3.5369,3.4773,3.489,3.4947,3.4658,3.4763,3.4802,3.478,3.4788,3.4747,3.4655,3.4602,3.4561,3.4514,3.4305,3.4161,3.403,3.3934,3.3793,3.3643,3.3753,3.3739,3.3422,3.3393,3.3592,3.3894,3.3983,3.4125,3.5173,3.5035,3.5465,3.6244,3.6904,3.7194,3.7557,3.7901,3.8121,3.786,3.7523,3.7094,3.6801,3.6329,3.5985,3.5963,3.6287,3.6658,3.6781,3.66,3.6664,3.6704,3.6583,3.6419,3.6211,3.5929,3.5504,3.5247,3.5171,3.5078,3.5001,3.5041,3.5041,4.5594,4.5594,4.5594,4.5594,4.5594,4.5594,4.5559,4.5513,4.5504,4.5477,4.5429,4.5409,4.5409,4.5389,4.5338,4.5357,4.5379,4.5328,4.5307,4.5277,4.5277,4.5277,4.5277,4.5201,4.5182,4.5182,4.4475,4.4236,4.393,4.2622,4.182,4.1609,4.0922,4.0425,4.0339,4.032,4.032,4.032,4.032,4.032,4.032,4.032,4.0272,4.0225,4.0215,4.0225,4.0196,4.0196,3.9814,3.8912,3.8845,3.8128,3.7183,3.6967,3.6585,3.5895,3.578,3.557,3.4977,3.4954,3.4743,3.4668,3.4666,3.4572,3.4409,3.434,3.4328,3.4281,3.4086,3.3895,3.3739,3.3671,3.3605,3.3495,3.3591,3.3563,3.3433,3.3393,3.3393,3.3393,3.3411,3.3791,3.4208,3.4552,3.4772,3.5447,3.6019,3.6345,3.6868,3.7393,3.7665,3.7778,3.7399,3.6958,3.6759,3.6516,3.6308,3.6203,3.6638,3.7034,3.7449,3.7431,3.7449,3.7412,3.7111,3.6761,3.6419,3.6041,3.5594,3.5293,3.5224,3.5125,3.5048,3.5211,3.5258,4.5594,4.5594,4.5594,4.5594,4.5594,4.5594,4.5586,4.5577,4.5577,4.5541,4.5495,4.5467,4.5438,4.541,4.537,4.5379,4.5398,4.5338,4.5277,4.5277,4.5277,4.5277,4.5277,4.5277,4.5277,4.522,4.5125,4.4991,4.4666,4.3864,4.3119,4.245,4.159,4.0922,4.0416,4.0339,4.032,4.032,4.032,4.032,4.032,4.0301,4.0291,4.0253,4.0263,4.0244,4.0234,4.0263,4.0167,3.9976,3.9665,3.9014,3.8078,3.7933,3.7603,3.6893,3.6362,3.612,3.5922,3.5401,3.4879,3.4612,3.4539,3.4416,3.4105,3.4086,3.4086,3.4036,3.3881,3.3684,3.352,3.3462,3.3452,3.3422,3.3452,3.3466,3.3408,3.3393,3.3393,3.3393,3.3393,3.3484,3.3665,3.3737,3.4099,3.4715,3.5131,3.5421,3.6037,3.6759,3.7158,3.7413,3.7149,3.6791,3.6939,3.6799,3.6641,3.6563,3.6939,3.7188,3.7613,3.7863,3.7757,3.7649,3.7522,3.7131,3.6643,3.6336,3.595,3.5638,3.531,3.5165,3.5135,3.5321,3.5389,4.5594,4.5594,4.5594,4.5594,4.5594,4.5594,4.5594,4.5594,4.5594,4.5549,4.5504,4.5504,4.5485,4.5438,4.5429,4.54,4.538,4.5319,4.5277,4.5277,4.5277,4.5277,4.5277,4.5277,4.5277,4.5277,4.5277,4.5277,4.5067,4.4475,4.372,4.3271,4.2163,4.1342,4.0826,4.0492,4.032,4.032,4.032,4.032,4.032,4.0301,4.0253,4.0234,4.0234,4.0215,4.0166,4.0244,4.0301,4.0282,4.0157,3.9804,3.9211,3.9142,3.8772,3.8045,3.7697,3.7176,3.6796,3.6026,3.5306,3.4808,3.4521,3.4161,3.3959,3.3873,3.3873,3.382,3.3684,3.3491,3.3408,3.3393,3.3393,3.3393,3.3393,3.3393,3.3393,3.3393,3.3393,3.3393,3.3393,3.3393,3.3393,3.3393,3.3484,3.4099,3.4679,3.4969,3.5204,3.591,3.6616,3.688,3.6738,3.6713,3.7027,3.7055,3.6978,3.7018,3.7247,3.7376,3.7541,3.7721,3.7827,3.7757,3.7667,3.7262,3.6821,3.6522,3.6143,3.5627,3.5274,3.5175,3.5175,3.5337,3.536,4.5594,4.5594,4.5594,4.5594,4.5594,4.5594,4.5594,4.5594,4.5594,4.5568,4.5522,4.5513,4.5532,4.5475,4.5429,4.54,4.5351,4.532,4.5277,4.5277,4.5277,4.5277,4.5277,4.5277,4.5277,4.5277,4.5277,4.5277,4.5086,4.4609,4.4178,4.3758,4.2526,4.1686,4.1361,4.0731,4.032,4.032,4.032,4.032,4.032,4.032,4.0244,4.0205,4.0215,4.0206,4.0186,4.0244,4.032,4.032,4.032,4.032,4.032,4.0263,4.0015,3.9147,3.887,3.8328,3.7552,3.6738,3.5957,3.5346,3.4874,3.4431,3.4234,3.4246,3.4282,3.4094,3.396,3.364,3.3429,3.3393,3.3393,3.3393,3.3393,3.3393,3.3393,3.3393,3.3393,3.3393,3.3393,3.3393,3.3393,3.3393,3.3393,3.3484,3.4063,3.448,3.4682,3.5025,3.5747,3.6336,3.6236,3.6772,3.7142,3.6912,3.6891,3.7272,3.7488,3.7399,3.7453,3.7739,3.7915,3.7863,3.7685,3.7319,3.6958,3.6603,3.6143,3.5571,3.5331,3.5308,3.5308,3.5331,3.5337,4.5594,4.5594,4.5594,4.5594,4.5594,4.5594,4.5594,4.5594,4.5594,4.5586,4.5586,4.5605,4.5577,4.5559,4.5438,4.5361,4.5339,4.5317,4.5277,4.5277,4.5277,4.5277,4.5277,4.5277,4.5277,4.5277,4.5277,4.5277,4.5277,4.5135,4.4647,4.3949,4.308,4.2335,4.1552,4.0769,4.0377,4.032,4.032,4.032,4.032,4.0301,4.0291,4.0234,4.0253,4.0253,4.0253,4.0291,4.032,4.032,4.032,4.032,4.032,4.032,4.0101,3.9746,3.9338,3.889,3.8367,3.7585,3.6836,3.6332,3.5955,3.573,3.5475,3.5356,3.5187,3.5118,3.4706,3.4157,3.3465,3.3628,3.3484,3.3447,3.3556,3.3538,3.3484,3.3484,3.3447,3.3411,3.3411,3.3393,3.3393,3.3393,3.3393,3.3393,3.3647,3.3882,3.3954,3.4317,3.4824,3.5351,3.5783,3.6541,3.7326,3.6881,3.6702,3.7271,3.7462,3.7246,3.7408,3.7823,3.7966,3.7536,3.7559,3.7522,3.715,3.6744,3.6249,3.5717,3.5549,3.5446,3.5446,3.5429,3.5475,4.5594,4.5594,4.5594,4.5594,4.5594,4.5594,4.5594,4.5594,4.5594,4.5594,4.5594,4.5594,4.5594,4.5577,4.5523,4.5429,4.5369,4.5317,4.5307,4.5277,4.5277,4.5277,4.5277,4.5277,4.5277,4.5277,4.5277,4.5277,4.5277,4.5277,4.5029,4.4628,4.3815,4.3004,4.2183,4.138,4.0711,4.0454,4.032,4.032,4.0301,4.0301,4.0291,4.0263,4.0272,4.0272,4.0253,4.0282,4.0301,4.032,4.032,4.032,4.032,4.0291,4.0263,4.0061,3.9805,3.9528,3.9195,3.8477,3.7701,3.7062,3.6685,3.6201,3.5924,3.5747,3.5876,3.5713,3.5605,3.508,3.4751,3.4588,3.4643,3.4661,3.4588,3.4389,3.4154,3.4045,3.3864,3.3628,3.3484,3.3465,3.3393,3.3393,3.3393,3.3393,3.3393,3.3393,3.3393,3.3719,3.4208,3.4891,3.5503,3.628,3.6931,3.6626,3.6553,3.7134,3.7214,3.7015,3.6979,3.7237,3.7023,3.6627,3.6839,3.7471,3.7339,3.6981,3.6419,3.592,3.5711,3.5549,3.5526,3.5526,3.5549,4.5594,4.5594,4.5594,4.5594,4.5594,4.5594,4.5594,4.5594,4.5594,4.5594,4.5594,4.5586,4.5577,4.5578,4.5514,4.5438,4.5369,4.5317,4.5307,4.5277,4.5277,4.5277,4.5277,4.5277,4.5277,4.5277,4.5277,4.5277,4.5277,4.5277,4.5277,4.4953,4.438,4.3586,4.2717,4.1781,4.1094,4.0559,4.032,4.032,4.0301,4.0244,4.0244,4.0234,4.0282,4.0272,4.0234,4.0272,4.0301,4.032,4.032,4.032,4.032,4.032,4.032,4.032,4.032,4.0157,3.9777,3.9332,3.8564,3.7905,3.7239,3.6743,3.649,3.6544,3.6363,3.6093,3.6037,3.5892,3.562,3.5713,3.5713,3.5677,3.5605,3.555,3.5044,3.4772,3.4624,3.4298,3.3828,3.3592,3.3574,3.3393,3.3393,3.3393,3.3393,3.3393,3.3393,3.3393,3.3864,3.4661,3.5356,3.6041,3.6373,3.623,3.6394,3.6984,3.6761,3.6399,3.6363,3.6419,3.6222,3.6242,3.6877,3.7394,3.7292,3.7136,3.6623,3.6178,3.5849,3.5644,3.5594,3.5571,3.5594,4.5594,4.5594,4.5594,4.5594,4.5594,4.5594,4.5594,4.5594,4.5594,4.5594,4.5586,4.555,4.5504,4.5485,4.5448,4.5379,4.5328,4.5307,4.5277,4.5277,4.5277,4.5277,4.5277,4.5277,4.5277,4.5277,4.5277,4.5277,4.5277,4.5277,4.5277,4.5105,4.4532,4.3643,4.2966,4.2125,4.1094,4.0473,4.0339,4.0291,4.0273,4.0087,4.0087,4.0234,4.0263,4.0272,4.0263,4.0301,4.032,4.032,4.032,4.032,4.032,4.032,4.032,4.032,4.0282,4.0186,3.9948,3.9724,3.9326,3.8711,3.8389,3.8255,3.7794,3.7612,3.7412,3.6886,3.6868,3.6616,3.6218,3.5946,3.584,3.5967,3.6164,3.6019,3.5677,3.5639,3.5457,3.5095,3.4679,3.4135,3.3828,3.3592,3.3393,3.3393,3.3393,3.3393,3.3393,3.3393,3.3465,3.4208,3.4842,3.5512,3.5747,3.5602,3.6019,3.6653,3.6272,3.5856,3.6091,3.6182,3.6182,3.6365,3.6908,3.7131,3.6985,3.6823,3.6661,3.6495,3.6245,3.592,3.56,3.5622,3.5711,4.5594,4.5594,4.5594,4.5594,4.5594,4.5594,4.5594,4.5586,4.5549,4.5531,4.5522,4.5485,4.5448,4.5429,4.5418,4.5359,4.5307,4.5277,4.5277,4.5277,4.5277,4.5277,4.5277,4.5277,4.5277,4.5277,4.5277,4.5277,4.5277,4.5277,4.5277,4.522,4.4914,4.4341,4.3424,4.2641,4.1839,4.1065,4.0462,4.0186,4.0157,3.9954,3.987,4.0273,4.0157,4.0176,4.0282,4.032,4.032,4.032,4.032,4.032,4.032,4.032,4.032,4.032,4.032,4.0263,4.0147,4.0076,3.9651,3.9216,3.8929,3.8626,3.8338,3.8191,3.8118,3.7738,3.7683,3.7448,3.7178,3.716,3.716,3.7142,3.6924,3.6689,3.6562,3.6453,3.6325,3.591,3.553,3.5059,3.4498,3.4009,3.3755,3.3556,3.352,3.3465,3.3429,3.3393,3.3484,3.3719,3.4298,3.4844,3.4987,3.4987,3.5457,3.5874,3.5584,3.5406,3.5946,3.6109,3.6091,3.6037,3.6202,3.6394,3.6516,3.6738,3.6814,3.674,3.6641,3.6253,3.5912,3.598,3.6045,4.5594,4.5594,4.5594,4.5594,4.5594,4.5594,4.5586,4.5568,4.5513,4.5495,4.5467,4.5429,4.54,4.5379,4.5359,4.5338,4.5297,4.5277,4.5277,4.5277,4.5277,4.5277,4.5277,4.5277,4.5277,4.5277,4.5277,4.5277,4.5277,4.5277,4.5277,4.5277,4.522,4.4723,4.4025,4.3338,4.2564,4.1261,4.0285,3.996,3.9943,3.9623,3.977,3.9965,4.0057,4.0046,4.0273,4.032,4.032,4.032,4.032,4.032,4.032,4.0225,4.0234,4.0234,4.0234,4.0215,4.0215,4.0157,3.9818,3.9383,3.8929,3.8585,3.8307,3.8209,3.8209,3.8118,3.8118,3.8154,3.8191,3.8118,3.7993,3.7938,3.7993,3.772,3.7448,3.7267,3.7158,3.6924,3.6562,3.6182,3.5548,3.4697,3.4208,3.3846,3.3683,3.3628,3.352,3.3484,3.3465,3.3592,3.3773,3.4208,3.4244,3.441,3.4899,3.5261,3.4989,3.517,3.582,3.6001,3.5965,3.5874,3.5786,3.5935,3.6235,3.6645,3.7005,3.6925,3.6798,3.6481,3.6291,3.6336,3.6388,4.5594,4.5594,4.5594,4.5594,4.5594,4.5594,4.5568,4.5513,4.5504,4.5448,4.5419,4.539,4.5339,4.5317,4.5298,4.5307,4.5277,4.5277,4.5277,4.5277,4.5277,4.5277,4.5277,4.5277,4.5277,4.5277,4.5277,4.5277,4.5277,4.5277,4.5277,4.5277,4.5277,4.4743,4.4255,4.3854,4.2834,4.1505,4.0321,3.9738,3.9614,3.94,3.9395,3.9796,3.9924,4.0036,4.0282,4.0301,4.0273,4.0273,4.0244,4.0205,4.0137,4.0007,4.0007,4.0087,4.0007,4.0036,4.0087,4.0176,3.9924,3.9358,3.8789,3.8403,3.8242,3.8209,3.8209,3.8209,3.8209,3.8209,3.8209,3.8209,3.8209,3.8209,3.8209,3.81,3.7901,3.7955,3.7846,3.7846,3.7557,3.7069,3.6834,3.6055,3.5113,3.4715,3.448,3.4407,3.3828,3.3683,3.352,3.3502,3.3447,3.3556,3.3538,3.3864,3.4371,3.4953,3.5116,3.5406,3.5928,3.5965,3.6127,3.5874,3.5838,3.5892,3.5933,3.6242,3.6557,3.6934,3.6945,3.6685,3.6531,3.6522,3.6678,4.5594,4.5594,4.5594,4.5594,4.5594,4.5559,4.5522,4.5495,4.5458,4.54,4.535,4.5338,4.5328,4.5307,4.5277,4.5277,4.5277,4.5277,4.5277,4.5277,4.5277,4.5277,4.5277,4.5277,4.5277,4.5277,4.5277,4.5277,4.5277,4.5277,4.5277,4.5277,4.5277,4.5163,4.4781,4.4187,4.3096,4.193,4.0778,4.0158,3.9917,3.9179,3.9017,3.958,3.964,3.9785,4.0017,4.0225,4.0176,4.0098,4.0048,3.9975,3.9889,3.9728,3.9728,3.9826,3.9717,3.9739,3.987,4.0036,3.9905,3.9231,3.8673,3.8292,3.8225,3.8209,3.8209,3.8209,3.8209,3.8209,3.8209,3.8209,3.8209,3.8209,3.8209,3.8209,3.8209,3.8209,3.8191,3.8028,3.7991,3.7774,3.7647,3.7468,3.649,3.5639,3.5388,3.508,3.4516,3.4045,3.3954,3.3701,3.3628,3.3429,3.3411,3.3628,3.3864,3.4516,3.517,3.5566,3.5946,3.6526,3.6596,3.6236,3.6127,3.649,3.6494,3.6035,3.6332,3.72,3.7255,3.6898,3.6821,3.6805,3.6958,4.5594,4.5594,4.5594,4.5586,4.5568,4.5513,4.5505,4.5467,4.5419,4.5359,4.5277,4.5277,4.5277,4.5277,4.5277,4.5277,4.5256,4.5194,4.5235,4.5224,4.5194,4.5235,4.5256,4.5277,4.5277,4.5277,4.5277,4.5277,4.5277,4.5277,4.5277,4.5277,4.5277,4.5258,4.5067,4.4416,4.3412,4.229,4.123,4.0349,3.9973,3.9132,3.8748,3.9292,3.9389,3.9508,3.9698,3.9881,3.9862,3.9796,3.9739,3.9651,3.9551,3.9452,3.9439,3.9452,3.9439,3.9414,3.9575,3.9611,3.9621,3.9044,3.8624,3.8354,3.8241,3.8225,3.8209,3.8209,3.8209,3.8209,3.8209,3.8209,3.8209,3.8209,3.8209,3.8209,3.8209,3.8209,3.8209,3.8172,3.8136,3.81,3.8046,3.7848,3.7285,3.6327,3.5765,3.5514,3.5225,3.4842,3.4588,3.428,3.3954,3.3701,3.3465,3.3574,3.3755,3.4356,3.4987,3.5457,3.5928,3.6524,3.6759,3.6309,3.6435,3.7142,3.6962,3.6282,3.6893,3.7832,3.7571,3.7183,3.7362,3.7394,3.7413,4.5594,4.5594,4.5594,4.5549,4.5504,4.5495,4.5467,4.5409,4.5389,4.5348,4.5277,4.5267,4.5246,4.5246,4.5173,4.514,4.5087,4.4934,4.4934,4.5065,4.4941,4.5011,4.5109,4.5173,4.5098,4.5256,4.5203,4.514,4.5194,4.5213,4.5235,4.5235,4.5194,4.5205,4.5191,4.4446,4.3471,4.2401,4.1311,4.0405,3.9573,3.8977,3.8951,3.8952,3.9151,3.9311,3.9446,3.9513,3.9525,3.9508,3.9396,3.9364,3.9376,3.9178,3.9205,3.9376,3.9224,3.9251,3.9439,3.9259,3.9073,3.8924,3.8582,3.8368,3.8289,3.8241,3.8209,3.8209,3.8209,3.8209,3.8209,3.8209,3.8209,3.8209,3.8209,3.8209,3.8209,3.8209,3.8209,3.8209,3.8209,3.8209,3.8209,3.81,3.7738,3.7067,3.629,3.5928,3.5822,3.5641,3.5421,3.4842,3.4425,3.4099,3.3828,3.352,3.3665,3.428,3.4679,3.4987,3.5584,3.62,3.6309,3.6218,3.6779,3.7502,3.7051,3.6437,3.716,3.7759,3.7754,3.7596,3.7791,3.7897,3.7845,4.5594,4.5594,4.5594,4.555,4.5438,4.5429,4.541,4.5408,4.5367,4.5317,4.5246,4.5087,4.4969,4.4934,4.4814,4.4752,4.4695,4.4656,4.4656,4.4682,4.4572,4.4585,4.4695,4.4758,4.4733,4.4707,4.4714,4.4752,4.4701,4.4875,4.4976,4.4969,4.4969,4.4976,4.4919,4.4531,4.4077,4.3268,4.2318,4.1373,4.0235,3.9554,3.9093,3.8865,3.9053,3.9203,3.9275,3.9296,3.9216,3.92,3.9082,3.9031,3.9031,3.8851,3.8877,3.8979,3.8851,3.8881,3.8935,3.8815,3.8789,3.873,3.8612,3.8368,3.8307,3.8224,3.8209,3.8209,3.8209,3.8209,3.8209,3.8209,3.8209,3.8209,3.8209,3.8209,3.8209,3.8209,3.8209,3.8209,3.8209,3.8209,3.8209,3.8209,3.7937,3.7846,3.7196,3.6816,3.6689,3.6526,3.629,3.553,3.4969,3.4588,3.4226,3.3755,3.3447,3.3791,3.4009,3.4154,3.4842,3.5802,3.6345,3.649,3.7176,3.7756,3.7466,3.7214,3.7249,3.7473,3.7662,3.7844,3.8003,3.8089,3.8089,4.5605,4.5568,4.5568,4.5495,4.541,4.5419,4.538,4.5359,4.5317,4.5277,4.5235,4.4957,4.48,4.4726,4.4546,4.4416,4.4402,4.4289,4.4355,4.436,4.4289,4.436,4.4402,4.4369,4.4484,4.4402,4.4402,4.443,4.4471,4.4585,4.465,4.4682,4.465,4.4585,4.4553,4.4436,4.4178,4.3379,4.2532,4.1873,4.0952,4.0308,3.9836,3.9543,3.9421,3.9364,3.9287,3.9145,3.8929,3.8851,3.8748,3.8691,3.8624,3.8611,3.8578,3.8596,3.8609,3.8624,3.864,3.867,3.8676,3.87,3.8507,3.8382,3.8322,3.8257,3.8225,3.8209,3.8209,3.8209,3.8209,3.8209,3.8242,3.8242,3.8242,3.8242,3.8242,3.8242,3.8209,3.8209,3.8209,3.8209,3.8209,3.8209,3.8136,3.8154,3.8136,3.7792,3.7466,3.7303,3.7033,3.6327,3.5566,3.5095,3.4498,3.3828,3.3556,3.3411,3.3628,3.3918,3.4482,3.5494,3.6146,3.685,3.7448,3.7919,3.81,3.8046,3.7774,3.7738,3.7905,3.8051,3.8192,3.8209,3.8209,4.554,4.5504,4.5495,4.5458,4.5409,4.539,4.5351,4.5288,4.5288,4.5277,4.5267,4.4934,4.4739,4.4701,4.4465,4.4299,4.426,4.406,4.4117,4.4173,4.4026,4.4147,4.4217,4.4256,4.4184,4.4289,4.4289,4.4173,4.4346,4.4374,4.4388,4.443,4.4397,4.4289,4.4202,4.4102,4.3855,4.3234,4.2809,4.2116,4.1307,4.0965,4.0694,4.0377,4.0036,3.9756,3.9465,3.9017,3.8604,3.8415,3.8368,3.8385,3.8385,3.8399,3.8399,3.8415,3.8478,3.8478,3.8525,3.859,3.859,3.8585,3.846,3.8399,3.8352,3.8274,3.8225,3.8209,3.8209,3.8209,3.8207,3.8257,3.829,3.829,3.829,3.829,3.8256,3.8241,3.8209,3.8209,3.8209,3.8209,3.8209,3.8209,3.8209,3.8209,3.8209,3.8154,3.7901,3.7937,3.7631,3.7142,3.6381,3.562,3.4987,3.4498,3.3976,3.3954,3.4027,3.4283,3.479,3.517,3.5892,3.6651,3.752,3.783,3.7504,3.7685,3.8009,3.8009,3.7757,3.8136,3.8209,3.8209,3.8209,4.5513,4.5495,4.5448,4.541,4.5408,4.5359,4.5309,4.5288,4.5277,4.5277,4.5286,4.4745,4.4546,4.4465,4.3977,4.3823,4.3744,4.3697,4.3681,4.3714,4.3747,4.373,4.3761,4.3807,4.3758,4.3775,4.3793,4.3839,4.3841,4.3968,4.425,4.4374,4.4177,4.4014,4.3873,4.3744,4.3459,4.3212,4.295,4.2407,4.1917,4.1647,4.141,4.1005,4.0445,4.0115,3.9703,3.8946,3.8512,3.8368,3.8338,3.8338,3.8382,3.8399,3.8399,3.8382,3.8401,3.8385,3.846,3.8478,3.8496,3.8478,3.843,3.8368,3.8322,3.8257,3.8209,3.8209,3.8209,3.8209,3.8241,3.829,3.8322,3.8336,3.8338,3.8305,3.8289,3.8241,3.8225,3.8209,3.8209,3.8209,3.8209,3.8209,3.8209,3.8209,3.8209,3.8209,3.8209,3.8209,3.8118,3.7631,3.7031,3.6218,3.6055,3.5657,3.4971,3.4501,3.4591,3.457,3.4606,3.5023,3.5675,3.6453,3.7321,3.7087,3.6435,3.6979,3.8028,3.7431,3.7196,3.7757,3.8209,3.8209,3.8209,4.5477,4.5458,4.541,4.538,4.5348,4.5317,4.5277,4.5277,4.5277,4.5246,4.5065,4.4617,4.4346,4.4158,4.3761,4.3531,4.3531,4.3548,4.3548,4.3548,4.3479,4.3531,4.3496,4.3479,4.3531,4.3479,4.3479,4.3563,4.3566,4.3666,4.3905,4.398,4.3825,4.3763,4.3614,4.3462,4.3323,4.3178,4.3032,4.2722,4.2505,4.2359,4.2103,4.1717,4.1103,4.063,4.0123,3.9311,3.8753,3.8411,3.8274,3.8272,3.8322,3.8322,3.8303,3.8305,3.834,3.8338,3.8401,3.8415,3.8417,3.8417,3.8385,3.8338,3.829,3.8207,3.8209,3.8209,3.8209,3.8225,3.8257,3.8305,3.8352,3.8382,3.8368,3.8336,3.8289,3.8241,3.8225,3.8209,3.8209,3.8209,3.8209,3.8209,3.8209,3.8209,3.8209,3.8209,3.8209,3.8209,3.8209,3.7991,3.743,3.6796,3.6723,3.6526,3.5802,3.5243,3.5279,3.5152,3.4787,3.524,3.6252,3.6741,3.714,3.6816,3.6544,3.7305,3.8028,3.7395,3.7105,3.7775,3.8209,3.8209,3.8209,4.5409,4.5408,4.5379,4.5378,4.5307,4.5277,4.5267,4.5256,4.5235,4.5109,4.4843,4.4493,4.425,4.4072,4.3697,4.3496,4.3479,4.3479,4.3479,4.3479,4.3479,4.3479,4.3479,4.3479,4.3479,4.3479,4.3479,4.3479,4.3479,4.3565,4.3599,4.3496,4.3532,4.3497,4.341,4.3304,4.3196,4.3068,4.3068,4.2958,4.3014,4.3087,4.3232,4.3084,4.2443,4.1731,4.0915,4.0065,3.9217,3.8696,3.8354,3.839,3.8225,3.8123,3.8105,3.8139,3.8174,3.8223,3.8305,3.8352,3.8354,3.8338,3.8289,3.8272,3.8257,3.8207,3.8209,3.8209,3.8209,3.8225,3.8257,3.8338,3.8401,3.8399,3.8382,3.8366,3.8352,3.8272,3.8209,3.8209,3.8209,3.8209,3.8225,3.8242,3.8322,3.8274,3.8257,3.8257,3.8242,3.8242,3.8209,3.8209,3.7828,3.7357,3.723,3.6961,3.6399,3.6055,3.6075,3.5768,3.5388,3.6037,3.6941,3.6886,3.6707,3.7104,3.7214,3.772,3.783,3.7449,3.7395,3.7957,3.8209,3.8191,3.8209,4.5418,4.5408,4.5338,4.5317,4.5288,4.5277,4.5143,4.4934,4.4922,4.5011,4.503,4.4457,4.4162,4.4147,4.3697,4.3479,4.3479,4.3479,4.3479,4.3479,4.3479,4.3479,4.3479,4.3479,4.3479,4.3479,4.3479,4.3479,4.3479,4.3479,4.3479,4.3479,4.3481,4.3412,4.3269,4.3196,4.3123,4.2975,4.303,4.303,4.2994,4.3123,4.3214,4.3049,4.2556,4.2153,4.1446,4.0866,4.0362,3.9948,3.9369,3.8879,3.8263,3.7916,3.7897,3.8054,3.795,3.8018,3.8138,3.8272,3.8289,3.8322,3.8322,3.8305,3.8272,3.8224,3.8209,3.8209,3.8209,3.8224,3.8274,3.8354,3.8417,3.8415,3.8415,3.8399,3.8382,3.8305,3.8209,3.8209,3.8209,3.8225,3.8242,3.8305,3.8382,3.8415,3.843,3.8415,3.8352,3.8338,3.8242,3.8225,3.8209,3.7901,3.7721,3.7522,3.7051,3.6997,3.7069,3.6635,3.6057,3.6218,3.6524,3.6272,3.62,3.6598,3.7015,3.7448,3.7449,3.7087,3.7377,3.7828,3.8082,3.8118,3.8172,4.5328,4.5338,4.5162,4.5095,4.5072,4.5076,4.491,4.465,4.4624,4.4733,4.4833,4.4312,4.4033,4.4042,4.3631,4.3479,4.3479,4.3479,4.3479,4.3479,4.3479,4.3479,4.3479,4.3479,4.3479,4.3479,4.3479,4.3479,4.3427,4.3479,4.3479,4.348,4.3411,4.3305,4.3178,4.316,4.3087,4.2901,4.2975,4.2975,4.2938,4.3087,4.3196,4.3032,4.2885,4.2483,4.1939,4.1395,4.1016,4.0455,3.9731,3.9297,3.8718,3.8236,3.7898,3.788,3.7862,3.7844,3.7966,3.8087,3.8206,3.8239,3.8305,3.829,3.8305,3.8274,3.829,3.8274,3.8225,3.8225,3.8241,3.8305,3.8338,3.8352,3.8354,3.8338,3.8305,3.8241,3.8209,3.8209,3.8225,3.8274,3.8305,3.8401,3.8491,3.8698,3.8664,3.8572,3.8494,3.8401,3.8305,3.8242,3.8209,3.8209,3.8029,3.7973,3.7828,3.7883,3.7883,3.754,3.6979,3.629,3.5928,3.62,3.6254,3.6091,3.6526,3.6888,3.6761,3.6345,3.6888,3.7575,3.7792,3.8009,3.8154,4.5224,4.5203,4.4879,4.4752,4.4751,4.4745,4.4599,4.4388,4.4346,4.4318,4.4275,4.403,4.3781,4.3649,4.3479,4.3479,4.3479,4.3479,4.3479,4.3479,4.3479,4.3479,4.3479,4.3479,4.3427,4.3375,4.3357,4.3268,4.316,4.316,4.3196,4.3339,4.334,4.3251,4.316,4.3105,4.3012,4.2863,4.2862,4.2919,4.2994,4.3087,4.316,4.3233,4.3214,4.2868,4.2323,4.1905,4.1506,4.0945,4.0257,3.9643,3.9066,3.8474,3.7936,3.7739,3.7667,3.7596,3.7614,3.7827,3.7967,3.8106,3.8191,3.8241,3.8223,3.8238,3.8238,3.8154,3.8105,3.814,3.8139,3.8139,3.8154,3.8239,3.8239,3.8274,3.8259,3.8209,3.8209,3.8209,3.8274,3.834,3.8417,3.8476,3.868,3.8862,3.8862,3.874,3.8634,3.8478,3.8368,3.8274,3.8209,3.8209,3.8209,3.8191,3.8118,3.8118,3.8064,3.8082,3.7846,3.6922,3.6506,3.6798,3.6761,3.6109,3.5928,3.6182,3.5928,3.5729,3.6562,3.7303,3.7448,3.7701,3.8082,4.514,4.4887,4.4604,4.4484,4.4471,4.4465,4.4336,4.4109,4.406,4.3939,4.3744,4.3681,4.3666,4.386,4.3599,4.3515,4.3479,4.3479,4.3479,4.3479,4.3479,4.3479,4.3479,4.3479,4.3304,4.3178,4.3032,4.2807,4.2751,4.2617,4.2655,4.2957,4.2824,4.2786,4.2826,4.2806,4.2786,4.2614,4.271,4.2806,4.2862,4.2956,4.3086,4.3141,4.3141,4.3032,4.2886,4.2758,4.2612,4.2155,4.1225,4.0254,3.9479,3.872,3.8103,3.771,3.7623,3.7366,3.7403,3.7503,3.7649,3.7667,3.7739,3.7827,3.7844,3.7879,3.7808,3.7632,3.7632,3.7809,3.7827,3.7756,3.7774,3.7949,3.8019,3.8156,3.8207,3.8209,3.8209,3.8276,3.834,3.8419,3.8528,3.8695,3.8927,3.9064,3.9064,3.8931,3.871,3.8572,3.8415,3.8322,3.8209,3.8209,3.8209,3.8209,3.8191,3.8209,3.8172,3.8082,3.7792,3.7267,3.7031,3.6997,3.6472,3.5747,3.5675,3.582,3.5566,3.5566,3.6415,3.7031,3.7176,3.7428,3.7861]}]]